Wetterdaten: Dienstag, 03.11.2015
Datum Zeit Temp. A. Feuchte A. Luftdruck Regen Wind Richtung Richtung Sonnenschein ET UV Solar Taupunkt Windchill Windben Empfang
03.11.2015 00:00 -0,5 C 93 % 1027,3 hPa 0,0 l/m 1,7 km/h (1 Bft) SO 129 0 min 0,000 mm 0,0 UV-I 0 W/m -1,5 C -0,5 C 3,2 km/h (1 Bft) 95,65 %
03.11.2015 00:02 -0,5 C 93 % 1027,3 hPa 0,0 l/m 0,7 km/h (0 Bft) SO 129 0 min 0,000 mm 0,0 UV-I 0 W/m -1,5 C -0,5 C 1,6 km/h (1 Bft) 100,00 %
03.11.2015 00:03 -0,5 C 93 % 1027,3 hPa 0,0 l/m 0,0 km/h (0 Bft) SO 129 0 min 0,000 mm 0,0 UV-I 0 W/m -1,5 C -0,5 C 0,0 km/h (0 Bft) 91,67 %
03.11.2015 00:04 -0,4 C 94 % 1027,3 hPa 0,0 l/m 0,0 km/h (0 Bft) SO 129 0 min 0,000 mm 0,0 UV-I 0 W/m -1,2 C -0,4 C 0,0 km/h (0 Bft) 100,00 %
03.11.2015 00:05 -0,4 C 94 % 1027,3 hPa 0,0 l/m 0,0 km/h (0 Bft) SO 129 0 min 0,000 mm 0,0 UV-I 0 W/m -1,2 C -0,4 C 0,0 km/h (0 Bft) 100,00 %
03.11.2015 00:06 -0,4 C 94 % 1027,3 hPa 0,0 l/m 0,0 km/h (0 Bft) SO 129 0 min 0,000 mm 0,0 UV-I 0 W/m -1,2 C -0,4 C 0,0 km/h (0 Bft) 95,83 %
03.11.2015 00:07 -0,4 C 94 % 1027,3 hPa 0,0 l/m 0,0 km/h (0 Bft) SO 129 0 min 0,000 mm 0,0 UV-I 0 W/m -1,2 C -0,4 C 0,0 km/h (0 Bft) 100,00 %
03.11.2015 00:08 -0,3 C 94 % 1027,3 hPa 0,0 l/m 0,0 km/h (0 Bft) SO 129 0 min 0,000 mm 0,0 UV-I 0 W/m -1,1 C -0,3 C 0,0 km/h (0 Bft) 100,00 %
03.11.2015 00:09 -0,3 C 94 % 1027,3 hPa 0,0 l/m 0,0 km/h (0 Bft) SO 129 0 min 0,000 mm 0,0 UV-I 0 W/m -1,1 C -0,3 C 0,0 km/h (0 Bft) 100,00 %
03.11.2015 00:10 -0,2 C 94 % 1027,3 hPa 0,0 l/m 0,0 km/h (0 Bft) SO 129 0 min 0,000 mm 0,0 UV-I 0 W/m -1,0 C -0,2 C 0,0 km/h (0 Bft) 100,00 %
03.11.2015 00:11 -0,2 C 94 % 1027,4 hPa 0,0 l/m 0,0 km/h (0 Bft) SO 129 0 min 0,000 mm 0,0 UV-I 0 W/m -1,0 C -0,2 C 0,0 km/h (0 Bft) 100,00 %
03.11.2015 00:12 -0,1 C 94 % 1027,4 hPa 0,0 l/m 0,4 km/h (0 Bft) SO 129 0 min 0,000 mm 0,0 UV-I 0 W/m -0,9 C -0,1 C 1,6 km/h (1 Bft) 95,83 %
03.11.2015 00:13 -0,2 C 93 % 1027,4 hPa 0,0 l/m 1,4 km/h (1 Bft) SO 129 0 min 0,000 mm 0,0 UV-I 0 W/m -1,2 C -0,2 C 1,6 km/h (1 Bft) 100,00 %
03.11.2015 00:14 -0,3 C 93 % 1027,4 hPa 0,0 l/m 0,8 km/h (0 Bft) SO 129 0 min 0,000 mm 0,0 UV-I 0 W/m -1,3 C -0,3 C 1,6 km/h (1 Bft) 100,00 %
03.11.2015 00:15 -0,3 C 93 % 1027,4 hPa 0,0 l/m 0,5 km/h (0 Bft) SO 129 0 min 0,000 mm 0,0 UV-I 0 W/m -1,3 C -0,3 C 1,6 km/h (1 Bft) 100,00 %
03.11.2015 00:16 -0,3 C 93 % 1027,4 hPa 0,0 l/m 0,8 km/h (0 Bft) SO 129 0 min 0,000 mm 0,0 UV-I 0 W/m -1,3 C -0,3 C 1,6 km/h (1 Bft) 95,83 %
03.11.2015 00:17 -0,3 C 94 % 1027,4 hPa 0,0 l/m 0,1 km/h (0 Bft) SO 129 0 min 0,000 mm 0,0 UV-I 0 W/m -1,1 C -0,3 C 1,6 km/h (1 Bft) 100,00 %
03.11.2015 00:18 -0,4 C 94 % 1027,3 hPa 0,0 l/m 0,5 km/h (0 Bft) SO 129 0 min 0,000 mm 0,0 UV-I 0 W/m -1,2 C -0,4 C 1,6 km/h (1 Bft) 95,83 %
03.11.2015 00:19 -0,4 C 93 % 1027,3 hPa 0,0 l/m 1,2 km/h (1 Bft) SO 129 0 min 0,000 mm 0,0 UV-I 0 W/m -1,4 C -0,4 C 3,2 km/h (1 Bft) 100,00 %
03.11.2015 00:20 -0,4 C 93 % 1027,3 hPa 0,0 l/m 1,6 km/h (1 Bft) SO 129 0 min 0,000 mm 0,0 UV-I 0 W/m -1,4 C -0,4 C 1,6 km/h (1 Bft) 100,00 %
03.11.2015 00:21 -0,4 C 94 % 1027,3 hPa 0,0 l/m 1,7 km/h (1 Bft) SO 129 0 min 0,000 mm 0,0 UV-I 0 W/m -1,2 C -0,4 C 3,2 km/h (1 Bft) 92,86 %
03.11.2015 00:22 -0,4 C 94 % 1027,3 hPa 0,0 l/m 2,1 km/h (1 Bft) SO 129 0 min 0,000 mm 0,0 UV-I 0 W/m -1,2 C -0,4 C 3,2 km/h (1 Bft) 100,00 %
03.11.2015 00:23 -0,4 C 94 % 1027,3 hPa 0,0 l/m 2,3 km/h (1 Bft) SO 128 0 min 0,000 mm 0,0 UV-I 0 W/m -1,2 C -0,4 C 3,2 km/h (1 Bft) 100,00 %
03.11.2015 00:24 -0,4 C 94 % 1027,2 hPa 0,0 l/m 1,9 km/h (1 Bft) SO 128 0 min 0,000 mm 0,0 UV-I 0 W/m -1,2 C -0,4 C 3,2 km/h (1 Bft) 100,00 %
03.11.2015 00:25 -0,3 C 95 % 1027,2 hPa 0,0 l/m 1,7 km/h (1 Bft) O-SO 121 0 min 0,000 mm 0,0 UV-I 0 W/m -1,0 C -0,3 C 3,2 km/h (1 Bft) 95,83 %
03.11.2015 00:26 -0,2 C 95 % 1027,1 hPa 0,0 l/m 1,2 km/h (1 Bft) O-SO 121 0 min 0,000 mm 0,0 UV-I 0 W/m -0,9 C -0,2 C 3,2 km/h (1 Bft) 100,00 %
03.11.2015 00:27 -0,1 C 95 % 1027,1 hPa 0,0 l/m 1,8 km/h (1 Bft) O-SO 121 0 min 0,000 mm 0,0 UV-I 0 W/m -0,8 C -0,1 C 3,2 km/h (1 Bft) 100,00 %
03.11.2015 00:28 0,0 C 95 % 1027,1 hPa 0,0 l/m 1,6 km/h (1 Bft) O-SO 121 0 min 0,000 mm 0,0 UV-I 0 W/m -0,7 C 0,0 C 1,6 km/h (1 Bft) 100,00 %
03.11.2015 00:29 0,1 C 95 % 1027,1 hPa 0,0 l/m 2,1 km/h (1 Bft) O-SO 105 0 min 0,000 mm 0,0 UV-I 0 W/m -0,6 C 0,1 C 3,2 km/h (1 Bft) 100,00 %
03.11.2015 00:30 0,3 C 95 % 1027,0 hPa 0,0 l/m 1,4 km/h (1 Bft) O-SO 104 0 min 0,000 mm 0,0 UV-I 0 W/m -0,4 C 0,3 C 3,2 km/h (1 Bft) 100,00 %
03.11.2015 00:31 0,4 C 95 % 1027,0 hPa 0,0 l/m 2,0 km/h (1 Bft) O 86 0 min 0,000 mm 0,0 UV-I 0 W/m -0,3 C 0,4 C 3,2 km/h (1 Bft) 100,00 %
03.11.2015 00:32 0,6 C 95 % 1026,9 hPa 0,0 l/m 2,9 km/h (1 Bft) O 84 0 min 0,000 mm 0,0 UV-I 0 W/m -0,1 C 0,6 C 4,8 km/h (1 Bft) 100,00 %
03.11.2015 00:33 0,8 C 95 % 1027,0 hPa 0,0 l/m 3,4 km/h (1 Bft) O 82 0 min 0,000 mm 0,0 UV-I 0 W/m 0,1 C 0,8 C 4,8 km/h (1 Bft) 100,00 %
03.11.2015 00:34 0,8 C 95 % 1027,0 hPa 0,0 l/m 1,9 km/h (1 Bft) O-NO 73 0 min 0,000 mm 0,0 UV-I 0 W/m 0,1 C 0,8 C 3,2 km/h (1 Bft) 100,00 %
03.11.2015 00:35 0,9 C 95 % 1026,9 hPa 0,0 l/m 2,5 km/h (1 Bft) O 80 0 min 0,000 mm 0,0 UV-I 0 W/m 0,2 C 0,9 C 4,8 km/h (1 Bft) 95,83 %
03.11.2015 00:36 1,0 C 94 % 1026,9 hPa 0,0 l/m 1,1 km/h (1 Bft) O-NO 75 0 min 0,000 mm 0,0 UV-I 0 W/m 0,1 C 1,0 C 3,2 km/h (1 Bft) 100,00 %
03.11.2015 00:37 1,1 C 93 % 1026,8 hPa 0,0 l/m 1,0 km/h (0 Bft) O-NO 75 0 min 0,000 mm 0,0 UV-I 0 W/m 0,1 C 1,1 C 3,2 km/h (1 Bft) 100,00 %
03.11.2015 00:38 1,0 C 93 % 1026,8 hPa 0,0 l/m 0,7 km/h (0 Bft) O-NO 75 0 min 0,000 mm 0,0 UV-I 0 W/m -0,0 C 1,0 C 1,6 km/h (1 Bft) 98,96 %
03.11.2015 00:39 1,0 C 92 % 1026,8 hPa 0,0 l/m 1,0 km/h (0 Bft) O-NO 73 0 min 0,000 mm 0,0 UV-I 0 W/m -0,2 C 1,0 C 4,8 km/h (1 Bft) 100,00 %
03.11.2015 00:40 1,0 C 93 % 1026,8 hPa 0,0 l/m 0,6 km/h (0 Bft) O-NO 73 0 min 0,000 mm 0,0 UV-I 0 W/m -0,0 C 1,0 C 1,6 km/h (1 Bft) 100,00 %
03.11.2015 00:41 1,1 C 93 % 1026,9 hPa 0,0 l/m 1,3 km/h (1 Bft) O 86 0 min 0,000 mm 0,0 UV-I 0 W/m 0,1 C 1,1 C 3,2 km/h (1 Bft) 95,83 %
03.11.2015 00:42 1,1 C 93 % 1026,8 hPa 0,0 l/m 2,2 km/h (1 Bft) O-NO 77 0 min 0,000 mm 0,0 UV-I 0 W/m 0,1 C 1,1 C 3,2 km/h (1 Bft) 100,00 %
03.11.2015 00:43 1,1 C 92 % 1026,9 hPa 0,0 l/m 1,4 km/h (1 Bft) O-NO 77 0 min 0,000 mm 0,0 UV-I 0 W/m -0,1 C 1,1 C 3,2 km/h (1 Bft) 100,00 %
03.11.2015 00:44 1,1 C 92 % 1026,9 hPa 0,0 l/m 1,4 km/h (1 Bft) O-NO 77 0 min 0,000 mm 0,0 UV-I 0 W/m -0,1 C 1,1 C 3,2 km/h (1 Bft) 100,00 %
03.11.2015 00:45 1,1 C 92 % 1027,0 hPa 0,0 l/m 1,4 km/h (1 Bft) O-NO 77 0 min 0,000 mm 0,0 UV-I 0 W/m -0,1 C 1,1 C 3,2 km/h (1 Bft) 100,00 %
03.11.2015 00:46 1,1 C 92 % 1027,0 hPa 0,0 l/m 1,6 km/h (1 Bft) O-NO 77 0 min 0,000 mm 0,0 UV-I 0 W/m -0,1 C 1,1 C 3,2 km/h (1 Bft) 100,00 %
03.11.2015 00:47 1,1 C 92 % 1027,0 hPa 0,0 l/m 0,4 km/h (0 Bft) O-NO 77 0 min 0,000 mm 0,0 UV-I 0 W/m -0,1 C 1,1 C 1,6 km/h (1 Bft) 100,00 %
03.11.2015 00:48 1,1 C 92 % 1027,0 hPa 0,0 l/m 0,2 km/h (0 Bft) O-NO 78 0 min 0,000 mm 0,0 UV-I 0 W/m -0,1 C 1,1 C 1,6 km/h (1 Bft) 100,00 %
03.11.2015 00:49 1,1 C 90 % 1027,1 hPa 0,0 l/m 1,9 km/h (1 Bft) O-SO 114 0 min 0,000 mm 0,0 UV-I 0 W/m -0,4 C 1,1 C 3,2 km/h (1 Bft) 100,00 %
03.11.2015 00:50 0,8 C 89 % 1027,0 hPa 0,0 l/m 1,7 km/h (1 Bft) O-SO 121 0 min 0,000 mm 0,0 UV-I 0 W/m -0,8 C 0,8 C 3,2 km/h (1 Bft) 100,00 %
03.11.2015 00:51 0,6 C 88 % 1027,0 hPa 0,0 l/m 1,1 km/h (1 Bft) O-SO 121 0 min 0,000 mm 0,0 UV-I 0 W/m -1,2 C 0,6 C 1,6 km/h (1 Bft) 96,15 %
03.11.2015 00:52 0,3 C 88 % 1027,0 hPa 0,0 l/m 0,2 km/h (0 Bft) O-SO 121 0 min 0,000 mm 0,0 UV-I 0 W/m -1,4 C 0,3 C 1,6 km/h (1 Bft) 100,00 %
03.11.2015 00:53 0,1 C 89 % 1027,1 hPa 0,0 l/m 0,0 km/h (0 Bft) O-SO 121 0 min 0,000 mm 0,0 UV-I 0 W/m -1,5 C 0,1 C 0,0 km/h (0 Bft) 100,00 %
03.11.2015 00:54 -0,1 C 90 % 1027,1 hPa 0,0 l/m 0,2 km/h (0 Bft) O-SO 121 0 min 0,000 mm 0,0 UV-I 0 W/m -1,5 C -0,1 C 1,6 km/h (1 Bft) 100,00 %
03.11.2015 00:55 -0,2 C 90 % 1027,1 hPa 0,0 l/m 0,7 km/h (0 Bft) O-SO 121 0 min 0,000 mm 0,0 UV-I 0 W/m -1,6 C -0,2 C 1,6 km/h (1 Bft) 100,00 %
03.11.2015 00:56 -0,3 C 91 % 1027,1 hPa 0,0 l/m 0,8 km/h (0 Bft) O-SO 121 0 min 0,000 mm 0,0 UV-I 0 W/m -1,6 C -0,3 C 1,6 km/h (1 Bft) 100,00 %
03.11.2015 00:57 -0,3 C 92 % 1027,0 hPa 0,0 l/m 0,1 km/h (0 Bft) O-SO 121 0 min 0,000 mm 0,0 UV-I 0 W/m -1,4 C -0,3 C 1,6 km/h (1 Bft) 100,00 %
03.11.2015 00:58 -0,4 C 92 % 1027,0 hPa 0,0 l/m 0,5 km/h (0 Bft) O-SO 121 0 min 0,000 mm 0,0 UV-I 0 W/m -1,5 C -0,4 C 1,6 km/h (1 Bft) 100,00 %
03.11.2015 00:59 -0,4 C 92 % 1027,0 hPa 0,0 l/m 0,0 km/h (0 Bft) O-SO 121 0 min 0,000 mm 0,0 UV-I 0 W/m -1,5 C -0,4 C 0,0 km/h (0 Bft) 91,67 %
03.11.2015 01:00 -0,3 C 93 % 1027,0 hPa 0,0 l/m 0,0 km/h (0 Bft) O-SO 121 0 min 0,000 mm 0,0 UV-I 0 W/m -1,3 C -0,3 C 0,0 km/h (0 Bft) 100,00 %
03.11.2015 01:01 -0,3 C 94 % 1027,1 hPa 0,0 l/m 0,6 km/h (0 Bft) O-SO 121 0 min 0,000 mm 0,0 UV-I 0 W/m -1,1 C -0,3 C 3,2 km/h (1 Bft) 96,55 %
03.11.2015 01:02 -0,3 C 93 % 1027,1 hPa 0,0 l/m 2,6 km/h (1 Bft) S 183 0 min 0,000 mm 0,0 UV-I 0 W/m -1,3 C -0,3 C 4,8 km/h (1 Bft) 100,00 %
03.11.2015 01:03 -0,3 C 92 % 1027,1 hPa 0,0 l/m 2,4 km/h (1 Bft) S 184 0 min 0,000 mm 0,0 UV-I 0 W/m -1,4 C -0,3 C 3,2 km/h (1 Bft) 100,00 %
03.11.2015 01:04 -0,4 C 92 % 1027,1 hPa 0,0 l/m 2,2 km/h (1 Bft) S 184 0 min 0,000 mm 0,0 UV-I 0 W/m -1,5 C -0,4 C 3,2 km/h (1 Bft) 100,00 %
03.11.2015 01:05 -0,4 C 92 % 1027,1 hPa 0,0 l/m 2,7 km/h (1 Bft) SW 215 0 min 0,000 mm 0,0 UV-I 0 W/m -1,5 C -0,4 C 4,8 km/h (1 Bft) 100,00 %
03.11.2015 01:06 -0,5 C 92 % 1027,1 hPa 0,0 l/m 2,3 km/h (1 Bft) SW 215 0 min 0,000 mm 0,0 UV-I 0 W/m -1,6 C -0,5 C 3,2 km/h (1 Bft) 100,00 %
03.11.2015 01:07 -0,6 C 92 % 1027,1 hPa 0,0 l/m 2,1 km/h (1 Bft) SW 215 0 min 0,000 mm 0,0 UV-I 0 W/m -1,7 C -0,6 C 3,2 km/h (1 Bft) 100,00 %
03.11.2015 01:08 -0,7 C 92 % 1027,1 hPa 0,0 l/m 0,3 km/h (0 Bft) SW 215 0 min 0,000 mm 0,0 UV-I 0 W/m -1,8 C -0,7 C 1,6 km/h (1 Bft) 100,00 %
03.11.2015 01:09 -0,7 C 93 % 1027,1 hPa 0,0 l/m 0,0 km/h (0 Bft) SW 215 0 min 0,000 mm 0,0 UV-I 0 W/m -1,7 C -0,7 C 0,0 km/h (0 Bft) 100,00 %
03.11.2015 01:10 -0,8 C 92 % 1027,1 hPa 0,0 l/m 0,0 km/h (0 Bft) SW 215 0 min 0,000 mm 0,0 UV-I 0 W/m -1,9 C -0,8 C 0,0 km/h (0 Bft) 95,65 %
03.11.2015 01:11 -0,8 C 93 % 1027,1 hPa 0,0 l/m 0,0 km/h (0 Bft) SW 215 0 min 0,000 mm 0,0 UV-I 0 W/m -1,8 C -0,8 C 0,0 km/h (0 Bft) 100,00 %
03.11.2015 01:12 -0,8 C 93 % 1027,1 hPa 0,0 l/m 0,0 km/h (0 Bft) SW 215 0 min 0,000 mm 0,0 UV-I 0 W/m -1,8 C -0,8 C 0,0 km/h (0 Bft) 100,00 %
03.11.2015 01:13 -0,8 C 93 % 1027,1 hPa 0,0 l/m 0,0 km/h (0 Bft) SW 215 0 min 0,000 mm 0,0 UV-I 0 W/m -1,8 C -0,8 C 0,0 km/h (0 Bft) 100,00 %
03.11.2015 01:14 -0,8 C 94 % 1027,1 hPa 0,0 l/m 0,0 km/h (0 Bft) SW 215 0 min 0,000 mm 0,0 UV-I 0 W/m -1,6 C -0,8 C 0,0 km/h (0 Bft) 96,15 %
03.11.2015 01:15 -0,7 C 94 % 1027,1 hPa 0,0 l/m 0,2 km/h (0 Bft) SW 215 0 min 0,000 mm 0,0 UV-I 0 W/m -1,5 C -0,7 C 1,6 km/h (1 Bft) 100,00 %
03.11.2015 01:16 -0,7 C 94 % 1027,1 hPa 0,0 l/m 0,2 km/h (0 Bft) SW 215 0 min 0,000 mm 0,0 UV-I 0 W/m -1,5 C -0,7 C 1,6 km/h (1 Bft) 96,15 %
03.11.2015 01:17 -0,7 C 94 % 1027,1 hPa 0,0 l/m 0,0 km/h (0 Bft) SW 215 0 min 0,000 mm 0,0 UV-I 0 W/m -1,5 C -0,7 C 0,0 km/h (0 Bft) 95,83 %
03.11.2015 01:18 -0,7 C 94 % 1027,1 hPa 0,0 l/m 0,0 km/h (0 Bft) SW 215 0 min 0,000 mm 0,0 UV-I 0 W/m -1,5 C -0,7 C 0,0 km/h (0 Bft) 100,00 %
03.11.2015 01:19 -0,7 C 94 % 1027,1 hPa 0,0 l/m 0,0 km/h (0 Bft) SW 215 0 min 0,000 mm 0,0 UV-I 0 W/m -1,5 C -0,7 C 0,0 km/h (0 Bft) 100,00 %
03.11.2015 01:20 -0,6 C 95 % 1027,1 hPa 0,0 l/m 0,0 km/h (0 Bft) SW 215 0 min 0,000 mm 0,0 UV-I 0 W/m -1,3 C -0,6 C 0,0 km/h (0 Bft) 100,00 %
03.11.2015 01:21 -0,5 C 95 % 1027,1 hPa 0,0 l/m 0,0 km/h (0 Bft) SW 215 0 min 0,000 mm 0,0 UV-I 0 W/m -1,2 C -0,5 C 0,0 km/h (0 Bft) 100,00 %
03.11.2015 01:22 -0,4 C 95 % 1027,1 hPa 0,0 l/m 0,3 km/h (0 Bft) SW 215 0 min 0,000 mm 0,0 UV-I 0 W/m -1,1 C -0,4 C 1,6 km/h (1 Bft) 100,00 %
03.11.2015 01:23 -0,4 C 94 % 1027,0 hPa 0,0 l/m 0,2 km/h (0 Bft) SW 215 0 min 0,000 mm 0,0 UV-I 0 W/m -1,2 C -0,4 C 1,6 km/h (1 Bft) 100,00 %
03.11.2015 01:24 -0,4 C 94 % 1027,0 hPa 0,0 l/m 0,6 km/h (0 Bft) SW 215 0 min 0,000 mm 0,0 UV-I 0 W/m -1,2 C -0,4 C 1,6 km/h (1 Bft) 100,00 %
03.11.2015 01:25 -0,5 C 94 % 1027,0 hPa 0,0 l/m 1,3 km/h (1 Bft) S-SW 212 0 min 0,000 mm 0,0 UV-I 0 W/m -1,3 C -0,5 C 1,6 km/h (1 Bft) 100,00 %
03.11.2015 01:26 -0,5 C 93 % 1027,0 hPa 0,0 l/m 0,3 km/h (0 Bft) S-SW 212 0 min 0,000 mm 0,0 UV-I 0 W/m -1,5 C -0,5 C 1,6 km/h (1 Bft) 96,30 %
03.11.2015 01:27 -0,6 C 94 % 1027,0 hPa 0,0 l/m 0,0 km/h (0 Bft) S-SW 212 0 min 0,000 mm 0,0 UV-I 0 W/m -1,4 C -0,6 C 0,0 km/h (0 Bft) 100,00 %
03.11.2015 01:28 -0,6 C 94 % 1027,0 hPa 0,0 l/m 0,0 km/h (0 Bft) S-SW 212 0 min 0,000 mm 0,0 UV-I 0 W/m -1,4 C -0,6 C 0,0 km/h (0 Bft) 100,00 %
03.11.2015 01:29 -0,6 C 94 % 1027,0 hPa 0,0 l/m 0,6 km/h (0 Bft) S-SW 212 0 min 0,000 mm 0,0 UV-I 0 W/m -1,4 C -0,6 C 1,6 km/h (1 Bft) 92,86 %
03.11.2015 01:30 -0,6 C 94 % 1026,9 hPa 0,0 l/m 0,8 km/h (0 Bft) S-SW 212 0 min 0,000 mm 0,0 UV-I 0 W/m -1,4 C -0,6 C 1,6 km/h (1 Bft) 100,00 %
03.11.2015 01:31 -0,6 C 94 % 1026,8 hPa 0,0 l/m 0,7 km/h (0 Bft) S-SW 212 0 min 0,000 mm 0,0 UV-I 0 W/m -1,4 C -0,6 C 1,6 km/h (1 Bft) 96,15 %
03.11.2015 01:32 -0,6 C 95 % 1026,8 hPa 0,0 l/m 0,3 km/h (0 Bft) S-SW 212 0 min 0,000 mm 0,0 UV-I 0 W/m -1,3 C -0,6 C 1,6 km/h (1 Bft) 100,00 %
03.11.2015 01:33 -0,7 C 95 % 1026,8 hPa 0,0 l/m 0,0 km/h (0 Bft) S-SW 212 0 min 0,000 mm 0,0 UV-I 0 W/m -1,4 C -0,7 C 0,0 km/h (0 Bft) 95,65 %
03.11.2015 01:34 -0,7 C 94 % 1026,8 hPa 0,0 l/m 0,0 km/h (0 Bft) S-SW 212 0 min 0,000 mm 0,0 UV-I 0 W/m -1,5 C -0,7 C 0,0 km/h (0 Bft) 100,00 %
03.11.2015 01:35 -0,7 C 94 % 1026,8 hPa 0,0 l/m 0,1 km/h (0 Bft) S-SW 212 0 min 0,000 mm 0,0 UV-I 0 W/m -1,5 C -0,7 C 1,6 km/h (1 Bft) 100,00 %
03.11.2015 01:36 -0,7 C 95 % 1026,8 hPa 0,0 l/m 0,5 km/h (0 Bft) S-SW 212 0 min 0,000 mm 0,0 UV-I 0 W/m -1,4 C -0,7 C 1,6 km/h (1 Bft) 100,00 %
03.11.2015 01:37 -0,6 C 95 % 1026,7 hPa 0,0 l/m 0,0 km/h (0 Bft) S-SW 212 0 min 0,000 mm 0,0 UV-I 0 W/m -1,3 C -0,6 C 0,0 km/h (0 Bft) 100,00 %
03.11.2015 01:38 -0,6 C 95 % 1026,7 hPa 0,0 l/m 0,0 km/h (0 Bft) S-SW 212 0 min 0,000 mm 0,0 UV-I 0 W/m -1,3 C -0,6 C 0,0 km/h (0 Bft) 100,00 %
03.11.2015 01:39 -0,5 C 95 % 1026,8 hPa 0,0 l/m 0,0 km/h (0 Bft) S-SW 212 0 min 0,000 mm 0,0 UV-I 0 W/m -1,2 C -0,5 C 0,0 km/h (0 Bft) 100,00 %
03.11.2015 01:40 -0,5 C 95 % 1026,8 hPa 0,0 l/m 0,0 km/h (0 Bft) S-SW 212 0 min 0,000 mm 0,0 UV-I 0 W/m -1,2 C -0,5 C 0,0 km/h (0 Bft) 100,00 %
03.11.2015 01:41 -0,4 C 95 % 1026,8 hPa 0,0 l/m 0,0 km/h (0 Bft) S-SW 212 0 min 0,000 mm 0,0 UV-I 0 W/m -1,1 C -0,4 C 0,0 km/h (0 Bft) 100,00 %
03.11.2015 01:42 -0,5 C 94 % 1026,8 hPa 0,0 l/m 0,0 km/h (0 Bft) S-SW 212 0 min 0,000 mm 0,0 UV-I 0 W/m -1,3 C -0,5 C 0,0 km/h (0 Bft) 100,00 %
03.11.2015 01:43 -0,4 C 94 % 1026,8 hPa 0,0 l/m 0,0 km/h (0 Bft) S-SW 212 0 min 0,000 mm 0,0 UV-I 0 W/m -1,2 C -0,4 C 0,0 km/h (0 Bft) 100,00 %
03.11.2015 01:44 -0,5 C 94 % 1026,8 hPa 0,0 l/m 0,2 km/h (0 Bft) S-SW 212 0 min 0,000 mm 0,0 UV-I 0 W/m -1,3 C -0,5 C 1,6 km/h (1 Bft) 100,00 %
03.11.2015 01:45 -0,6 C 94 % 1026,8 hPa 0,0 l/m 0,8 km/h (0 Bft) S-SW 212 0 min 0,000 mm 0,0 UV-I 0 W/m -1,4 C -0,6 C 1,6 km/h (1 Bft) 95,83 %
03.11.2015 01:46 -0,6 C 94 % 1026,8 hPa 0,0 l/m 0,5 km/h (0 Bft) S-SW 212 0 min 0,000 mm 0,0 UV-I 0 W/m -1,4 C -0,6 C 1,6 km/h (1 Bft) 100,00 %
03.11.2015 01:47 -0,7 C 93 % 1026,7 hPa 0,0 l/m 0,0 km/h (0 Bft) S-SW 212 0 min 0,000 mm 0,0 UV-I 0 W/m -1,7 C -0,7 C 0,0 km/h (0 Bft) 100,00 %
03.11.2015 01:48 -0,8 C 93 % 1026,7 hPa 0,0 l/m 0,0 km/h (0 Bft) S-SW 212 0 min 0,000 mm 0,0 UV-I 0 W/m -1,8 C -0,8 C 0,0 km/h (0 Bft) 95,65 %
03.11.2015 01:49 -0,8 C 94 % 1026,7 hPa 0,0 l/m 0,0 km/h (0 Bft) S-SW 212 0 min 0,000 mm 0,0 UV-I 0 W/m -1,6 C -0,8 C 0,0 km/h (0 Bft) 100,00 %
03.11.2015 01:50 -0,9 C 93 % 1026,7 hPa 0,0 l/m 0,0 km/h (0 Bft) S-SW 212 0 min 0,000 mm 0,0 UV-I 0 W/m -1,9 C -0,9 C 0,0 km/h (0 Bft) 100,00 %
03.11.2015 01:51 -0,9 C 93 % 1026,6 hPa 0,0 l/m 0,3 km/h (0 Bft) S-SW 212 0 min 0,000 mm 0,0 UV-I 0 W/m -1,9 C -0,9 C 1,6 km/h (1 Bft) 100,00 %
03.11.2015 01:52 -0,9 C 94 % 1026,6 hPa 0,0 l/m 0,0 km/h (0 Bft) S-SW 212 0 min 0,000 mm 0,0 UV-I 0 W/m -1,7 C -0,9 C 0,0 km/h (0 Bft) 92,86 %
03.11.2015 01:53 -0,9 C 94 % 1026,6 hPa 0,0 l/m 0,0 km/h (0 Bft) S-SW 212 0 min 0,000 mm 0,0 UV-I 0 W/m -1,7 C -0,9 C 0,0 km/h (0 Bft) 100,00 %
03.11.2015 01:54 -1,0 C 94 % 1026,6 hPa 0,0 l/m 0,0 km/h (0 Bft) S-SW 212 0 min 0,000 mm 0,0 UV-I 0 W/m -1,8 C -1,0 C 0,0 km/h (0 Bft) 100,00 %
03.11.2015 01:55 -1,0 C 94 % 1026,6 hPa 0,0 l/m 0,0 km/h (0 Bft) S-SW 212 0 min 0,000 mm 0,0 UV-I 0 W/m -1,8 C -1,0 C 0,0 km/h (0 Bft) 100,00 %
03.11.2015 01:56 -1,1 C 94 % 1026,6 hPa 0,0 l/m 0,0 km/h (0 Bft) S-SW 212 0 min 0,000 mm 0,0 UV-I 0 W/m -1,9 C -1,1 C 0,0 km/h (0 Bft) 100,00 %
03.11.2015 01:57 -1,1 C 94 % 1026,6 hPa 0,0 l/m 0,0 km/h (0 Bft) S-SW 212 0 min 0,000 mm 0,0 UV-I 0 W/m -1,9 C -1,1 C 0,0 km/h (0 Bft) 100,00 %
03.11.2015 01:58 -1,1 C 94 % 1026,6 hPa 0,0 l/m 0,0 km/h (0 Bft) S-SW 212 0 min 0,000 mm 0,0 UV-I 0 W/m -1,9 C -1,1 C 0,0 km/h (0 Bft) 100,00 %
03.11.2015 01:59 -1,1 C 94 % 1026,5 hPa 0,0 l/m 0,0 km/h (0 Bft) S-SW 212 0 min 0,000 mm 0,0 UV-I 0 W/m -1,9 C -1,1 C 0,0 km/h (0 Bft) 100,00 %
03.11.2015 02:00 -1,1 C 94 % 1026,5 hPa 0,0 l/m 0,0 km/h (0 Bft) S-SW 212 0 min 0,000 mm 0,0 UV-I 0 W/m -1,9 C -1,1 C 0,0 km/h (0 Bft) 100,00 %
03.11.2015 02:02 -1,1 C 94 % 1026,5 hPa 0,0 l/m 0,8 km/h (0 Bft) S-SW 211 0 min 0,000 mm 0,0 UV-I 0 W/m -1,9 C -1,1 C 1,6 km/h (1 Bft) 100,00 %
03.11.2015 02:03 -1,1 C 94 % 1026,4 hPa 0,0 l/m 1,4 km/h (1 Bft) S-SW 205 0 min 0,000 mm 0,0 UV-I 0 W/m -1,9 C -1,1 C 3,2 km/h (1 Bft) 95,65 %
03.11.2015 02:04 -1,1 C 94 % 1026,4 hPa 0,0 l/m 0,8 km/h (0 Bft) S-SW 205 0 min 0,000 mm 0,0 UV-I 0 W/m -1,9 C -1,1 C 1,6 km/h (1 Bft) 100,00 %
03.11.2015 02:05 -1,1 C 95 % 1026,4 hPa 0,0 l/m 0,2 km/h (0 Bft) S-SW 205 0 min 0,000 mm 0,0 UV-I 0 W/m -1,8 C -1,1 C 1,6 km/h (1 Bft) 100,00 %
03.11.2015 02:06 -1,0 C 95 % 1026,4 hPa 0,0 l/m 0,0 km/h (0 Bft) S-SW 205 0 min 0,000 mm 0,0 UV-I 0 W/m -1,7 C -1,0 C 0,0 km/h (0 Bft) 100,00 %
03.11.2015 02:07 -0,9 C 95 % 1026,4 hPa 0,0 l/m 0,0 km/h (0 Bft) S-SW 205 0 min 0,000 mm 0,0 UV-I 0 W/m -1,6 C -0,9 C 0,0 km/h (0 Bft) 100,00 %
03.11.2015 02:08 -0,9 C 95 % 1026,4 hPa 0,0 l/m 1,0 km/h (0 Bft) S-SW 205 0 min 0,000 mm 0,0 UV-I 0 W/m -1,6 C -0,9 C 3,2 km/h (1 Bft) 100,00 %
03.11.2015 02:09 -1,0 C 95 % 1026,5 hPa 0,0 l/m 2,0 km/h (1 Bft) S-SW 205 0 min 0,000 mm 0,0 UV-I 0 W/m -1,7 C -1,0 C 3,2 km/h (1 Bft) 100,00 %
03.11.2015 02:10 -1,1 C 94 % 1026,5 hPa 0,0 l/m 0,6 km/h (0 Bft) S-SW 205 0 min 0,000 mm 0,0 UV-I 0 W/m -1,9 C -1,1 C 1,6 km/h (1 Bft) 100,00 %
03.11.2015 02:11 -1,1 C 94 % 1026,5 hPa 0,0 l/m 0,0 km/h (0 Bft) S-SW 205 0 min 0,000 mm 0,0 UV-I 0 W/m -1,9 C -1,1 C 0,0 km/h (0 Bft) 100,00 %
03.11.2015 02:12 -1,1 C 94 % 1026,5 hPa 0,0 l/m 0,0 km/h (0 Bft) S-SW 205 0 min 0,000 mm 0,0 UV-I 0 W/m -1,9 C -1,1 C 0,0 km/h (0 Bft) 100,00 %
03.11.2015 02:13 -1,1 C 94 % 1026,4 hPa 0,0 l/m 0,0 km/h (0 Bft) S-SW 205 0 min 0,000 mm 0,0 UV-I 0 W/m -1,9 C -1,1 C 0,0 km/h (0 Bft) 95,65 %
03.11.2015 02:14 -1,2 C 94 % 1026,5 hPa 0,0 l/m 0,0 km/h (0 Bft) S-SW 205 0 min 0,000 mm 0,0 UV-I 0 W/m -2,0 C -1,2 C 0,0 km/h (0 Bft) 100,00 %
03.11.2015 02:15 -1,2 C 94 % 1026,4 hPa 0,0 l/m 0,0 km/h (0 Bft) S-SW 205 0 min 0,000 mm 0,0 UV-I 0 W/m -2,0 C -1,2 C 0,0 km/h (0 Bft) 100,00 %
03.11.2015 02:16 -1,2 C 94 % 1026,5 hPa 0,0 l/m 0,5 km/h (0 Bft) S-SW 205 0 min 0,000 mm 0,0 UV-I 0 W/m -2,0 C -1,2 C 1,6 km/h (1 Bft) 100,00 %
03.11.2015 02:17 -1,2 C 94 % 1026,5 hPa 0,0 l/m 0,7 km/h (0 Bft) S-SW 205 0 min 0,000 mm 0,0 UV-I 0 W/m -2,0 C -1,2 C 1,6 km/h (1 Bft) 100,00 %
03.11.2015 02:18 -1,2 C 94 % 1026,5 hPa 0,0 l/m 0,0 km/h (0 Bft) S-SW 205 0 min 0,000 mm 0,0 UV-I 0 W/m -2,0 C -1,2 C 0,0 km/h (0 Bft) 100,00 %
03.11.2015 02:19 -1,2 C 94 % 1026,5 hPa 0,0 l/m 0,0 km/h (0 Bft) S-SW 205 0 min 0,000 mm 0,0 UV-I 0 W/m -2,0 C -1,2 C 0,0 km/h (0 Bft) 100,00 %
03.11.2015 02:20 -1,2 C 94 % 1026,5 hPa 0,0 l/m 0,0 km/h (0 Bft) S-SW 205 0 min 0,000 mm 0,0 UV-I 0 W/m -2,0 C -1,2 C 0,0 km/h (0 Bft) 100,00 %
03.11.2015 02:21 -1,2 C 94 % 1026,4 hPa 0,0 l/m 0,2 km/h (0 Bft) S-SW 205 0 min 0,000 mm 0,0 UV-I 0 W/m -2,0 C -1,2 C 1,6 km/h (1 Bft) 100,00 %
03.11.2015 02:22 -1,3 C 94 % 1026,5 hPa 0,0 l/m 0,5 km/h (0 Bft) S-SW 205 0 min 0,000 mm 0,0 UV-I 0 W/m -2,1 C -1,3 C 1,6 km/h (1 Bft) 100,00 %
03.11.2015 02:23 -1,3 C 94 % 1026,5 hPa 0,0 l/m 0,0 km/h (0 Bft) S-SW 205 0 min 0,000 mm 0,0 UV-I 0 W/m -2,1 C -1,3 C 0,0 km/h (0 Bft) 100,00 %
03.11.2015 02:24 -1,4 C 94 % 1026,5 hPa 0,0 l/m 0,0 km/h (0 Bft) S-SW 205 0 min 0,000 mm 0,0 UV-I 0 W/m -2,2 C -1,4 C 0,0 km/h (0 Bft) 100,00 %
03.11.2015 02:25 -1,4 C 94 % 1026,4 hPa 0,0 l/m 0,0 km/h (0 Bft) S-SW 205 0 min 0,000 mm 0,0 UV-I 0 W/m -2,2 C -1,4 C 0,0 km/h (0 Bft) 100,00 %
03.11.2015 02:26 -1,4 C 94 % 1026,4 hPa 0,0 l/m 0,0 km/h (0 Bft) S-SW 205 0 min 0,000 mm 0,0 UV-I 0 W/m -2,2 C -1,4 C 0,0 km/h (0 Bft) 100,00 %
03.11.2015 02:27 -1,4 C 94 % 1026,4 hPa 0,0 l/m 0,0 km/h (0 Bft) S-SW 205 0 min 0,000 mm 0,0 UV-I 0 W/m -2,2 C -1,4 C 0,0 km/h (0 Bft) 100,00 %
03.11.2015 02:28 -1,4 C 94 % 1026,4 hPa 0,0 l/m 0,3 km/h (0 Bft) S-SW 205 0 min 0,000 mm 0,0 UV-I 0 W/m -2,2 C -1,4 C 1,6 km/h (1 Bft) 100,00 %
03.11.2015 02:29 -1,4 C 95 % 1026,4 hPa 0,0 l/m 0,1 km/h (0 Bft) S-SW 205 0 min 0,000 mm 0,0 UV-I 0 W/m -2,1 C -1,4 C 1,6 km/h (1 Bft) 100,00 %
03.11.2015 02:30 -1,3 C 95 % 1026,4 hPa 0,0 l/m 0,4 km/h (0 Bft) S-SW 205 0 min 0,000 mm 0,0 UV-I 0 W/m -2,0 C -1,3 C 1,6 km/h (1 Bft) 100,00 %
03.11.2015 02:31 -1,3 C 95 % 1026,5 hPa 0,0 l/m 0,6 km/h (0 Bft) S-SW 205 0 min 0,000 mm 0,0 UV-I 0 W/m -2,0 C -1,3 C 1,6 km/h (1 Bft) 95,83 %
03.11.2015 02:32 -1,3 C 95 % 1026,4 hPa 0,0 l/m 0,0 km/h (0 Bft) S-SW 205 0 min 0,000 mm 0,0 UV-I 0 W/m -2,0 C -1,3 C 0,0 km/h (0 Bft) 92,86 %
03.11.2015 02:33 -1,2 C 95 % 1026,5 hPa 0,0 l/m 0,0 km/h (0 Bft) S-SW 205 0 min 0,000 mm 0,0 UV-I 0 W/m -1,9 C -1,2 C 0,0 km/h (0 Bft) 100,00 %
03.11.2015 02:34 -1,2 C 95 % 1026,4 hPa 0,0 l/m 0,0 km/h (0 Bft) S-SW 205 0 min 0,000 mm 0,0 UV-I 0 W/m -1,9 C -1,2 C 0,0 km/h (0 Bft) 100,00 %
03.11.2015 02:35 -1,2 C 95 % 1026,4 hPa 0,0 l/m 0,0 km/h (0 Bft) S-SW 205 0 min 0,000 mm 0,0 UV-I 0 W/m -1,9 C -1,2 C 0,0 km/h (0 Bft) 100,00 %
03.11.2015 02:36 -1,2 C 94 % 1026,5 hPa 0,0 l/m 0,0 km/h (0 Bft) S-SW 205 0 min 0,000 mm 0,0 UV-I 0 W/m -2,0 C -1,2 C 0,0 km/h (0 Bft) 96,15 %
03.11.2015 02:37 -1,2 C 94 % 1026,4 hPa 0,0 l/m 0,0 km/h (0 Bft) S-SW 205 0 min 0,000 mm 0,0 UV-I 0 W/m -2,0 C -1,2 C 0,0 km/h (0 Bft) 100,00 %
03.11.2015 02:38 -1,2 C 94 % 1026,4 hPa 0,0 l/m 0,0 km/h (0 Bft) S-SW 205 0 min 0,000 mm 0,0 UV-I 0 W/m -2,0 C -1,2 C 0,0 km/h (0 Bft) 95,65 %
03.11.2015 02:39 -1,2 C 94 % 1026,5 hPa 0,0 l/m 0,1 km/h (0 Bft) S-SW 205 0 min 0,000 mm 0,0 UV-I 0 W/m -2,0 C -1,2 C 1,6 km/h (1 Bft) 100,00 %
03.11.2015 02:40 -1,2 C 94 % 1026,4 hPa 0,0 l/m 0,0 km/h (0 Bft) S-SW 205 0 min 0,000 mm 0,0 UV-I 0 W/m -2,0 C -1,2 C 0,0 km/h (0 Bft) 100,00 %
03.11.2015 02:41 -1,3 C 94 % 1026,4 hPa 0,0 l/m 0,0 km/h (0 Bft) S-SW 205 0 min 0,000 mm 0,0 UV-I 0 W/m -2,1 C -1,3 C 0,0 km/h (0 Bft) 100,00 %
03.11.2015 02:42 -1,3 C 94 % 1026,4 hPa 0,0 l/m 0,0 km/h (0 Bft) S-SW 205 0 min 0,000 mm 0,0 UV-I 0 W/m -2,1 C -1,3 C 0,0 km/h (0 Bft) 100,00 %
03.11.2015 02:43 -1,3 C 94 % 1026,4 hPa 0,0 l/m 0,0 km/h (0 Bft) S-SW 205 0 min 0,000 mm 0,0 UV-I 0 W/m -2,1 C -1,3 C 0,0 km/h (0 Bft) 100,00 %
03.11.2015 02:44 -1,2 C 94 % 1026,3 hPa 0,0 l/m 0,0 km/h (0 Bft) S-SW 205 0 min 0,000 mm 0,0 UV-I 0 W/m -2,0 C -1,2 C 0,0 km/h (0 Bft) 100,00 %
03.11.2015 02:45 -1,2 C 95 % 1026,3 hPa 0,0 l/m 0,0 km/h (0 Bft) S-SW 205 0 min 0,000 mm 0,0 UV-I 0 W/m -1,9 C -1,2 C 0,0 km/h (0 Bft) 100,00 %
03.11.2015 02:46 -1,2 C 95 % 1026,3 hPa 0,0 l/m 0,0 km/h (0 Bft) S-SW 205 0 min 0,000 mm 0,0 UV-I 0 W/m -1,9 C -1,2 C 0,0 km/h (0 Bft) 100,00 %
03.11.2015 02:47 -1,2 C 95 % 1026,3 hPa 0,0 l/m 0,0 km/h (0 Bft) S-SW 205 0 min 0,000 mm 0,0 UV-I 0 W/m -1,9 C -1,2 C 0,0 km/h (0 Bft) 100,00 %
03.11.2015 02:48 -1,2 C 94 % 1026,4 hPa 0,0 l/m 0,0 km/h (0 Bft) S-SW 205 0 min 0,000 mm 0,0 UV-I 0 W/m -2,0 C -1,2 C 0,0 km/h (0 Bft) 100,00 %
03.11.2015 02:49 -1,2 C 94 % 1026,3 hPa 0,0 l/m 0,0 km/h (0 Bft) S-SW 205 0 min 0,000 mm 0,0 UV-I 0 W/m -2,0 C -1,2 C 0,0 km/h (0 Bft) 96,15 %
03.11.2015 02:50 -1,2 C 94 % 1026,4 hPa 0,0 l/m 0,1 km/h (0 Bft) S-SW 205 0 min 0,000 mm 0,0 UV-I 0 W/m -2,0 C -1,2 C 1,6 km/h (1 Bft) 100,00 %
03.11.2015 02:51 -1,2 C 94 % 1026,3 hPa 0,0 l/m 0,0 km/h (0 Bft) S-SW 205 0 min 0,000 mm 0,0 UV-I 0 W/m -2,0 C -1,2 C 0,0 km/h (0 Bft) 100,00 %
03.11.2015 02:52 -1,3 C 94 % 1026,3 hPa 0,0 l/m 0,0 km/h (0 Bft) S-SW 205 0 min 0,000 mm 0,0 UV-I 0 W/m -2,1 C -1,3 C 0,0 km/h (0 Bft) 100,00 %
03.11.2015 02:53 -1,3 C 95 % 1026,3 hPa 0,0 l/m 0,0 km/h (0 Bft) S-SW 205 0 min 0,000 mm 0,0 UV-I 0 W/m -2,0 C -1,3 C 0,0 km/h (0 Bft) 95,65 %
03.11.2015 02:54 -1,3 C 94 % 1026,3 hPa 0,0 l/m 0,0 km/h (0 Bft) S-SW 205 0 min 0,000 mm 0,0 UV-I 0 W/m -2,1 C -1,3 C 0,0 km/h (0 Bft) 100,00 %
03.11.2015 02:55 -1,3 C 94 % 1026,3 hPa 0,0 l/m 0,0 km/h (0 Bft) S-SW 205 0 min 0,000 mm 0,0 UV-I 0 W/m -2,1 C -1,3 C 0,0 km/h (0 Bft) 100,00 %
03.11.2015 02:56 -1,3 C 95 % 1026,2 hPa 0,0 l/m 0,0 km/h (0 Bft) S-SW 205 0 min 0,000 mm 0,0 UV-I 0 W/m -2,0 C -1,3 C 0,0 km/h (0 Bft) 95,83 %
03.11.2015 02:57 -1,3 C 95 % 1026,1 hPa 0,0 l/m 0,0 km/h (0 Bft) S-SW 205 0 min 0,000 mm 0,0 UV-I 0 W/m -2,0 C -1,3 C 0,0 km/h (0 Bft) 95,65 %
03.11.2015 02:58 -1,3 C 94 % 1026,2 hPa 0,0 l/m 0,0 km/h (0 Bft) S-SW 205 0 min 0,000 mm 0,0 UV-I 0 W/m -2,1 C -1,3 C 0,0 km/h (0 Bft) 100,00 %
03.11.2015 02:59 -1,3 C 94 % 1026,1 hPa 0,0 l/m 0,0 km/h (0 Bft) S-SW 205 0 min 0,000 mm 0,0 UV-I 0 W/m -2,1 C -1,3 C 0,0 km/h (0 Bft) 100,00 %
03.11.2015 03:00 -1,3 C 94 % 1026,2 hPa 0,0 l/m 0,0 km/h (0 Bft) S-SW 205 0 min 0,000 mm 0,0 UV-I 0 W/m -2,1 C -1,3 C 0,0 km/h (0 Bft) 95,65 %
03.11.2015 03:01 -1,2 C 94 % 1026,2 hPa 0,0 l/m 0,0 km/h (0 Bft) S-SW 205 0 min 0,000 mm 0,0 UV-I 0 W/m -2,0 C -1,2 C 0,0 km/h (0 Bft) 100,00 %
03.11.2015 03:02 -1,2 C 94 % 1026,1 hPa 0,0 l/m 0,0 km/h (0 Bft) S-SW 205 0 min 0,000 mm 0,0 UV-I 0 W/m -2,0 C -1,2 C 0,0 km/h (0 Bft) 100,00 %
03.11.2015 03:03 -1,2 C 94 % 1026,1 hPa 0,0 l/m 0,0 km/h (0 Bft) S-SW 205 0 min 0,000 mm 0,0 UV-I 0 W/m -2,0 C -1,2 C 0,0 km/h (0 Bft) 100,00 %
03.11.2015 03:04 -1,2 C 94 % 1026,1 hPa 0,0 l/m 0,0 km/h (0 Bft) S-SW 205 0 min 0,000 mm 0,0 UV-I 0 W/m -2,0 C -1,2 C 0,0 km/h (0 Bft) 100,00 %
03.11.2015 03:05 -1,1 C 95 % 1026,0 hPa 0,0 l/m 0,0 km/h (0 Bft) S-SW 205 0 min 0,000 mm 0,0 UV-I 0 W/m -1,8 C -1,1 C 0,0 km/h (0 Bft) 100,00 %
03.11.2015 03:06 -0,9 C 95 % 1026,1 hPa 0,0 l/m 0,1 km/h (0 Bft) S-SW 205 0 min 0,000 mm 0,0 UV-I 0 W/m -1,6 C -0,9 C 1,6 km/h (1 Bft) 92,31 %
03.11.2015 03:07 -0,9 C 95 % 1026,0 hPa 0,0 l/m 0,0 km/h (0 Bft) S-SW 205 0 min 0,000 mm 0,0 UV-I 0 W/m -1,6 C -0,9 C 0,0 km/h (0 Bft) 100,00 %
03.11.2015 03:08 -0,8 C 95 % 1026,0 hPa 0,0 l/m 0,0 km/h (0 Bft) S-SW 205 0 min 0,000 mm 0,0 UV-I 0 W/m -1,5 C -0,8 C 0,0 km/h (0 Bft) 100,00 %
03.11.2015 03:09 -0,7 C 96 % 1026,0 hPa 0,0 l/m 0,0 km/h (0 Bft) S-SW 205 0 min 0,000 mm 0,0 UV-I 0 W/m -1,3 C -0,7 C 0,0 km/h (0 Bft) 100,00 %
03.11.2015 03:10 -0,7 C 96 % 1026,0 hPa 0,0 l/m 0,0 km/h (0 Bft) S-SW 205 0 min 0,000 mm 0,0 UV-I 0 W/m -1,3 C -0,7 C 0,0 km/h (0 Bft) 96,15 %
03.11.2015 03:11 -0,6 C 96 % 1026,0 hPa 0,0 l/m 0,0 km/h (0 Bft) S-SW 205 0 min 0,000 mm 0,0 UV-I 0 W/m -1,2 C -0,6 C 0,0 km/h (0 Bft) 91,67 %
03.11.2015 03:12 -0,5 C 96 % 1026,0 hPa 0,0 l/m 0,0 km/h (0 Bft) S-SW 205 0 min 0,000 mm 0,0 UV-I 0 W/m -1,1 C -0,5 C 0,0 km/h (0 Bft) 100,00 %
03.11.2015 03:13 -0,4 C 96 % 1026,0 hPa 0,0 l/m 0,0 km/h (0 Bft) S-SW 205 0 min 0,000 mm 0,0 UV-I 0 W/m -1,0 C -0,4 C 0,0 km/h (0 Bft) 100,00 %
03.11.2015 03:14 -0,4 C 96 % 1025,9 hPa 0,0 l/m 0,0 km/h (0 Bft) S-SW 205 0 min 0,000 mm 0,0 UV-I 0 W/m -1,0 C -0,4 C 0,0 km/h (0 Bft) 100,00 %
03.11.2015 03:15 -0,4 C 95 % 1025,9 hPa 0,0 l/m 0,0 km/h (0 Bft) S-SW 205 0 min 0,000 mm 0,0 UV-I 0 W/m -1,1 C -0,4 C 0,0 km/h (0 Bft) 100,00 %
03.11.2015 03:16 -0,5 C 95 % 1025,9 hPa 0,0 l/m 0,0 km/h (0 Bft) S-SW 205 0 min 0,000 mm 0,0 UV-I 0 W/m -1,2 C -0,5 C 0,0 km/h (0 Bft) 95,65 %
03.11.2015 03:17 -0,5 C 95 % 1025,9 hPa 0,0 l/m 0,0 km/h (0 Bft) S-SW 205 0 min 0,000 mm 0,0 UV-I 0 W/m -1,2 C -0,5 C 0,0 km/h (0 Bft) 100,00 %
03.11.2015 03:18 -0,5 C 95 % 1025,9 hPa 0,0 l/m 0,0 km/h (0 Bft) S-SW 205 0 min 0,000 mm 0,0 UV-I 0 W/m -1,2 C -0,5 C 0,0 km/h (0 Bft) 100,00 %
03.11.2015 03:19 -0,6 C 95 % 1025,9 hPa 0,0 l/m 0,0 km/h (0 Bft) S-SW 205 0 min 0,000 mm 0,0 UV-I 0 W/m -1,3 C -0,6 C 0,0 km/h (0 Bft) 100,00 %
03.11.2015 03:20 -0,6 C 94 % 1025,9 hPa 0,0 l/m 0,0 km/h (0 Bft) S-SW 205 0 min 0,000 mm 0,0 UV-I 0 W/m -1,4 C -0,6 C 0,0 km/h (0 Bft) 100,00 %
03.11.2015 03:21 -0,7 C 94 % 1025,9 hPa 0,0 l/m 0,0 km/h (0 Bft) S-SW 205 0 min 0,000 mm 0,0 UV-I 0 W/m -1,5 C -0,7 C 0,0 km/h (0 Bft) 100,00 %
03.11.2015 03:22 -0,8 C 94 % 1026,0 hPa 0,0 l/m 0,0 km/h (0 Bft) S-SW 205 0 min 0,000 mm 0,0 UV-I 0 W/m -1,6 C -0,8 C 0,0 km/h (0 Bft) 100,00 %
03.11.2015 03:23 -0,9 C 93 % 1026,0 hPa 0,0 l/m 1,3 km/h (1 Bft) S-SW 205 0 min 0,000 mm 0,0 UV-I 0 W/m -1,9 C -0,9 C 1,6 km/h (1 Bft) 96,15 %
03.11.2015 03:24 -1,0 C 93 % 1026,0 hPa 0,0 l/m 1,8 km/h (1 Bft) S-SW 205 0 min 0,000 mm 0,0 UV-I 0 W/m -2,0 C -1,0 C 3,2 km/h (1 Bft) 100,00 %
03.11.2015 03:25 -1,1 C 93 % 1026,0 hPa 0,0 l/m 1,3 km/h (1 Bft) S-SW 205 0 min 0,000 mm 0,0 UV-I 0 W/m -2,1 C -1,1 C 1,6 km/h (1 Bft) 100,00 %
03.11.2015 03:26 -1,2 C 92 % 1025,9 hPa 0,0 l/m 1,4 km/h (1 Bft) S-SW 205 0 min 0,000 mm 0,0 UV-I 0 W/m -2,3 C -1,2 C 3,2 km/h (1 Bft) 100,00 %
03.11.2015 03:27 -1,3 C 93 % 1025,9 hPa 0,0 l/m 1,0 km/h (0 Bft) S-SW 205 0 min 0,000 mm 0,0 UV-I 0 W/m -2,3 C -1,3 C 3,2 km/h (1 Bft) 92,86 %
03.11.2015 03:28 -1,4 C 93 % 1025,9 hPa 0,0 l/m 0,0 km/h (0 Bft) S-SW 205 0 min 0,000 mm 0,0 UV-I 0 W/m -2,4 C -1,4 C 0,0 km/h (0 Bft) 100,00 %
03.11.2015 03:29 -1,4 C 94 % 1025,9 hPa 0,0 l/m 1,1 km/h (1 Bft) S-SW 205 0 min 0,000 mm 0,0 UV-I 0 W/m -2,2 C -1,4 C 3,2 km/h (1 Bft) 100,00 %
03.11.2015 03:30 -1,5 C 94 % 1025,9 hPa 0,0 l/m 2,1 km/h (1 Bft) S-SO 164 0 min 0,000 mm 0,0 UV-I 0 W/m -2,3 C -1,5 C 3,2 km/h (1 Bft) 95,83 %
03.11.2015 03:31 -1,6 C 94 % 1025,8 hPa 0,0 l/m 1,4 km/h (1 Bft) S-SO 164 0 min 0,000 mm 0,0 UV-I 0 W/m -2,4 C -1,6 C 3,2 km/h (1 Bft) 100,00 %
03.11.2015 03:32 -1,6 C 94 % 1025,8 hPa 0,0 l/m 0,2 km/h (0 Bft) S-SO 164 0 min 0,000 mm 0,0 UV-I 0 W/m -2,4 C -1,6 C 1,6 km/h (1 Bft) 100,00 %
03.11.2015 03:33 -1,7 C 94 % 1025,9 hPa 0,0 l/m 0,0 km/h (0 Bft) S-SO 164 0 min 0,000 mm 0,0 UV-I 0 W/m -2,5 C -1,7 C 0,0 km/h (0 Bft) 100,00 %
03.11.2015 03:34 -1,7 C 94 % 1025,9 hPa 0,0 l/m 0,0 km/h (0 Bft) S-SO 164 0 min 0,000 mm 0,0 UV-I 0 W/m -2,5 C -1,7 C 0,0 km/h (0 Bft) 100,00 %
03.11.2015 03:35 -1,7 C 94 % 1025,9 hPa 0,0 l/m 0,0 km/h (0 Bft) S-SO 164 0 min 0,000 mm 0,0 UV-I 0 W/m -2,5 C -1,7 C 0,0 km/h (0 Bft) 100,00 %
03.11.2015 03:36 -1,7 C 94 % 1025,9 hPa 0,0 l/m 0,0 km/h (0 Bft) S-SO 164 0 min 0,000 mm 0,0 UV-I 0 W/m -2,5 C -1,7 C 0,0 km/h (0 Bft) 100,00 %
03.11.2015 03:37 -1,7 C 94 % 1025,9 hPa 0,0 l/m 0,0 km/h (0 Bft) S-SO 164 0 min 0,000 mm 0,0 UV-I 0 W/m -2,5 C -1,7 C 0,0 km/h (0 Bft) 100,00 %
03.11.2015 03:38 -1,7 C 95 % 1025,9 hPa 0,0 l/m 0,0 km/h (0 Bft) S-SO 164 0 min 0,000 mm 0,0 UV-I 0 W/m -2,4 C -1,7 C 0,0 km/h (0 Bft) 100,00 %
03.11.2015 03:39 -1,6 C 95 % 1025,9 hPa 0,0 l/m 0,0 km/h (0 Bft) S-SO 164 0 min 0,000 mm 0,0 UV-I 0 W/m -2,3 C -1,6 C 0,0 km/h (0 Bft) 100,00 %
03.11.2015 03:40 -1,6 C 95 % 1025,9 hPa 0,0 l/m 0,0 km/h (0 Bft) S-SO 164 0 min 0,000 mm 0,0 UV-I 0 W/m -2,3 C -1,6 C 0,0 km/h (0 Bft) 100,00 %
03.11.2015 03:41 -1,6 C 95 % 1025,9 hPa 0,0 l/m 0,8 km/h (0 Bft) S-SO 164 0 min 0,000 mm 0,0 UV-I 0 W/m -2,3 C -1,6 C 1,6 km/h (1 Bft) 100,00 %
03.11.2015 03:42 -1,7 C 94 % 1026,0 hPa 0,0 l/m 0,1 km/h (0 Bft) S-SO 164 0 min 0,000 mm 0,0 UV-I 0 W/m -2,5 C -1,7 C 1,6 km/h (1 Bft) 96,55 %
03.11.2015 03:43 -1,7 C 94 % 1025,9 hPa 0,0 l/m 0,0 km/h (0 Bft) S-SO 164 0 min 0,000 mm 0,0 UV-I 0 W/m -2,5 C -1,7 C 0,0 km/h (0 Bft) 100,00 %
03.11.2015 03:44 -1,7 C 94 % 1026,0 hPa 0,0 l/m 0,0 km/h (0 Bft) S-SO 164 0 min 0,000 mm 0,0 UV-I 0 W/m -2,5 C -1,7 C 0,0 km/h (0 Bft) 100,00 %
03.11.2015 03:45 -1,8 C 94 % 1026,0 hPa 0,0 l/m 0,0 km/h (0 Bft) S-SO 164 0 min 0,000 mm 0,0 UV-I 0 W/m -2,6 C -1,8 C 0,0 km/h (0 Bft) 91,67 %
03.11.2015 03:46 -1,8 C 94 % 1026,0 hPa 0,0 l/m 0,0 km/h (0 Bft) S-SO 164 0 min 0,000 mm 0,0 UV-I 0 W/m -2,6 C -1,8 C 0,0 km/h (0 Bft) 100,00 %
03.11.2015 03:47 -1,8 C 94 % 1026,0 hPa 0,0 l/m 0,0 km/h (0 Bft) S-SO 164 0 min 0,000 mm 0,0 UV-I 0 W/m -2,6 C -1,8 C 0,0 km/h (0 Bft) 100,00 %
03.11.2015 03:48 -1,8 C 94 % 1026,0 hPa 0,0 l/m 0,0 km/h (0 Bft) S-SO 164 0 min 0,000 mm 0,0 UV-I 0 W/m -2,6 C -1,8 C 0,0 km/h (0 Bft) 100,00 %
03.11.2015 03:49 -1,8 C 95 % 1025,9 hPa 0,0 l/m 0,0 km/h (0 Bft) S-SO 164 0 min 0,000 mm 0,0 UV-I 0 W/m -2,5 C -1,8 C 0,0 km/h (0 Bft) 100,00 %
03.11.2015 03:50 -1,8 C 95 % 1025,9 hPa 0,0 l/m 0,0 km/h (0 Bft) S-SO 164 0 min 0,000 mm 0,0 UV-I 0 W/m -2,5 C -1,8 C 0,0 km/h (0 Bft) 100,00 %
03.11.2015 03:51 -1,7 C 95 % 1025,9 hPa 0,0 l/m 0,0 km/h (0 Bft) S-SO 164 0 min 0,000 mm 0,0 UV-I 0 W/m -2,4 C -1,7 C 0,0 km/h (0 Bft) 100,00 %
03.11.2015 03:52 -1,7 C 95 % 1025,9 hPa 0,0 l/m 0,0 km/h (0 Bft) S-SO 164 0 min 0,000 mm 0,0 UV-I 0 W/m -2,4 C -1,7 C 0,0 km/h (0 Bft) 91,30 %
03.11.2015 03:53 -1,7 C 95 % 1025,9 hPa 0,0 l/m 0,0 km/h (0 Bft) S-SO 164 0 min 0,000 mm 0,0 UV-I 0 W/m -2,4 C -1,7 C 0,0 km/h (0 Bft) 100,00 %
03.11.2015 03:54 -1,7 C 95 % 1025,8 hPa 0,0 l/m 0,0 km/h (0 Bft) S-SO 164 0 min 0,000 mm 0,0 UV-I 0 W/m -2,4 C -1,7 C 0,0 km/h (0 Bft) 100,00 %
03.11.2015 03:55 -1,6 C 96 % 1025,8 hPa 0,0 l/m 0,0 km/h (0 Bft) S-SO 164 0 min 0,000 mm 0,0 UV-I 0 W/m -2,2 C -1,6 C 0,0 km/h (0 Bft) 100,00 %
03.11.2015 03:56 -1,5 C 96 % 1025,8 hPa 0,0 l/m 0,7 km/h (0 Bft) S-SO 164 0 min 0,000 mm 0,0 UV-I 0 W/m -2,1 C -1,5 C 1,6 km/h (1 Bft) 100,00 %
03.11.2015 03:57 -1,4 C 96 % 1025,8 hPa 0,0 l/m 2,0 km/h (1 Bft) O-SO 103 0 min 0,000 mm 0,0 UV-I 0 W/m -2,0 C -1,4 C 3,2 km/h (1 Bft) 100,00 %
03.11.2015 03:58 -1,3 C 96 % 1025,8 hPa 0,0 l/m 2,7 km/h (1 Bft) O 87 0 min 0,000 mm 0,0 UV-I 0 W/m -1,9 C -1,3 C 3,2 km/h (1 Bft) 95,65 %
03.11.2015 03:59 -1,2 C 96 % 1025,8 hPa 0,0 l/m 2,9 km/h (1 Bft) O 84 0 min 0,000 mm 0,0 UV-I 0 W/m -1,8 C -1,2 C 3,2 km/h (1 Bft) 100,00 %
03.11.2015 04:00 -1,1 C 96 % 1025,8 hPa 0,0 l/m 1,5 km/h (1 Bft) O 84 0 min 0,000 mm 0,0 UV-I 0 W/m -1,7 C -1,1 C 3,2 km/h (1 Bft) 100,00 %
03.11.2015 04:03 -1,0 C 96 % 1025,7 hPa 0,0 l/m 1,5 km/h (1 Bft) O 83 0 min 0,000 mm 0,0 UV-I 0 W/m -1,6 C -1,0 C 1,6 km/h (1 Bft) 100,00 %
03.11.2015 04:04 -1,0 C 96 % 1025,7 hPa 0,0 l/m 1,2 km/h (1 Bft) O 81 0 min 0,000 mm 0,0 UV-I 0 W/m -1,6 C -1,0 C 3,2 km/h (1 Bft) 100,00 %
03.11.2015 04:05 -0,9 C 96 % 1025,7 hPa 0,0 l/m 1,3 km/h (1 Bft) O 80 0 min 0,000 mm 0,0 UV-I 0 W/m -1,5 C -0,9 C 3,2 km/h (1 Bft) 100,00 %
03.11.2015 04:06 -0,9 C 96 % 1025,7 hPa 0,0 l/m 0,8 km/h (0 Bft) O 81 0 min 0,000 mm 0,0 UV-I 0 W/m -1,5 C -0,9 C 3,2 km/h (1 Bft) 100,00 %
03.11.2015 04:07 -0,9 C 96 % 1025,6 hPa 0,0 l/m 0,1 km/h (0 Bft) O 81 0 min 0,000 mm 0,0 UV-I 0 W/m -1,5 C -0,9 C 1,6 km/h (1 Bft) 100,00 %
03.11.2015 04:08 -0,9 C 96 % 1025,7 hPa 0,0 l/m 0,2 km/h (0 Bft) O 81 0 min 0,000 mm 0,0 UV-I 0 W/m -1,5 C -0,9 C 1,6 km/h (1 Bft) 100,00 %
03.11.2015 04:09 -0,9 C 96 % 1025,6 hPa 0,0 l/m 0,1 km/h (0 Bft) O 81 0 min 0,000 mm 0,0 UV-I 0 W/m -1,5 C -0,9 C 1,6 km/h (1 Bft) 100,00 %
03.11.2015 04:10 -0,9 C 96 % 1025,6 hPa 0,0 l/m 0,1 km/h (0 Bft) O 81 0 min 0,000 mm 0,0 UV-I 0 W/m -1,5 C -0,9 C 1,6 km/h (1 Bft) 95,83 %
03.11.2015 04:11 -1,0 C 96 % 1025,6 hPa 0,0 l/m 0,1 km/h (0 Bft) O 81 0 min 0,000 mm 0,0 UV-I 0 W/m -1,6 C -1,0 C 1,6 km/h (1 Bft) 100,00 %
03.11.2015 04:12 -1,0 C 96 % 1025,6 hPa 0,0 l/m 0,0 km/h (0 Bft) O 81 0 min 0,000 mm 0,0 UV-I 0 W/m -1,6 C -1,0 C 0,0 km/h (0 Bft) 100,00 %
03.11.2015 04:13 -1,1 C 95 % 1025,6 hPa 0,0 l/m 0,0 km/h (0 Bft) O 81 0 min 0,000 mm 0,0 UV-I 0 W/m -1,8 C -1,1 C 0,0 km/h (0 Bft) 95,65 %
03.11.2015 04:14 -1,1 C 95 % 1025,6 hPa 0,0 l/m 0,0 km/h (0 Bft) O 81 0 min 0,000 mm 0,0 UV-I 0 W/m -1,8 C -1,1 C 0,0 km/h (0 Bft) 100,00 %
03.11.2015 04:15 -1,1 C 95 % 1025,6 hPa 0,0 l/m 0,0 km/h (0 Bft) O 81 0 min 0,000 mm 0,0 UV-I 0 W/m -1,8 C -1,1 C 0,0 km/h (0 Bft) 100,00 %
03.11.2015 04:16 -1,1 C 95 % 1025,6 hPa 0,0 l/m 0,2 km/h (0 Bft) S 177 0 min 0,000 mm 0,0 UV-I 0 W/m -1,8 C -1,1 C 3,2 km/h (1 Bft) 100,00 %
03.11.2015 04:17 -1,2 C 95 % 1025,6 hPa 0,0 l/m 2,7 km/h (1 Bft) S 187 0 min 0,000 mm 0,0 UV-I 0 W/m -1,9 C -1,2 C 3,2 km/h (1 Bft) 100,00 %
03.11.2015 04:18 -1,3 C 94 % 1025,7 hPa 0,0 l/m 1,6 km/h (1 Bft) S 187 0 min 0,000 mm 0,0 UV-I 0 W/m -2,1 C -1,3 C 3,2 km/h (1 Bft) 100,00 %
03.11.2015 04:19 -1,4 C 93 % 1025,6 hPa 0,0 l/m 1,2 km/h (1 Bft) S 187 0 min 0,000 mm 0,0 UV-I 0 W/m -2,4 C -1,4 C 1,6 km/h (1 Bft) 100,00 %
03.11.2015 04:20 -1,6 C 93 % 1025,7 hPa 0,0 l/m 0,0 km/h (0 Bft) S 187 0 min 0,000 mm 0,0 UV-I 0 W/m -2,6 C -1,6 C 0,0 km/h (0 Bft) 95,65 %
03.11.2015 04:21 -1,7 C 93 % 1025,7 hPa 0,0 l/m 0,0 km/h (0 Bft) S 187 0 min 0,000 mm 0,0 UV-I 0 W/m -2,7 C -1,7 C 0,0 km/h (0 Bft) 100,00 %
03.11.2015 04:22 -1,8 C 93 % 1025,6 hPa 0,0 l/m 0,0 km/h (0 Bft) S 187 0 min 0,000 mm 0,0 UV-I 0 W/m -2,8 C -1,8 C 0,0 km/h (0 Bft) 100,00 %
03.11.2015 04:23 -1,8 C 93 % 1025,6 hPa 0,0 l/m 0,0 km/h (0 Bft) S 187 0 min 0,000 mm 0,0 UV-I 0 W/m -2,8 C -1,8 C 0,0 km/h (0 Bft) 100,00 %
03.11.2015 04:24 -1,8 C 94 % 1025,6 hPa 0,0 l/m 0,0 km/h (0 Bft) S 187 0 min 0,000 mm 0,0 UV-I 0 W/m -2,6 C -1,8 C 0,0 km/h (0 Bft) 100,00 %
03.11.2015 04:25 -1,9 C 94 % 1025,6 hPa 0,0 l/m 0,0 km/h (0 Bft) S 187 0 min 0,000 mm 0,0 UV-I 0 W/m -2,7 C -1,9 C 0,0 km/h (0 Bft) 95,83 %
03.11.2015 04:26 -1,9 C 94 % 1025,6 hPa 0,0 l/m 0,0 km/h (0 Bft) S 187 0 min 0,000 mm 0,0 UV-I 0 W/m -2,7 C -1,9 C 0,0 km/h (0 Bft) 95,65 %
03.11.2015 04:27 -1,9 C 94 % 1025,6 hPa 0,0 l/m 0,4 km/h (0 Bft) S 187 0 min 0,000 mm 0,0 UV-I 0 W/m -2,7 C -1,9 C 1,6 km/h (1 Bft) 100,00 %
03.11.2015 04:28 -1,9 C 94 % 1025,6 hPa 0,0 l/m 0,8 km/h (0 Bft) S-SO 153 0 min 0,000 mm 0,0 UV-I 0 W/m -2,7 C -1,9 C 1,6 km/h (1 Bft) 91,30 %
03.11.2015 04:29 -1,8 C 94 % 1025,6 hPa 0,0 l/m 1,6 km/h (1 Bft) SO 134 0 min 0,000 mm 0,0 UV-I 0 W/m -2,6 C -1,8 C 1,6 km/h (1 Bft) 95,83 %
03.11.2015 04:30 -1,7 C 95 % 1025,6 hPa 0,0 l/m 0,9 km/h (0 Bft) O-SO 117 0 min 0,000 mm 0,0 UV-I 0 W/m -2,4 C -1,7 C 1,6 km/h (1 Bft) 100,00 %
03.11.2015 04:31 -1,5 C 96 % 1025,6 hPa 0,0 l/m 0,1 km/h (0 Bft) O-SO 117 0 min 0,000 mm 0,0 UV-I 0 W/m -2,1 C -1,5 C 1,6 km/h (1 Bft) 100,00 %
03.11.2015 04:32 -1,4 C 96 % 1025,6 hPa 0,0 l/m 0,3 km/h (0 Bft) O-SO 117 0 min 0,000 mm 0,0 UV-I 0 W/m -2,0 C -1,4 C 1,6 km/h (1 Bft) 100,00 %
03.11.2015 04:33 -1,3 C 96 % 1025,5 hPa 0,0 l/m 0,6 km/h (0 Bft) O-SO 116 0 min 0,000 mm 0,0 UV-I 0 W/m -1,9 C -1,3 C 1,6 km/h (1 Bft) 100,00 %
03.11.2015 04:34 -1,2 C 96 % 1025,6 hPa 0,0 l/m 0,8 km/h (0 Bft) O-SO 112 0 min 0,000 mm 0,0 UV-I 0 W/m -1,8 C -1,2 C 1,6 km/h (1 Bft) 100,00 %
03.11.2015 04:35 -1,1 C 96 % 1025,5 hPa 0,0 l/m 0,3 km/h (0 Bft) O-SO 112 0 min 0,000 mm 0,0 UV-I 0 W/m -1,7 C -1,1 C 1,6 km/h (1 Bft) 100,00 %
03.11.2015 04:36 -1,1 C 96 % 1025,5 hPa 0,0 l/m 0,7 km/h (0 Bft) O-SO 112 0 min 0,000 mm 0,0 UV-I 0 W/m -1,7 C -1,1 C 1,6 km/h (1 Bft) 100,00 %
03.11.2015 04:37 -1,0 C 96 % 1025,5 hPa 0,0 l/m 0,1 km/h (0 Bft) O-SO 112 0 min 0,000 mm 0,0 UV-I 0 W/m -1,6 C -1,0 C 1,6 km/h (1 Bft) 100,00 %
03.11.2015 04:38 -1,0 C 96 % 1025,6 hPa 0,0 l/m 0,0 km/h (0 Bft) O-SO 112 0 min 0,000 mm 0,0 UV-I 0 W/m -1,6 C -1,0 C 0,0 km/h (0 Bft) 95,65 %
03.11.2015 04:39 -1,1 C 96 % 1025,5 hPa 0,0 l/m 0,5 km/h (0 Bft) O-NO 74 0 min 0,000 mm 0,0 UV-I 0 W/m -1,7 C -1,1 C 1,6 km/h (1 Bft) 100,00 %
03.11.2015 04:40 -1,1 C 96 % 1025,5 hPa 0,0 l/m 0,5 km/h (0 Bft) O-NO 74 0 min 0,000 mm 0,0 UV-I 0 W/m -1,7 C -1,1 C 1,6 km/h (1 Bft) 95,65 %
03.11.2015 04:41 -1,1 C 96 % 1025,5 hPa 0,0 l/m 0,1 km/h (0 Bft) O-NO 74 0 min 0,000 mm 0,0 UV-I 0 W/m -1,7 C -1,1 C 1,6 km/h (1 Bft) 100,00 %
03.11.2015 04:42 -1,1 C 95 % 1025,5 hPa 0,0 l/m 0,2 km/h (0 Bft) O-NO 74 0 min 0,000 mm 0,0 UV-I 0 W/m -1,8 C -1,1 C 1,6 km/h (1 Bft) 95,65 %
03.11.2015 04:43 -1,2 C 95 % 1025,4 hPa 0,0 l/m 0,2 km/h (0 Bft) O-NO 74 0 min 0,000 mm 0,0 UV-I 0 W/m -1,9 C -1,2 C 1,6 km/h (1 Bft) 100,00 %
03.11.2015 04:44 -1,2 C 95 % 1025,4 hPa 0,0 l/m 0,2 km/h (0 Bft) O-NO 74 0 min 0,000 mm 0,0 UV-I 0 W/m -1,9 C -1,2 C 1,6 km/h (1 Bft) 100,00 %
03.11.2015 04:45 -1,2 C 95 % 1025,4 hPa 0,0 l/m 0,0 km/h (0 Bft) O-NO 74 0 min 0,000 mm 0,0 UV-I 0 W/m -1,9 C -1,2 C 0,0 km/h (0 Bft) 100,00 %
03.11.2015 04:46 -1,2 C 95 % 1025,4 hPa 0,0 l/m 0,0 km/h (0 Bft) O-NO 74 0 min 0,000 mm 0,0 UV-I 0 W/m -1,9 C -1,2 C 0,0 km/h (0 Bft) 100,00 %
03.11.2015 04:47 -1,2 C 95 % 1025,4 hPa 0,0 l/m 0,0 km/h (0 Bft) O-NO 74 0 min 0,000 mm 0,0 UV-I 0 W/m -1,9 C -1,2 C 0,0 km/h (0 Bft) 100,00 %
03.11.2015 04:48 -1,3 C 95 % 1025,4 hPa 0,0 l/m 0,0 km/h (0 Bft) O-NO 74 0 min 0,000 mm 0,0 UV-I 0 W/m -2,0 C -1,3 C 0,0 km/h (0 Bft) 100,00 %
03.11.2015 04:49 -1,3 C 94 % 1025,4 hPa 0,0 l/m 0,0 km/h (0 Bft) O-NO 74 0 min 0,000 mm 0,0 UV-I 0 W/m -2,1 C -1,3 C 0,0 km/h (0 Bft) 95,65 %
03.11.2015 04:50 -1,4 C 94 % 1025,4 hPa 0,0 l/m 0,0 km/h (0 Bft) O-NO 74 0 min 0,000 mm 0,0 UV-I 0 W/m -2,2 C -1,4 C 0,0 km/h (0 Bft) 100,00 %
03.11.2015 04:51 -1,4 C 95 % 1025,4 hPa 0,0 l/m 0,0 km/h (0 Bft) O-NO 74 0 min 0,000 mm 0,0 UV-I 0 W/m -2,1 C -1,4 C 0,0 km/h (0 Bft) 100,00 %
03.11.2015 04:52 -1,5 C 95 % 1025,4 hPa 0,0 l/m 0,0 km/h (0 Bft) O-NO 74 0 min 0,000 mm 0,0 UV-I 0 W/m -2,2 C -1,5 C 0,0 km/h (0 Bft) 100,00 %
03.11.2015 04:53 -1,5 C 95 % 1025,4 hPa 0,0 l/m 0,0 km/h (0 Bft) O-NO 74 0 min 0,000 mm 0,0 UV-I 0 W/m -2,2 C -1,5 C 0,0 km/h (0 Bft) 100,00 %
03.11.2015 04:54 -1,5 C 95 % 1025,4 hPa 0,0 l/m 0,0 km/h (0 Bft) O-NO 74 0 min 0,000 mm 0,0 UV-I 0 W/m -2,2 C -1,5 C 0,0 km/h (0 Bft) 100,00 %
03.11.2015 04:55 -1,4 C 95 % 1025,4 hPa 0,0 l/m 0,0 km/h (0 Bft) O-NO 74 0 min 0,000 mm 0,0 UV-I 0 W/m -2,1 C -1,4 C 0,0 km/h (0 Bft) 100,00 %
03.11.2015 04:56 -1,4 C 95 % 1025,3 hPa 0,0 l/m 0,0 km/h (0 Bft) O-NO 74 0 min 0,000 mm 0,0 UV-I 0 W/m -2,1 C -1,4 C 0,0 km/h (0 Bft) 100,00 %
03.11.2015 04:57 -1,4 C 95 % 1025,3 hPa 0,0 l/m 0,1 km/h (0 Bft) O-NO 74 0 min 0,000 mm 0,0 UV-I 0 W/m -2,1 C -1,4 C 1,6 km/h (1 Bft) 95,65 %
03.11.2015 04:58 -1,4 C 96 % 1025,2 hPa 0,0 l/m 0,1 km/h (0 Bft) O-NO 74 0 min 0,000 mm 0,0 UV-I 0 W/m -2,0 C -1,4 C 1,6 km/h (1 Bft) 100,00 %
03.11.2015 04:59 -1,3 C 96 % 1025,2 hPa 0,0 l/m 0,3 km/h (0 Bft) O-NO 74 0 min 0,000 mm 0,0 UV-I 0 W/m -1,9 C -1,3 C 1,6 km/h (1 Bft) 100,00 %
03.11.2015 05:00 -1,3 C 96 % 1025,2 hPa 0,0 l/m 0,1 km/h (0 Bft) O-NO 74 0 min 0,000 mm 0,0 UV-I 0 W/m -1,9 C -1,3 C 1,6 km/h (1 Bft) 100,00 %
03.11.2015 05:01 -1,3 C 96 % 1025,2 hPa 0,0 l/m 0,2 km/h (0 Bft) O-NO 74 0 min 0,000 mm 0,0 UV-I 0 W/m -1,9 C -1,3 C 1,6 km/h (1 Bft) 100,00 %
03.11.2015 05:02 -1,3 C 96 % 1025,2 hPa 0,0 l/m 0,7 km/h (0 Bft) O-NO 74 0 min 0,000 mm 0,0 UV-I 0 W/m -1,9 C -1,3 C 1,6 km/h (1 Bft) 100,00 %
03.11.2015 05:03 -1,3 C 96 % 1025,2 hPa 0,0 l/m 0,1 km/h (0 Bft) O-NO 74 0 min 0,000 mm 0,0 UV-I 0 W/m -1,9 C -1,3 C 1,6 km/h (1 Bft) 100,00 %
03.11.2015 05:04 -1,3 C 96 % 1025,2 hPa 0,0 l/m 0,4 km/h (0 Bft) O-NO 75 0 min 0,000 mm 0,0 UV-I 0 W/m -1,9 C -1,3 C 1,6 km/h (1 Bft) 100,00 %
03.11.2015 05:05 -1,2 C 96 % 1025,3 hPa 0,0 l/m 1,2 km/h (1 Bft) O-NO 76 0 min 0,000 mm 0,0 UV-I 0 W/m -1,8 C -1,2 C 3,2 km/h (1 Bft) 95,83 %
03.11.2015 05:06 -1,1 C 96 % 1025,3 hPa 0,0 l/m 0,0 km/h (0 Bft) O-NO 76 0 min 0,000 mm 0,0 UV-I 0 W/m -1,7 C -1,1 C 0,0 km/h (0 Bft) 91,30 %
03.11.2015 05:07 -1,1 C 96 % 1025,3 hPa 0,0 l/m 0,3 km/h (0 Bft) O-NO 76 0 min 0,000 mm 0,0 UV-I 0 W/m -1,7 C -1,1 C 1,6 km/h (1 Bft) 100,00 %
03.11.2015 05:08 -1,1 C 96 % 1025,4 hPa 0,0 l/m 0,9 km/h (0 Bft) O-NO 59 0 min 0,000 mm 0,0 UV-I 0 W/m -1,7 C -1,1 C 1,6 km/h (1 Bft) 100,00 %
03.11.2015 05:09 -1,2 C 96 % 1025,4 hPa 0,0 l/m 1,5 km/h (1 Bft) N-NO 20 0 min 0,000 mm 0,0 UV-I 0 W/m -1,8 C -1,2 C 1,6 km/h (1 Bft) 100,00 %
03.11.2015 05:10 -1,3 C 96 % 1025,4 hPa 0,0 l/m 1,0 km/h (0 Bft) N-NO 20 0 min 0,000 mm 0,0 UV-I 0 W/m -1,9 C -1,3 C 1,6 km/h (1 Bft) 100,00 %
03.11.2015 05:11 -1,4 C 95 % 1025,4 hPa 0,0 l/m 0,1 km/h (0 Bft) N-NO 20 0 min 0,000 mm 0,0 UV-I 0 W/m -2,1 C -1,4 C 1,6 km/h (1 Bft) 100,00 %
03.11.2015 05:12 -1,6 C 94 % 1025,3 hPa 0,0 l/m 0,0 km/h (0 Bft) N-NO 20 0 min 0,000 mm 0,0 UV-I 0 W/m -2,4 C -1,6 C 0,0 km/h (0 Bft) 100,00 %
03.11.2015 05:13 -1,7 C 94 % 1025,3 hPa 0,0 l/m 0,0 km/h (0 Bft) N-NO 20 0 min 0,000 mm 0,0 UV-I 0 W/m -2,5 C -1,7 C 0,0 km/h (0 Bft) 100,00 %
03.11.2015 05:14 -1,8 C 94 % 1025,3 hPa 0,0 l/m 0,0 km/h (0 Bft) N-NO 20 0 min 0,000 mm 0,0 UV-I 0 W/m -2,6 C -1,8 C 0,0 km/h (0 Bft) 100,00 %
03.11.2015 05:15 -1,8 C 94 % 1025,4 hPa 0,0 l/m 0,0 km/h (0 Bft) N-NO 20 0 min 0,000 mm 0,0 UV-I 0 W/m -2,6 C -1,8 C 0,0 km/h (0 Bft) 100,00 %
03.11.2015 05:16 -1,9 C 95 % 1025,3 hPa 0,0 l/m 0,0 km/h (0 Bft) N-NO 20 0 min 0,000 mm 0,0 UV-I 0 W/m -2,6 C -1,9 C 0,0 km/h (0 Bft) 100,00 %
03.11.2015 05:17 -1,9 C 95 % 1025,3 hPa 0,0 l/m 0,0 km/h (0 Bft) N-NO 20 0 min 0,000 mm 0,0 UV-I 0 W/m -2,6 C -1,9 C 0,0 km/h (0 Bft) 100,00 %
03.11.2015 05:18 -1,9 C 95 % 1025,4 hPa 0,0 l/m 0,0 km/h (0 Bft) N-NO 20 0 min 0,000 mm 0,0 UV-I 0 W/m -2,6 C -1,9 C 0,0 km/h (0 Bft) 95,65 %
03.11.2015 05:19 -1,9 C 95 % 1025,3 hPa 0,0 l/m 0,0 km/h (0 Bft) N-NO 20 0 min 0,000 mm 0,0 UV-I 0 W/m -2,6 C -1,9 C 0,0 km/h (0 Bft) 100,00 %
03.11.2015 05:20 -1,9 C 95 % 1025,3 hPa 0,0 l/m 0,0 km/h (0 Bft) N-NO 20 0 min 0,000 mm 0,0 UV-I 0 W/m -2,6 C -1,9 C 0,0 km/h (0 Bft) 100,00 %
03.11.2015 05:21 -1,8 C 95 % 1025,4 hPa 0,0 l/m 0,0 km/h (0 Bft) N-NO 20 0 min 0,000 mm 0,0 UV-I 0 W/m -2,5 C -1,8 C 0,0 km/h (0 Bft) 100,00 %
03.11.2015 05:22 -1,8 C 95 % 1025,3 hPa 0,0 l/m 0,0 km/h (0 Bft) N-NO 20 0 min 0,000 mm 0,0 UV-I 0 W/m -2,5 C -1,8 C 0,0 km/h (0 Bft) 100,00 %
03.11.2015 05:23 -1,8 C 96 % 1025,4 hPa 0,0 l/m 0,0 km/h (0 Bft) N-NO 20 0 min 0,000 mm 0,0 UV-I 0 W/m -2,4 C -1,8 C 0,0 km/h (0 Bft) 100,00 %
03.11.2015 05:24 -1,8 C 96 % 1025,4 hPa 0,0 l/m 0,0 km/h (0 Bft) N-NO 20 0 min 0,000 mm 0,0 UV-I 0 W/m -2,4 C -1,8 C 0,0 km/h (0 Bft) 100,00 %
03.11.2015 05:25 -1,8 C 95 % 1025,4 hPa 0,0 l/m 0,0 km/h (0 Bft) N-NO 20 0 min 0,000 mm 0,0 UV-I 0 W/m -2,5 C -1,8 C 0,0 km/h (0 Bft) 95,65 %
03.11.2015 05:26 -1,8 C 96 % 1025,4 hPa 0,0 l/m 0,0 km/h (0 Bft) N-NO 20 0 min 0,000 mm 0,0 UV-I 0 W/m -2,4 C -1,8 C 0,0 km/h (0 Bft) 100,00 %
03.11.2015 05:27 -1,9 C 95 % 1025,4 hPa 0,0 l/m 0,0 km/h (0 Bft) N-NO 20 0 min 0,000 mm 0,0 UV-I 0 W/m -2,6 C -1,9 C 0,0 km/h (0 Bft) 100,00 %
03.11.2015 05:28 -1,9 C 95 % 1025,4 hPa 0,0 l/m 0,0 km/h (0 Bft) N-NO 20 0 min 0,000 mm 0,0 UV-I 0 W/m -2,6 C -1,9 C 0,0 km/h (0 Bft) 100,00 %
03.11.2015 05:29 -2,0 C 95 % 1025,4 hPa 0,0 l/m 0,0 km/h (0 Bft) N-NO 20 0 min 0,000 mm 0,0 UV-I 0 W/m -2,7 C -2,0 C 0,0 km/h (0 Bft) 100,00 %
03.11.2015 05:30 -2,1 C 94 % 1025,4 hPa 0,0 l/m 0,0 km/h (0 Bft) N-NO 20 0 min 0,000 mm 0,0 UV-I 0 W/m -2,9 C -2,1 C 0,0 km/h (0 Bft) 100,00 %
03.11.2015 05:31 -2,2 C 94 % 1025,4 hPa 0,0 l/m 1,4 km/h (1 Bft) O-NO 62 0 min 0,000 mm 0,0 UV-I 0 W/m -3,0 C -2,2 C 3,2 km/h (1 Bft) 100,00 %
03.11.2015 05:32 -2,2 C 94 % 1025,3 hPa 0,0 l/m 2,1 km/h (1 Bft) O-NO 62 0 min 0,000 mm 0,0 UV-I 0 W/m -3,0 C -2,2 C 3,2 km/h (1 Bft) 100,00 %
03.11.2015 05:33 -2,2 C 94 % 1025,3 hPa 0,0 l/m 1,2 km/h (1 Bft) O-NO 62 0 min 0,000 mm 0,0 UV-I 0 W/m -3,0 C -2,2 C 1,6 km/h (1 Bft) 100,00 %
03.11.2015 05:34 -2,3 C 94 % 1025,3 hPa 0,0 l/m 1,2 km/h (1 Bft) O-NO 62 0 min 0,000 mm 0,0 UV-I 0 W/m -3,1 C -2,3 C 1,6 km/h (1 Bft) 100,00 %
03.11.2015 05:35 -2,3 C 94 % 1025,2 hPa 0,0 l/m 1,9 km/h (1 Bft) O-NO 63 0 min 0,000 mm 0,0 UV-I 0 W/m -3,1 C -2,3 C 3,2 km/h (1 Bft) 100,00 %
03.11.2015 05:36 -2,2 C 95 % 1025,3 hPa 0,0 l/m 1,0 km/h (0 Bft) O-NO 63 0 min 0,000 mm 0,0 UV-I 0 W/m -2,9 C -2,2 C 1,6 km/h (1 Bft) 95,83 %
03.11.2015 05:37 -2,2 C 95 % 1025,3 hPa 0,0 l/m 0,0 km/h (0 Bft) O-NO 63 0 min 0,000 mm 0,0 UV-I 0 W/m -2,9 C -2,2 C 0,0 km/h (0 Bft) 100,00 %
03.11.2015 05:38 -2,2 C 95 % 1025,3 hPa 0,0 l/m 0,7 km/h (0 Bft) O-NO 63 0 min 0,000 mm 0,0 UV-I 0 W/m -2,9 C -2,2 C 3,2 km/h (1 Bft) 100,00 %
03.11.2015 05:39 -2,1 C 95 % 1025,1 hPa 0,0 l/m 1,0 km/h (0 Bft) O-NO 63 0 min 0,000 mm 0,0 UV-I 0 W/m -2,8 C -2,1 C 1,6 km/h (1 Bft) 100,00 %
03.11.2015 05:40 -2,1 C 96 % 1025,1 hPa 0,0 l/m 0,6 km/h (0 Bft) O-NO 63 0 min 0,000 mm 0,0 UV-I 0 W/m -2,6 C -2,1 C 1,6 km/h (1 Bft) 91,67 %
03.11.2015 05:41 -2,0 C 96 % 1025,2 hPa 0,0 l/m 0,2 km/h (0 Bft) O-NO 63 0 min 0,000 mm 0,0 UV-I 0 W/m -2,6 C -2,0 C 1,6 km/h (1 Bft) 100,00 %
03.11.2015 05:42 -1,9 C 96 % 1025,2 hPa 0,0 l/m 0,0 km/h (0 Bft) O-NO 63 0 min 0,000 mm 0,0 UV-I 0 W/m -2,5 C -1,9 C 0,0 km/h (0 Bft) 96,15 %
03.11.2015 05:43 -1,9 C 96 % 1025,2 hPa 0,0 l/m 0,0 km/h (0 Bft) O-NO 63 0 min 0,000 mm 0,0 UV-I 0 W/m -2,5 C -1,9 C 0,0 km/h (0 Bft) 100,00 %
03.11.2015 05:44 -1,8 C 96 % 1025,2 hPa 0,0 l/m 0,0 km/h (0 Bft) O-NO 63 0 min 0,000 mm 0,0 UV-I 0 W/m -2,4 C -1,8 C 0,0 km/h (0 Bft) 100,00 %
03.11.2015 05:45 -1,9 C 96 % 1025,2 hPa 0,0 l/m 0,0 km/h (0 Bft) O-NO 63 0 min 0,000 mm 0,0 UV-I 0 W/m -2,5 C -1,9 C 0,0 km/h (0 Bft) 100,00 %
03.11.2015 05:46 -1,8 C 96 % 1025,2 hPa 0,0 l/m 0,0 km/h (0 Bft) O-NO 63 0 min 0,000 mm 0,0 UV-I 0 W/m -2,4 C -1,8 C 0,0 km/h (0 Bft) 100,00 %
03.11.2015 05:47 -1,8 C 96 % 1025,1 hPa 0,0 l/m 0,0 km/h (0 Bft) O-NO 63 0 min 0,000 mm 0,0 UV-I 0 W/m -2,4 C -1,8 C 0,0 km/h (0 Bft) 95,83 %
03.11.2015 05:48 -1,8 C 96 % 1025,2 hPa 0,0 l/m 0,0 km/h (0 Bft) O-NO 63 0 min 0,000 mm 0,0 UV-I 0 W/m -2,4 C -1,8 C 0,0 km/h (0 Bft) 100,00 %
03.11.2015 05:49 -1,8 C 96 % 1025,2 hPa 0,0 l/m 0,0 km/h (0 Bft) O-NO 63 0 min 0,000 mm 0,0 UV-I 0 W/m -2,4 C -1,8 C 0,0 km/h (0 Bft) 100,00 %
03.11.2015 05:50 -1,8 C 96 % 1025,1 hPa 0,0 l/m 0,0 km/h (0 Bft) O-NO 63 0 min 0,000 mm 0,0 UV-I 0 W/m -2,4 C -1,8 C 0,0 km/h (0 Bft) 95,65 %
03.11.2015 05:51 -1,8 C 96 % 1025,2 hPa 0,0 l/m 0,0 km/h (0 Bft) O-NO 63 0 min 0,000 mm 0,0 UV-I 0 W/m -2,4 C -1,8 C 0,0 km/h (0 Bft) 95,83 %
03.11.2015 05:52 -1,8 C 96 % 1025,2 hPa 0,0 l/m 0,0 km/h (0 Bft) O-NO 63 0 min 0,000 mm 0,0 UV-I 0 W/m -2,4 C -1,8 C 0,0 km/h (0 Bft) 100,00 %
03.11.2015 05:53 -1,7 C 96 % 1025,1 hPa 0,0 l/m 0,0 km/h (0 Bft) O-NO 63 0 min 0,000 mm 0,0 UV-I 0 W/m -2,3 C -1,7 C 0,0 km/h (0 Bft) 100,00 %
03.11.2015 05:54 -1,8 C 96 % 1025,1 hPa 0,0 l/m 0,0 km/h (0 Bft) O-NO 63 0 min 0,000 mm 0,0 UV-I 0 W/m -2,4 C -1,8 C 0,0 km/h (0 Bft) 95,65 %
03.11.2015 05:55 -1,8 C 96 % 1025,1 hPa 0,0 l/m 0,0 km/h (0 Bft) O-NO 63 0 min 0,000 mm 0,0 UV-I 0 W/m -2,4 C -1,8 C 0,0 km/h (0 Bft) 100,00 %
03.11.2015 05:56 -1,8 C 96 % 1025,1 hPa 0,0 l/m 0,0 km/h (0 Bft) O-NO 63 0 min 0,000 mm 0,0 UV-I 0 W/m -2,4 C -1,8 C 0,0 km/h (0 Bft) 100,00 %
03.11.2015 05:57 -1,8 C 96 % 1025,0 hPa 0,0 l/m 0,5 km/h (0 Bft) O-NO 63 0 min 0,000 mm 0,0 UV-I 0 W/m -2,4 C -1,8 C 1,6 km/h (1 Bft) 100,00 %
03.11.2015 05:58 -1,8 C 96 % 1025,0 hPa 0,0 l/m 0,0 km/h (0 Bft) O-NO 63 0 min 0,000 mm 0,0 UV-I 0 W/m -2,4 C -1,8 C 0,0 km/h (0 Bft) 100,00 %
03.11.2015 05:59 -1,7 C 96 % 1025,0 hPa 0,0 l/m 0,0 km/h (0 Bft) O-NO 63 0 min 0,000 mm 0,0 UV-I 0 W/m -2,3 C -1,7 C 0,0 km/h (0 Bft) 100,00 %
03.11.2015 06:00 -1,7 C 96 % 1025,0 hPa 0,0 l/m 0,0 km/h (0 Bft) O-NO 63 0 min 0,000 mm 0,0 UV-I 0 W/m -2,3 C -1,7 C 0,0 km/h (0 Bft) 91,30 %
03.11.2015 06:01 -1,6 C 96 % 1025,0 hPa 0,0 l/m 0,0 km/h (0 Bft) O-NO 63 0 min 0,000 mm 0,0 UV-I 0 W/m -2,2 C -1,6 C 0,0 km/h (0 Bft) 100,00 %
03.11.2015 06:02 -1,4 C 96 % 1025,0 hPa 0,0 l/m 0,6 km/h (0 Bft) O-NO 63 0 min 0,000 mm 0,0 UV-I 0 W/m -2,0 C -1,4 C 1,6 km/h (1 Bft) 100,00 %
03.11.2015 06:03 -1,4 C 96 % 1024,9 hPa 0,0 l/m 0,9 km/h (0 Bft) O-NO 63 0 min 0,000 mm 0,0 UV-I 0 W/m -2,0 C -1,4 C 3,2 km/h (1 Bft) 100,00 %
03.11.2015 06:04 -1,3 C 96 % 1024,9 hPa 0,0 l/m 1,6 km/h (1 Bft) O-NO 64 0 min 0,000 mm 0,0 UV-I 0 W/m -1,9 C -1,3 C 3,2 km/h (1 Bft) 95,65 %
03.11.2015 06:05 -1,2 C 97 % 1024,9 hPa 0,0 l/m 2,7 km/h (1 Bft) O-NO 73 0 min 0,000 mm 0,0 UV-I 0 W/m -1,6 C -1,2 C 4,8 km/h (1 Bft) 100,00 %
03.11.2015 06:06 -1,2 C 97 % 1024,9 hPa 0,0 l/m 2,3 km/h (1 Bft) O-NO 76 0 min 0,000 mm 0,0 UV-I 0 W/m -1,6 C -1,2 C 3,2 km/h (1 Bft) 93,33 %
03.11.2015 06:07 -1,1 C 96 % 1024,9 hPa 0,0 l/m 3,7 km/h (1 Bft) O-NO 74 0 min 0,000 mm 0,0 UV-I 0 W/m -1,7 C -1,1 C 6,4 km/h (2 Bft) 91,30 %
03.11.2015 06:08 -1,1 C 96 % 1024,9 hPa 0,0 l/m 2,7 km/h (1 Bft) O 82 0 min 0,000 mm 0,0 UV-I 0 W/m -1,7 C -1,1 C 4,8 km/h (1 Bft) 100,00 %
03.11.2015 06:09 -1,0 C 97 % 1025,0 hPa 0,0 l/m 1,9 km/h (1 Bft) O-NO 66 0 min 0,000 mm 0,0 UV-I 0 W/m -1,4 C -1,0 C 3,2 km/h (1 Bft) 95,65 %
03.11.2015 06:10 -0,9 C 97 % 1025,0 hPa 0,0 l/m 0,1 km/h (0 Bft) O-NO 66 0 min 0,000 mm 0,0 UV-I 0 W/m -1,3 C -0,9 C 1,6 km/h (1 Bft) 100,00 %
03.11.2015 06:11 -0,9 C 97 % 1025,0 hPa 0,0 l/m 0,0 km/h (0 Bft) O-NO 66 0 min 0,000 mm 0,0 UV-I 0 W/m -1,3 C -0,9 C 0,0 km/h (0 Bft) 96,15 %
03.11.2015 06:12 -0,9 C 97 % 1025,0 hPa 0,0 l/m 0,0 km/h (0 Bft) O-NO 66 0 min 0,000 mm 0,0 UV-I 0 W/m -1,3 C -0,9 C 0,0 km/h (0 Bft) 100,00 %
03.11.2015 06:13 -0,9 C 97 % 1025,0 hPa 0,0 l/m 0,0 km/h (0 Bft) O-NO 66 0 min 0,000 mm 0,0 UV-I 0 W/m -1,3 C -0,9 C 0,0 km/h (0 Bft) 95,65 %
03.11.2015 06:14 -0,9 C 97 % 1025,0 hPa 0,0 l/m 0,1 km/h (0 Bft) O-NO 66 0 min 0,000 mm 0,0 UV-I 0 W/m -1,3 C -0,9 C 1,6 km/h (1 Bft) 100,00 %
03.11.2015 06:15 -0,9 C 97 % 1025,0 hPa 0,0 l/m 0,9 km/h (0 Bft) O-NO 66 0 min 0,000 mm 0,0 UV-I 0 W/m -1,3 C -0,9 C 1,6 km/h (1 Bft) 100,00 %
03.11.2015 06:16 -0,9 C 97 % 1025,0 hPa 0,0 l/m 0,3 km/h (0 Bft) O-NO 66 0 min 0,000 mm 0,0 UV-I 0 W/m -1,3 C -0,9 C 1,6 km/h (1 Bft) 100,00 %
03.11.2015 06:17 -0,9 C 97 % 1025,0 hPa 0,0 l/m 0,0 km/h (0 Bft) O-NO 66 0 min 0,000 mm 0,0 UV-I 0 W/m -1,3 C -0,9 C 0,0 km/h (0 Bft) 100,00 %
03.11.2015 06:18 -1,0 C 97 % 1025,0 hPa 0,0 l/m 0,7 km/h (0 Bft) O-NO 66 0 min 0,000 mm 0,0 UV-I 0 W/m -1,4 C -1,0 C 1,6 km/h (1 Bft) 100,00 %
03.11.2015 06:19 -0,9 C 97 % 1025,0 hPa 0,0 l/m 1,1 km/h (1 Bft) O-NO 66 0 min 0,000 mm 0,0 UV-I 0 W/m -1,3 C -0,9 C 3,2 km/h (1 Bft) 100,00 %
03.11.2015 06:20 -0,9 C 97 % 1025,0 hPa 0,0 l/m 1,2 km/h (1 Bft) O-NO 69 0 min 0,000 mm 0,0 UV-I 0 W/m -1,3 C -0,9 C 1,6 km/h (1 Bft) 100,00 %
03.11.2015 06:21 -0,9 C 97 % 1025,0 hPa 0,0 l/m 1,0 km/h (0 Bft) O 84 0 min 0,000 mm 0,0 UV-I 0 W/m -1,3 C -0,9 C 3,2 km/h (1 Bft) 100,00 %
03.11.2015 06:22 -0,9 C 97 % 1025,0 hPa 0,0 l/m 0,0 km/h (0 Bft) O 84 0 min 0,000 mm 0,0 UV-I 0 W/m -1,3 C -0,9 C 0,0 km/h (0 Bft) 100,00 %
03.11.2015 06:23 -0,9 C 97 % 1025,0 hPa 0,0 l/m 0,3 km/h (0 Bft) O 84 0 min 0,000 mm 0,0 UV-I 0 W/m -1,3 C -0,9 C 1,6 km/h (1 Bft) 100,00 %
03.11.2015 06:24 -0,9 C 96 % 1025,0 hPa 0,0 l/m 1,1 km/h (1 Bft) O 82 0 min 0,000 mm 0,0 UV-I 0 W/m -1,5 C -0,9 C 3,2 km/h (1 Bft) 95,83 %
03.11.2015 06:25 -1,0 C 96 % 1025,0 hPa 0,0 l/m 1,3 km/h (1 Bft) O 84 0 min 0,000 mm 0,0 UV-I 0 W/m -1,6 C -1,0 C 3,2 km/h (1 Bft) 100,00 %
03.11.2015 06:26 -0,9 C 96 % 1025,0 hPa 0,0 l/m 0,2 km/h (0 Bft) O 84 0 min 0,000 mm 0,0 UV-I 0 W/m -1,5 C -0,9 C 1,6 km/h (1 Bft) 100,00 %
03.11.2015 06:27 -0,9 C 96 % 1025,0 hPa 0,0 l/m 0,0 km/h (0 Bft) O 84 0 min 0,000 mm 0,0 UV-I 0 W/m -1,5 C -0,9 C 0,0 km/h (0 Bft) 100,00 %
03.11.2015 06:28 -1,0 C 96 % 1025,0 hPa 0,0 l/m 0,0 km/h (0 Bft) O 84 0 min 0,000 mm 0,0 UV-I 0 W/m -1,6 C -1,0 C 0,0 km/h (0 Bft) 100,00 %
03.11.2015 06:29 -0,9 C 96 % 1025,0 hPa 0,0 l/m 0,0 km/h (0 Bft) O 84 0 min 0,000 mm 0,0 UV-I 0 W/m -1,5 C -0,9 C 0,0 km/h (0 Bft) 100,00 %
03.11.2015 06:30 -0,9 C 96 % 1025,0 hPa 0,0 l/m 0,0 km/h (0 Bft) O 84 0 min 0,000 mm 0,0 UV-I 0 W/m -1,5 C -0,9 C 0,0 km/h (0 Bft) 100,00 %
03.11.2015 06:31 -1,0 C 96 % 1025,0 hPa 0,0 l/m 0,0 km/h (0 Bft) O 84 0 min 0,000 mm 0,0 UV-I 0 W/m -1,6 C -1,0 C 0,0 km/h (0 Bft) 100,00 %
03.11.2015 06:32 -1,0 C 96 % 1025,0 hPa 0,0 l/m 0,0 km/h (0 Bft) O 84 0 min 0,000 mm 0,0 UV-I 0 W/m -1,6 C -1,0 C 0,0 km/h (0 Bft) 100,00 %
03.11.2015 06:33 -1,1 C 96 % 1025,0 hPa 0,0 l/m 0,9 km/h (0 Bft) O 84 0 min 0,000 mm 0,0 UV-I 0 W/m -1,7 C -1,1 C 1,6 km/h (1 Bft) 100,00 %
03.11.2015 06:34 -1,3 C 96 % 1025,0 hPa 0,0 l/m 0,3 km/h (0 Bft) O 84 0 min 0,000 mm 0,0 UV-I 0 W/m -1,9 C -1,3 C 1,6 km/h (1 Bft) 100,00 %
03.11.2015 06:35 -1,4 C 95 % 1025,0 hPa 0,0 l/m 0,0 km/h (0 Bft) O 84 0 min 0,000 mm 0,0 UV-I 0 W/m -2,1 C -1,4 C 0,0 km/h (0 Bft) 100,00 %
03.11.2015 06:36 -1,4 C 95 % 1025,1 hPa 0,0 l/m 0,7 km/h (0 Bft) O 84 0 min 0,000 mm 0,0 UV-I 0 W/m -2,1 C -1,4 C 1,6 km/h (1 Bft) 100,00 %
03.11.2015 06:37 -1,6 C 94 % 1025,1 hPa 0,0 l/m 0,1 km/h (0 Bft) O 84 0 min 0,000 mm 0,0 UV-I 0 W/m -2,4 C -1,6 C 1,6 km/h (1 Bft) 100,00 %
03.11.2015 06:38 -1,6 C 94 % 1025,1 hPa 0,0 l/m 0,0 km/h (0 Bft) O 84 0 min 0,000 mm 0,0 UV-I 0 W/m -2,4 C -1,6 C 0,0 km/h (0 Bft) 95,65 %
03.11.2015 06:39 -1,7 C 95 % 1025,1 hPa 0,0 l/m 0,0 km/h (0 Bft) O 84 0 min 0,000 mm 0,0 UV-I 0 W/m -2,4 C -1,7 C 0,0 km/h (0 Bft) 95,83 %
03.11.2015 06:40 -1,7 C 95 % 1025,1 hPa 0,0 l/m 0,0 km/h (0 Bft) O 84 0 min 0,000 mm 0,0 UV-I 0 W/m -2,4 C -1,7 C 0,0 km/h (0 Bft) 95,65 %
03.11.2015 06:41 -1,7 C 95 % 1025,0 hPa 0,0 l/m 0,0 km/h (0 Bft) O 84 0 min 0,000 mm 0,0 UV-I 0 W/m -2,4 C -1,7 C 0,0 km/h (0 Bft) 100,00 %
03.11.2015 06:42 -1,7 C 95 % 1025,0 hPa 0,0 l/m 0,0 km/h (0 Bft) O 84 0 min 0,000 mm 0,0 UV-I 0 W/m -2,4 C -1,7 C 0,0 km/h (0 Bft) 95,65 %
03.11.2015 06:43 -1,7 C 95 % 1025,1 hPa 0,0 l/m 0,0 km/h (0 Bft) O 84 0 min 0,000 mm 0,0 UV-I 0 W/m -2,4 C -1,7 C 0,0 km/h (0 Bft) 100,00 %
03.11.2015 06:44 -1,7 C 95 % 1025,0 hPa 0,0 l/m 0,0 km/h (0 Bft) O 84 0 min 0,000 mm 0,0 UV-I 0 W/m -2,4 C -1,7 C 0,0 km/h (0 Bft) 100,00 %
03.11.2015 06:45 -1,6 C 96 % 1025,1 hPa 0,0 l/m 0,0 km/h (0 Bft) O 84 0 min 0,000 mm 0,0 UV-I 0 W/m -2,2 C -1,6 C 0,0 km/h (0 Bft) 100,00 %
03.11.2015 06:46 -1,6 C 96 % 1025,1 hPa 0,0 l/m 0,0 km/h (0 Bft) O 84 0 min 0,000 mm 0,0 UV-I 0 W/m -2,2 C -1,6 C 0,0 km/h (0 Bft) 100,00 %
03.11.2015 06:47 -1,5 C 96 % 1025,1 hPa 0,0 l/m 0,0 km/h (0 Bft) O 84 0 min 0,000 mm 0,0 UV-I 0 W/m -2,1 C -1,5 C 0,0 km/h (0 Bft) 100,00 %
03.11.2015 06:48 -1,4 C 96 % 1025,1 hPa 0,0 l/m 0,0 km/h (0 Bft) O 84 0 min 0,000 mm 0,0 UV-I 0 W/m -2,0 C -1,4 C 0,0 km/h (0 Bft) 100,00 %
03.11.2015 06:49 -1,4 C 96 % 1025,1 hPa 0,0 l/m 0,0 km/h (0 Bft) O 84 0 min 0,000 mm 0,0 UV-I 0 W/m -2,0 C -1,4 C 0,0 km/h (0 Bft) 100,00 %
03.11.2015 06:50 -1,3 C 96 % 1025,1 hPa 0,0 l/m 0,1 km/h (0 Bft) O 84 0 min 0,000 mm 0,0 UV-I 0 W/m -1,9 C -1,3 C 1,6 km/h (1 Bft) 100,00 %
03.11.2015 06:51 -1,2 C 96 % 1025,0 hPa 0,0 l/m 2,1 km/h (1 Bft) O 88 0 min 0,000 mm 0,0 UV-I 0 W/m -1,8 C -1,2 C 3,2 km/h (1 Bft) 100,00 %
03.11.2015 06:52 -1,1 C 96 % 1025,0 hPa 0,0 l/m 1,1 km/h (1 Bft) O 86 0 min 0,000 mm 0,0 UV-I 0 W/m -1,7 C -1,1 C 3,2 km/h (1 Bft) 100,00 %
03.11.2015 06:53 -0,9 C 97 % 1025,0 hPa 0,0 l/m 1,8 km/h (1 Bft) O-NO 77 0 min 0,000 mm 0,0 UV-I 0 W/m -1,3 C -0,9 C 3,2 km/h (1 Bft) 95,65 %
03.11.2015 06:54 -0,8 C 97 % 1025,0 hPa 0,0 l/m 3,7 km/h (1 Bft) O 95 0 min 0,000 mm 0,0 UV-I 0 W/m -1,2 C -0,8 C 9,7 km/h (2 Bft) 100,00 %
03.11.2015 06:55 -0,7 C 97 % 1025,0 hPa 0,0 l/m 3,1 km/h (1 Bft) O 79 0 min 0,000 mm 0,0 UV-I 0 W/m -1,1 C -0,7 C 4,8 km/h (1 Bft) 95,65 %
03.11.2015 06:56 -0,6 C 97 % 1025,0 hPa 0,0 l/m 2,8 km/h (1 Bft) O 92 0 min 0,000 mm 0,0 UV-I 0 W/m -1,0 C -0,6 C 4,8 km/h (1 Bft) 100,00 %
03.11.2015 06:57 -0,5 C 97 % 1025,1 hPa 0,0 l/m 2,1 km/h (1 Bft) O-NO 62 0 min 0,000 mm 0,0 UV-I 0 W/m -0,9 C -0,5 C 4,8 km/h (1 Bft) 100,00 %
03.11.2015 06:58 -0,4 C 97 % 1025,0 hPa 0,0 l/m 4,5 km/h (1 Bft) O 84 0 min 0,000 mm 0,0 UV-I 0 W/m -0,8 C -0,4 C 6,4 km/h (2 Bft) 100,00 %
03.11.2015 06:59 -0,4 C 97 % 1025,1 hPa 0,0 l/m 4,4 km/h (1 Bft) SO 131 0 min 0,000 mm 0,0 UV-I 4 W/m -0,8 C -0,4 C 6,4 km/h (2 Bft) 100,00 %
03.11.2015 07:00 -0,3 C 97 % 1025,1 hPa 0,0 l/m 1,7 km/h (1 Bft) SO 129 0 min 0,000 mm 0,0 UV-I 5 W/m -0,7 C -0,3 C 4,8 km/h (1 Bft) 100,00 %
03.11.2015 07:02 -0,3 C 97 % 1025,1 hPa 0,0 l/m 2,2 km/h (1 Bft) O 94 0 min 0,000 mm 0,0 UV-I 5 W/m -0,7 C -0,3 C 4,8 km/h (1 Bft) 100,00 %
03.11.2015 07:03 -0,3 C 97 % 1025,1 hPa 0,0 l/m 2,4 km/h (1 Bft) O-NO 63 0 min 0,000 mm 0,0 UV-I 5 W/m -0,7 C -0,3 C 4,8 km/h (1 Bft) 95,83 %
03.11.2015 07:04 -0,2 C 97 % 1025,1 hPa 0,0 l/m 1,9 km/h (1 Bft) O-SO 105 0 min 0,000 mm 0,0 UV-I 5 W/m -0,6 C -0,2 C 4,8 km/h (1 Bft) 100,00 %
03.11.2015 07:05 -0,2 C 97 % 1025,0 hPa 0,0 l/m 2,8 km/h (1 Bft) O-NO 76 0 min 0,000 mm 0,0 UV-I 5 W/m -0,6 C -0,2 C 4,8 km/h (1 Bft) 100,00 %
03.11.2015 07:06 -0,2 C 97 % 1025,0 hPa 0,0 l/m 4,1 km/h (1 Bft) O 93 0 min 0,000 mm 0,0 UV-I 5 W/m -0,6 C -0,2 C 6,4 km/h (2 Bft) 100,00 %
03.11.2015 07:07 -0,2 C 97 % 1025,0 hPa 0,0 l/m 2,1 km/h (1 Bft) O-SO 117 0 min 0,000 mm 0,0 UV-I 7 W/m -0,6 C -0,2 C 3,2 km/h (1 Bft) 100,00 %
03.11.2015 07:08 -0,2 C 97 % 1025,1 hPa 0,0 l/m 3,0 km/h (1 Bft) O-SO 111 0 min 0,000 mm 0,0 UV-I 7 W/m -0,6 C -0,2 C 4,8 km/h (1 Bft) 91,30 %
03.11.2015 07:09 -0,2 C 97 % 1025,1 hPa 0,0 l/m 2,5 km/h (1 Bft) O-NO 71 0 min 0,000 mm 0,0 UV-I 7 W/m -0,6 C -0,2 C 4,8 km/h (1 Bft) 100,00 %
03.11.2015 07:10 -0,2 C 97 % 1025,1 hPa 0,0 l/m 5,0 km/h (1 Bft) O 80 0 min 0,000 mm 0,0 UV-I 7 W/m -0,6 C -0,2 C 8,0 km/h (2 Bft) 100,00 %
03.11.2015 07:11 -0,2 C 97 % 1025,2 hPa 0,0 l/m 4,8 km/h (1 Bft) O 99 0 min 0,000 mm 0,0 UV-I 7 W/m -0,6 C -0,2 C 6,4 km/h (2 Bft) 95,83 %
03.11.2015 07:12 -0,2 C 97 % 1025,2 hPa 0,0 l/m 4,8 km/h (1 Bft) O 99 0 min 0,000 mm 0,0 UV-I 9 W/m -0,6 C -0,2 C 6,4 km/h (2 Bft) 100,00 %
03.11.2015 07:13 -0,2 C 97 % 1025,2 hPa 0,0 l/m 3,3 km/h (1 Bft) O 92 0 min 0,000 mm 0,0 UV-I 9 W/m -0,6 C -0,2 C 4,8 km/h (1 Bft) 100,00 %
03.11.2015 07:14 -0,2 C 97 % 1025,2 hPa 0,0 l/m 4,5 km/h (1 Bft) O 86 0 min 0,000 mm 0,0 UV-I 9 W/m -0,6 C -0,2 C 6,4 km/h (2 Bft) 95,65 %
03.11.2015 07:15 -0,2 C 97 % 1025,2 hPa 0,0 l/m 3,6 km/h (1 Bft) O 79 0 min 0,000 mm 0,0 UV-I 10 W/m -0,6 C -0,2 C 6,4 km/h (2 Bft) 100,00 %
03.11.2015 07:16 -0,3 C 97 % 1025,2 hPa 0,0 l/m 3,6 km/h (1 Bft) O-NO 77 0 min 0,000 mm 0,0 UV-I 11 W/m -0,7 C -0,3 C 4,8 km/h (1 Bft) 100,00 %
03.11.2015 07:17 -0,3 C 97 % 1025,2 hPa 0,0 l/m 1,6 km/h (1 Bft) O-NO 70 0 min 0,000 mm 0,0 UV-I 11 W/m -0,7 C -0,3 C 4,8 km/h (1 Bft) 100,00 %
03.11.2015 07:18 -0,3 C 97 % 1025,3 hPa 0,0 l/m 4,5 km/h (1 Bft) O 81 0 min 0,000 mm 0,0 UV-I 11 W/m -0,7 C -0,3 C 6,4 km/h (2 Bft) 100,00 %
03.11.2015 07:19 -0,3 C 97 % 1025,2 hPa 0,0 l/m 4,5 km/h (1 Bft) O-NO 57 0 min 0,000 mm 0,0 UV-I 11 W/m -0,7 C -0,3 C 6,4 km/h (2 Bft) 100,00 %
03.11.2015 07:20 -0,3 C 97 % 1025,2 hPa 0,0 l/m 6,3 km/h (2 Bft) O 90 0 min 0,000 mm 0,0 UV-I 12 W/m -0,7 C -0,3 C 11,3 km/h (2 Bft) 100,00 %
03.11.2015 07:21 -0,3 C 97 % 1025,2 hPa 0,0 l/m 7,0 km/h (2 Bft) O-SO 104 0 min 0,000 mm 0,0 UV-I 12 W/m -0,7 C -0,9 C 11,3 km/h (2 Bft) 100,00 %
03.11.2015 07:22 -0,2 C 97 % 1025,2 hPa 0,0 l/m 7,8 km/h (2 Bft) O 100 0 min 0,000 mm 0,0 UV-I 12 W/m -0,6 C -1,7 C 12,9 km/h (3 Bft) 95,65 %
03.11.2015 07:23 -0,2 C 97 % 1025,2 hPa 0,0 l/m 7,0 km/h (2 Bft) O 92 0 min 0,000 mm 0,0 UV-I 12 W/m -0,6 C -0,8 C 9,7 km/h (2 Bft) 100,00 %
03.11.2015 07:24 -0,3 C 97 % 1025,2 hPa 0,0 l/m 7,5 km/h (2 Bft) O-NO 72 0 min 0,000 mm 0,0 UV-I 12 W/m -0,7 C -1,5 C 11,3 km/h (2 Bft) 100,00 %
03.11.2015 07:25 -0,2 C 97 % 1025,2 hPa 0,0 l/m 5,8 km/h (2 Bft) O-SO 103 0 min 0,000 mm 0,0 UV-I 12 W/m -0,6 C -0,2 C 8,0 km/h (2 Bft) 100,00 %
03.11.2015 07:26 -0,3 C 97 % 1025,2 hPa 0,0 l/m 8,0 km/h (2 Bft) O 80 0 min 0,000 mm 0,0 UV-I 13 W/m -0,7 C -2,0 C 11,3 km/h (2 Bft) 100,00 %
03.11.2015 07:27 -0,2 C 97 % 1025,2 hPa 0,0 l/m 7,9 km/h (2 Bft) O 88 0 min 0,000 mm 0,0 UV-I 14 W/m -0,6 C -1,8 C 11,3 km/h (2 Bft) 98,99 %
03.11.2015 07:30 -0,3 C 97 % 1025,2 hPa 0,0 l/m 5,8 km/h (2 Bft) O-SO 105 0 min 0,000 mm 0,0 UV-I 17 W/m -0,7 C -0,3 C 11,3 km/h (2 Bft) 100,00 %
03.11.2015 07:31 -0,3 C 97 % 1025,2 hPa 0,0 l/m 7,5 km/h (2 Bft) O-NO 71 0 min 0,000 mm 0,0 UV-I 18 W/m -0,7 C -1,5 C 11,3 km/h (2 Bft) 100,00 %
03.11.2015 07:32 -0,3 C 97 % 1025,2 hPa 0,0 l/m 7,2 km/h (2 Bft) O-NO 59 0 min 0,000 mm 0,0 UV-I 19 W/m -0,7 C -1,1 C 12,9 km/h (3 Bft) 95,83 %
03.11.2015 07:33 -0,3 C 97 % 1025,2 hPa 0,0 l/m 8,0 km/h (2 Bft) O 92 0 min 0,000 mm 0,0 UV-I 21 W/m -0,7 C -2,0 C 11,3 km/h (2 Bft) 100,00 %
03.11.2015 07:34 -0,3 C 97 % 1025,2 hPa 0,0 l/m 7,9 km/h (2 Bft) O 87 0 min 0,000 mm 0,0 UV-I 20 W/m -0,7 C -1,9 C 12,9 km/h (3 Bft) 100,00 %
03.11.2015 07:35 -0,3 C 97 % 1025,2 hPa 0,0 l/m 8,2 km/h (2 Bft) O 94 0 min 0,000 mm 0,0 UV-I 18 W/m -0,7 C -2,2 C 12,9 km/h (3 Bft) 96,15 %
03.11.2015 07:36 -0,3 C 97 % 1025,2 hPa 0,0 l/m 8,4 km/h (2 Bft) O-SO 111 0 min 0,000 mm 0,0 UV-I 18 W/m -0,7 C -2,4 C 14,5 km/h (3 Bft) 100,00 %
03.11.2015 07:37 -0,3 C 97 % 1025,3 hPa 0,0 l/m 6,9 km/h (2 Bft) O-SO 110 0 min 0,000 mm 0,0 UV-I 18 W/m -0,7 C -0,8 C 11,3 km/h (2 Bft) 100,00 %
03.11.2015 07:38 -0,3 C 97 % 1025,3 hPa 0,0 l/m 4,6 km/h (1 Bft) O 88 0 min 0,000 mm 0,0 UV-I 20 W/m -0,7 C -0,3 C 6,4 km/h (2 Bft) 96,30 %
03.11.2015 07:39 -0,3 C 97 % 1025,3 hPa 0,0 l/m 5,1 km/h (1 Bft) O-SO 105 0 min 0,000 mm 0,0 UV-I 20 W/m -0,7 C -0,3 C 6,4 km/h (2 Bft) 100,00 %
03.11.2015 07:40 -0,3 C 97 % 1025,2 hPa 0,0 l/m 4,0 km/h (1 Bft) NO 42 0 min 0,000 mm 0,0 UV-I 21 W/m -0,7 C -0,3 C 8,0 km/h (2 Bft) 100,00 %
03.11.2015 07:41 -0,3 C 97 % 1025,2 hPa 0,0 l/m 6,9 km/h (2 Bft) O-NO 78 0 min 0,000 mm 0,0 UV-I 21 W/m -0,7 C -0,8 C 8,0 km/h (2 Bft) 99,00 %
03.11.2015 07:42 -0,3 C 97 % 1025,2 hPa 0,0 l/m 5,5 km/h (1 Bft) O 80 0 min 0,000 mm 0,0 UV-I 21 W/m -0,7 C -0,3 C 9,7 km/h (2 Bft) 100,00 %
03.11.2015 07:43 -0,3 C 97 % 1025,2 hPa 0,0 l/m 6,6 km/h (2 Bft) O-SO 104 0 min 0,000 mm 0,0 UV-I 21 W/m -0,7 C -0,5 C 14,5 km/h (3 Bft) 100,00 %
03.11.2015 07:44 -0,3 C 97 % 1025,3 hPa 0,0 l/m 5,6 km/h (1 Bft) O 98 0 min 0,000 mm 0,0 UV-I 22 W/m -0,7 C -0,3 C 9,7 km/h (2 Bft) 100,00 %
03.11.2015 07:45 -0,3 C 97 % 1025,4 hPa 0,0 l/m 3,6 km/h (1 Bft) O 80 0 min 0,000 mm 0,0 UV-I 23 W/m -0,7 C -0,3 C 6,4 km/h (2 Bft) 100,00 %
03.11.2015 07:46 -0,2 C 97 % 1025,4 hPa 0,0 l/m 5,0 km/h (1 Bft) O-NO 66 0 min 0,000 mm 0,0 UV-I 25 W/m -0,6 C -0,2 C 8,0 km/h (2 Bft) 100,00 %
03.11.2015 07:47 -0,2 C 97 % 1025,4 hPa 0,0 l/m 6,4 km/h (2 Bft) O 88 0 min 0,000 mm 0,0 UV-I 25 W/m -0,6 C -0,2 C 11,3 km/h (2 Bft) 100,00 %
03.11.2015 07:48 -0,2 C 97 % 1025,4 hPa 0,0 l/m 4,7 km/h (1 Bft) O 83 0 min 0,000 mm 0,0 UV-I 26 W/m -0,6 C -0,2 C 8,0 km/h (2 Bft) 100,00 %
03.11.2015 07:49 -0,2 C 97 % 1025,4 hPa 0,0 l/m 6,7 km/h (2 Bft) O 80 0 min 0,000 mm 0,0 UV-I 27 W/m -0,6 C -0,5 C 12,9 km/h (3 Bft) 100,00 %
03.11.2015 07:50 -0,2 C 97 % 1025,4 hPa 0,0 l/m 5,1 km/h (1 Bft) O-NO 63 0 min 0,000 mm 0,0 UV-I 27 W/m -0,6 C -0,2 C 6,4 km/h (2 Bft) 100,00 %
03.11.2015 07:51 -0,2 C 97 % 1025,3 hPa 0,0 l/m 3,0 km/h (1 Bft) O-SO 104 0 min 0,000 mm 0,0 UV-I 26 W/m -0,6 C -0,2 C 4,8 km/h (1 Bft) 100,00 %
03.11.2015 07:52 -0,2 C 97 % 1025,4 hPa 0,0 l/m 2,5 km/h (1 Bft) O-SO 102 0 min 0,000 mm 0,0 UV-I 26 W/m -0,6 C -0,2 C 4,8 km/h (1 Bft) 100,00 %
03.11.2015 07:53 -0,2 C 97 % 1025,4 hPa 0,0 l/m 4,4 km/h (1 Bft) O-SO 119 0 min 0,000 mm 0,0 UV-I 26 W/m -0,6 C -0,2 C 8,0 km/h (2 Bft) 100,00 %
03.11.2015 07:54 -0,2 C 97 % 1025,4 hPa 0,0 l/m 4,7 km/h (1 Bft) O-SO 105 0 min 0,000 mm 0,0 UV-I 26 W/m -0,6 C -0,2 C 4,8 km/h (1 Bft) 100,00 %
03.11.2015 07:55 -0,2 C 97 % 1025,3 hPa 0,0 l/m 3,4 km/h (1 Bft) SO 135 0 min 0,000 mm 0,0 UV-I 27 W/m -0,6 C -0,2 C 4,8 km/h (1 Bft) 100,00 %
03.11.2015 07:56 -0,2 C 97 % 1025,4 hPa 0,0 l/m 3,3 km/h (1 Bft) O 80 0 min 0,000 mm 0,0 UV-I 28 W/m -0,6 C -0,2 C 4,8 km/h (1 Bft) 100,00 %
03.11.2015 07:57 -0,2 C 97 % 1025,4 hPa 0,0 l/m 5,6 km/h (1 Bft) O-SO 103 0 min 0,000 mm 0,0 UV-I 29 W/m -0,6 C -0,2 C 6,4 km/h (2 Bft) 100,00 %
03.11.2015 07:58 -0,1 C 97 % 1025,4 hPa 0,0 l/m 4,8 km/h (1 Bft) O 98 0 min 0,000 mm 0,0 UV-I 32 W/m -0,5 C -0,1 C 8,0 km/h (2 Bft) 92,86 %
03.11.2015 07:59 -0,1 C 97 % 1025,4 hPa 0,0 l/m 5,9 km/h (2 Bft) O-SO 110 0 min 0,000 mm 0,0 UV-I 32 W/m -0,5 C -0,1 C 11,3 km/h (2 Bft) 100,00 %
03.11.2015 08:00 -0,1 C 97 % 1025,4 hPa 0,0 l/m 5,6 km/h (1 Bft) O 96 0 min 0,000 mm 0,0 UV-I 31 W/m -0,5 C -0,1 C 11,3 km/h (2 Bft) 91,67 %
03.11.2015 08:01 -0,1 C 97 % 1025,4 hPa 0,0 l/m 6,3 km/h (2 Bft) O-NO 67 0 min 0,000 mm 0,0 UV-I 31 W/m -0,5 C -0,1 C 9,7 km/h (2 Bft) 100,00 %
03.11.2015 08:02 -0,1 C 97 % 1025,4 hPa 0,0 l/m 4,7 km/h (1 Bft) O-NO 76 0 min 0,000 mm 0,0 UV-I 32 W/m -0,5 C -0,1 C 9,7 km/h (2 Bft) 100,00 %
03.11.2015 08:03 -0,1 C 97 % 1025,4 hPa 0,0 l/m 2,8 km/h (1 Bft) O 92 0 min 0,000 mm 0,0 UV-I 33 W/m -0,5 C -0,1 C 6,4 km/h (2 Bft) 100,00 %
03.11.2015 08:04 -0,1 C 97 % 1025,4 hPa 0,0 l/m 4,4 km/h (1 Bft) O 100 0 min 0,000 mm 0,0 UV-I 35 W/m -0,5 C -0,1 C 14,5 km/h (3 Bft) 100,00 %
03.11.2015 08:05 -0,1 C 97 % 1025,4 hPa 0,0 l/m 8,2 km/h (2 Bft) O 100 0 min 0,000 mm 0,0 UV-I 32 W/m -0,5 C -1,9 C 14,5 km/h (3 Bft) 100,00 %
03.11.2015 08:06 -0,1 C 97 % 1025,4 hPa 0,0 l/m 3,5 km/h (1 Bft) O-SO 106 0 min 0,000 mm 0,0 UV-I 33 W/m -0,5 C -0,1 C 4,8 km/h (1 Bft) 91,67 %
03.11.2015 08:07 0,0 C 97 % 1025,5 hPa 0,0 l/m 3,6 km/h (1 Bft) O 82 0 min 0,000 mm 0,0 UV-I 33 W/m -0,4 C 0,0 C 6,4 km/h (2 Bft) 96,15 %
03.11.2015 08:08 0,0 C 97 % 1025,5 hPa 0,0 l/m 1,7 km/h (1 Bft) O 89 0 min 0,000 mm 0,0 UV-I 36 W/m -0,4 C 0,0 C 3,2 km/h (1 Bft) 100,00 %
03.11.2015 08:09 0,0 C 97 % 1025,5 hPa 0,0 l/m 2,0 km/h (1 Bft) SO 128 0 min 0,000 mm 0,0 UV-I 37 W/m -0,4 C 0,0 C 3,2 km/h (1 Bft) 100,00 %
03.11.2015 08:10 0,0 C 97 % 1025,4 hPa 0,0 l/m 3,4 km/h (1 Bft) O 94 0 min 0,000 mm 0,0 UV-I 35 W/m -0,4 C 0,0 C 4,8 km/h (1 Bft) 95,83 %
03.11.2015 08:11 0,1 C 97 % 1025,4 hPa 0,0 l/m 5,0 km/h (1 Bft) O-NO 68 0 min 0,000 mm 0,0 UV-I 37 W/m -0,3 C 0,1 C 8,0 km/h (2 Bft) 91,30 %
03.11.2015 08:12 0,0 C 97 % 1025,5 hPa 0,0 l/m 6,0 km/h (2 Bft) O 82 0 min 0,000 mm 0,0 UV-I 35 W/m -0,4 C 0,0 C 9,7 km/h (2 Bft) 100,00 %
03.11.2015 08:13 0,1 C 97 % 1025,5 hPa 0,0 l/m 3,0 km/h (1 Bft) O-SO 111 0 min 0,000 mm 0,0 UV-I 36 W/m -0,3 C 0,1 C 6,4 km/h (2 Bft) 100,00 %
03.11.2015 08:14 0,1 C 97 % 1025,5 hPa 0,0 l/m 1,3 km/h (1 Bft) O 87 0 min 0,000 mm 0,0 UV-I 37 W/m -0,3 C 0,1 C 3,2 km/h (1 Bft) 100,00 %
03.11.2015 08:15 0,1 C 97 % 1025,5 hPa 0,0 l/m 1,9 km/h (1 Bft) O-SO 117 0 min 0,000 mm 0,0 UV-I 35 W/m -0,3 C 0,1 C 3,2 km/h (1 Bft) 100,00 %
03.11.2015 08:16 0,1 C 97 % 1025,5 hPa 0,0 l/m 4,7 km/h (1 Bft) O-NO 57 0 min 0,000 mm 0,0 UV-I 37 W/m -0,3 C 0,1 C 8,0 km/h (2 Bft) 100,00 %
03.11.2015 08:17 0,1 C 97 % 1025,4 hPa 0,0 l/m 4,8 km/h (1 Bft) O-SO 104 0 min 0,000 mm 0,0 UV-I 39 W/m -0,3 C 0,1 C 6,4 km/h (2 Bft) 100,00 %
03.11.2015 08:18 0,1 C 97 % 1025,4 hPa 0,0 l/m 7,2 km/h (2 Bft) O-NO 78 0 min 0,000 mm 0,0 UV-I 40 W/m -0,3 C -0,7 C 11,3 km/h (2 Bft) 100,00 %
03.11.2015 08:19 0,1 C 97 % 1025,4 hPa 0,0 l/m 5,2 km/h (1 Bft) O 84 0 min 0,000 mm 0,0 UV-I 39 W/m -0,3 C 0,1 C 8,0 km/h (2 Bft) 100,00 %
03.11.2015 08:20 0,1 C 97 % 1025,4 hPa 0,0 l/m 3,6 km/h (1 Bft) SO 125 0 min 0,000 mm 0,0 UV-I 38 W/m -0,3 C 0,1 C 4,8 km/h (1 Bft) 100,00 %
03.11.2015 08:21 0,1 C 97 % 1025,5 hPa 0,0 l/m 5,1 km/h (1 Bft) O 96 0 min 0,000 mm 0,0 UV-I 39 W/m -0,3 C 0,1 C 9,7 km/h (2 Bft) 100,00 %
03.11.2015 08:22 0,1 C 97 % 1025,4 hPa 0,0 l/m 7,2 km/h (2 Bft) O 97 0 min 0,000 mm 0,0 UV-I 39 W/m -0,3 C -0,7 C 11,3 km/h (2 Bft) 93,33 %
03.11.2015 08:23 0,1 C 97 % 1025,4 hPa 0,0 l/m 4,2 km/h (1 Bft) O-NO 70 0 min 0,000 mm 0,0 UV-I 41 W/m -0,3 C 0,1 C 6,4 km/h (2 Bft) 100,00 %
03.11.2015 08:24 0,1 C 97 % 1025,4 hPa 0,0 l/m 3,7 km/h (1 Bft) O-SO 121 0 min 0,000 mm 0,0 UV-I 42 W/m -0,3 C 0,1 C 6,4 km/h (2 Bft) 100,00 %
03.11.2015 08:25 0,1 C 97 % 1025,4 hPa 0,0 l/m 3,0 km/h (1 Bft) NO 53 0 min 0,000 mm 0,0 UV-I 42 W/m -0,3 C 0,1 C 4,8 km/h (1 Bft) 100,00 %
03.11.2015 08:26 0,2 C 97 % 1025,4 hPa 0,0 l/m 4,4 km/h (1 Bft) O 98 0 min 0,000 mm 0,0 UV-I 43 W/m -0,2 C 0,2 C 6,4 km/h (2 Bft) 100,00 %
03.11.2015 08:27 0,2 C 97 % 1025,3 hPa 0,0 l/m 6,9 km/h (2 Bft) NO 40 0 min 0,000 mm 0,0 UV-I 44 W/m -0,2 C -0,3 C 14,5 km/h (3 Bft) 91,67 %
03.11.2015 08:28 0,2 C 97 % 1025,3 hPa 0,0 l/m 5,5 km/h (1 Bft) O 82 0 min 0,000 mm 0,0 UV-I 47 W/m -0,2 C 0,2 C 8,0 km/h (2 Bft) 100,00 %
03.11.2015 08:29 0,2 C 97 % 1025,3 hPa 0,0 l/m 4,6 km/h (1 Bft) O-NO 69 0 min 0,000 mm 0,0 UV-I 44 W/m -0,2 C 0,2 C 6,4 km/h (2 Bft) 100,00 %
03.11.2015 08:30 0,2 C 97 % 1025,4 hPa 0,0 l/m 5,9 km/h (2 Bft) O 94 0 min 0,000 mm 0,0 UV-I 44 W/m -0,2 C 0,2 C 11,3 km/h (2 Bft) 100,00 %
03.11.2015 08:31 0,2 C 97 % 1025,4 hPa 0,0 l/m 5,8 km/h (2 Bft) O 83 0 min 0,000 mm 0,0 UV-I 44 W/m -0,2 C 0,2 C 11,3 km/h (2 Bft) 95,83 %
03.11.2015 08:32 0,2 C 97 % 1025,4 hPa 0,0 l/m 6,2 km/h (2 Bft) O 94 0 min 0,000 mm 0,0 UV-I 43 W/m -0,2 C 0,2 C 11,3 km/h (2 Bft) 91,30 %
03.11.2015 08:33 0,2 C 97 % 1025,4 hPa 0,0 l/m 2,2 km/h (1 Bft) O 79 0 min 0,000 mm 0,0 UV-I 42 W/m -0,2 C 0,2 C 4,8 km/h (1 Bft) 100,00 %
03.11.2015 08:34 0,2 C 97 % 1025,5 hPa 0,0 l/m 3,6 km/h (1 Bft) SO 125 0 min 0,000 mm 0,0 UV-I 40 W/m -0,2 C 0,2 C 6,4 km/h (2 Bft) 100,00 %
03.11.2015 08:35 0,3 C 97 % 1025,5 hPa 0,0 l/m 3,3 km/h (1 Bft) O-SO 105 0 min 0,000 mm 0,0 UV-I 43 W/m -0,1 C 0,3 C 6,4 km/h (2 Bft) 100,00 %
03.11.2015 08:36 0,3 C 97 % 1025,5 hPa 0,0 l/m 5,2 km/h (1 Bft) O-NO 74 0 min 0,000 mm 0,0 UV-I 44 W/m -0,1 C 0,3 C 8,0 km/h (2 Bft) 100,00 %
03.11.2015 08:37 0,3 C 97 % 1025,5 hPa 0,0 l/m 3,6 km/h (1 Bft) NO 49 0 min 0,000 mm 0,0 UV-I 46 W/m -0,1 C 0,3 C 8,0 km/h (2 Bft) 100,00 %
03.11.2015 08:38 0,3 C 97 % 1025,5 hPa 0,0 l/m 2,7 km/h (1 Bft) O-NO 70 0 min 0,000 mm 0,0 UV-I 48 W/m -0,1 C 0,3 C 4,8 km/h (1 Bft) 100,00 %
03.11.2015 08:39 0,3 C 97 % 1025,5 hPa 0,0 l/m 4,4 km/h (1 Bft) O 91 0 min 0,000 mm 0,0 UV-I 47 W/m -0,1 C 0,3 C 6,4 km/h (2 Bft) 95,83 %
03.11.2015 08:40 0,3 C 97 % 1025,4 hPa 0,0 l/m 6,8 km/h (2 Bft) O 82 0 min 0,000 mm 0,0 UV-I 50 W/m -0,1 C -0,1 C 9,7 km/h (2 Bft) 100,00 %
03.11.2015 08:41 0,3 C 97 % 1025,5 hPa 0,0 l/m 4,8 km/h (1 Bft) O 83 0 min 0,000 mm 0,0 UV-I 54 W/m -0,1 C 0,3 C 8,0 km/h (2 Bft) 95,83 %
03.11.2015 08:42 0,3 C 97 % 1025,5 hPa 0,0 l/m 4,4 km/h (1 Bft) O-SO 112 0 min 0,000 mm 0,0 UV-I 55 W/m -0,1 C 0,3 C 4,8 km/h (1 Bft) 100,00 %
03.11.2015 08:43 0,3 C 97 % 1025,5 hPa 0,0 l/m 4,7 km/h (1 Bft) O 95 0 min 0,000 mm 0,0 UV-I 56 W/m -0,1 C 0,3 C 8,0 km/h (2 Bft) 100,00 %
03.11.2015 08:44 0,3 C 97 % 1025,5 hPa 0,0 l/m 5,3 km/h (1 Bft) O 92 0 min 0,000 mm 0,0 UV-I 55 W/m -0,1 C 0,3 C 8,0 km/h (2 Bft) 100,00 %
03.11.2015 08:45 0,3 C 97 % 1025,4 hPa 0,0 l/m 5,0 km/h (1 Bft) O 94 0 min 0,000 mm 0,0 UV-I 53 W/m -0,1 C 0,3 C 6,4 km/h (2 Bft) 100,00 %
03.11.2015 08:46 0,3 C 97 % 1025,4 hPa 0,0 l/m 4,6 km/h (1 Bft) O 88 0 min 0,000 mm 0,0 UV-I 54 W/m -0,1 C 0,3 C 6,4 km/h (2 Bft) 100,00 %
03.11.2015 08:47 0,3 C 97 % 1025,4 hPa 0,0 l/m 5,4 km/h (1 Bft) O-NO 74 0 min 0,000 mm 0,0 UV-I 55 W/m -0,1 C 0,3 C 11,3 km/h (2 Bft) 100,00 %
03.11.2015 08:48 0,3 C 97 % 1025,4 hPa 0,0 l/m 3,1 km/h (1 Bft) O 98 0 min 0,000 mm 0,0 UV-I 56 W/m -0,1 C 0,3 C 4,8 km/h (1 Bft) 100,00 %
03.11.2015 08:49 0,3 C 97 % 1025,4 hPa 0,0 l/m 6,3 km/h (2 Bft) O 80 0 min 0,000 mm 0,0 UV-I 53 W/m -0,1 C 0,3 C 11,3 km/h (2 Bft) 100,00 %
03.11.2015 08:50 0,3 C 97 % 1025,4 hPa 0,0 l/m 9,2 km/h (2 Bft) O 87 0 min 0,000 mm 0,0 UV-I 51 W/m -0,1 C -2,4 C 12,9 km/h (3 Bft) 100,00 %
03.11.2015 08:51 0,3 C 97 % 1025,3 hPa 0,0 l/m 8,8 km/h (2 Bft) O 81 0 min 0,000 mm 0,0 UV-I 50 W/m -0,1 C -2,1 C 12,9 km/h (3 Bft) 100,00 %
03.11.2015 08:52 0,3 C 97 % 1025,3 hPa 0,0 l/m 8,3 km/h (2 Bft) NO 34 0 min 0,000 mm 0,0 UV-I 53 W/m -0,1 C -1,6 C 12,9 km/h (3 Bft) 100,00 %
03.11.2015 08:53 0,3 C 97 % 1025,3 hPa 0,0 l/m 5,8 km/h (2 Bft) O-NO 66 0 min 0,000 mm 0,0 UV-I 52 W/m -0,1 C 0,3 C 9,7 km/h (2 Bft) 100,00 %
03.11.2015 08:54 0,3 C 97 % 1025,3 hPa 0,0 l/m 4,5 km/h (1 Bft) O 81 0 min 0,000 mm 0,0 UV-I 52 W/m -0,1 C 0,3 C 9,7 km/h (2 Bft) 95,83 %
03.11.2015 08:55 0,3 C 97 % 1025,4 hPa 0,0 l/m 4,4 km/h (1 Bft) O-NO 62 0 min 0,000 mm 0,0 UV-I 52 W/m -0,1 C 0,3 C 11,3 km/h (2 Bft) 100,00 %
03.11.2015 08:56 0,4 C 97 % 1025,3 hPa 0,0 l/m 4,9 km/h (1 Bft) O 83 0 min 0,000 mm 0,0 UV-I 53 W/m -0,0 C 0,4 C 8,0 km/h (2 Bft) 95,83 %
03.11.2015 08:57 0,4 C 97 % 1025,3 hPa 0,0 l/m 9,5 km/h (2 Bft) O-NO 78 0 min 0,000 mm 0,0 UV-I 54 W/m -0,0 C -2,6 C 12,9 km/h (3 Bft) 100,00 %
03.11.2015 08:58 0,4 C 97 % 1025,3 hPa 0,0 l/m 3,8 km/h (1 Bft) O-SO 110 0 min 0,000 mm 0,0 UV-I 58 W/m -0,0 C 0,4 C 11,3 km/h (2 Bft) 100,00 %
03.11.2015 08:59 0,4 C 97 % 1025,3 hPa 0,0 l/m 3,5 km/h (1 Bft) O 100 0 min 0,000 mm 0,0 UV-I 57 W/m -0,0 C 0,4 C 4,8 km/h (1 Bft) 100,00 %
03.11.2015 09:00 0,4 C 97 % 1025,4 hPa 0,0 l/m 4,4 km/h (1 Bft) NO 51 0 min 0,025 mm 0,0 UV-I 56 W/m -0,0 C 0,4 C 6,4 km/h (2 Bft) 100,00 %
03.11.2015 09:01 0,4 C 97 % 1025,3 hPa 0,0 l/m 5,7 km/h (1 Bft) O 85 0 min 0,000 mm 0,0 UV-I 59 W/m -0,0 C 0,4 C 11,3 km/h (2 Bft) 91,67 %
03.11.2015 09:02 0,4 C 97 % 1025,3 hPa 0,0 l/m 4,0 km/h (1 Bft) O 92 0 min 0,000 mm 0,0 UV-I 62 W/m -0,0 C 0,4 C 6,4 km/h (2 Bft) 100,00 %
03.11.2015 09:03 0,5 C 97 % 1025,3 hPa 0,0 l/m 4,2 km/h (1 Bft) O 83 0 min 0,000 mm 0,0 UV-I 67 W/m 0,1 C 0,5 C 8,0 km/h (2 Bft) 100,00 %
03.11.2015 09:04 0,5 C 97 % 1025,3 hPa 0,0 l/m 5,2 km/h (1 Bft) O 88 0 min 0,000 mm 0,0 UV-I 68 W/m 0,1 C 0,5 C 6,4 km/h (2 Bft) 100,00 %
03.11.2015 09:05 0,5 C 97 % 1025,3 hPa 0,0 l/m 4,9 km/h (1 Bft) O-SO 110 0 min 0,000 mm 0,0 UV-I 68 W/m 0,1 C 0,5 C 8,0 km/h (2 Bft) 100,00 %
03.11.2015 09:06 0,6 C 97 % 1025,3 hPa 0,0 l/m 5,7 km/h (1 Bft) O-NO 74 0 min 0,000 mm 0,0 UV-I 66 W/m 0,2 C 0,6 C 8,0 km/h (2 Bft) 100,00 %
03.11.2015 09:07 0,6 C 97 % 1025,2 hPa 0,0 l/m 8,2 km/h (2 Bft) O 88 0 min 0,000 mm 0,0 UV-I 66 W/m 0,2 C -1,2 C 11,3 km/h (2 Bft) 100,00 %
03.11.2015 09:08 0,6 C 97 % 1025,2 hPa 0,0 l/m 4,8 km/h (1 Bft) O 88 0 min 0,000 mm 0,0 UV-I 65 W/m 0,2 C 0,6 C 6,4 km/h (2 Bft) 100,00 %
03.11.2015 09:09 0,6 C 97 % 1025,2 hPa 0,0 l/m 3,7 km/h (1 Bft) O-SO 102 0 min 0,000 mm 0,0 UV-I 65 W/m 0,2 C 0,6 C 6,4 km/h (2 Bft) 95,83 %
03.11.2015 09:10 0,6 C 97 % 1025,3 hPa 0,0 l/m 6,2 km/h (2 Bft) O 81 0 min 0,000 mm 0,0 UV-I 64 W/m 0,2 C 0,6 C 9,7 km/h (2 Bft) 100,00 %
03.11.2015 09:11 0,6 C 97 % 1025,3 hPa 0,0 l/m 2,5 km/h (1 Bft) O 80 0 min 0,000 mm 0,0 UV-I 61 W/m 0,2 C 0,6 C 4,8 km/h (1 Bft) 100,00 %
03.11.2015 09:12 0,6 C 97 % 1025,2 hPa 0,0 l/m 4,2 km/h (1 Bft) O 99 0 min 0,000 mm 0,0 UV-I 60 W/m 0,2 C 0,6 C 6,4 km/h (2 Bft) 95,65 %
03.11.2015 09:13 0,6 C 97 % 1025,2 hPa 0,0 l/m 4,7 km/h (1 Bft) O-SO 104 0 min 0,000 mm 0,0 UV-I 64 W/m 0,2 C 0,6 C 6,4 km/h (2 Bft) 100,00 %
03.11.2015 09:14 0,7 C 97 % 1025,2 hPa 0,0 l/m 3,7 km/h (1 Bft) O-NO 61 0 min 0,000 mm 0,0 UV-I 68 W/m 0,3 C 0,7 C 4,8 km/h (1 Bft) 100,00 %
03.11.2015 09:15 0,7 C 97 % 1025,2 hPa 0,0 l/m 3,7 km/h (1 Bft) O 94 0 min 0,000 mm 0,0 UV-I 69 W/m 0,3 C 0,7 C 8,0 km/h (2 Bft) 100,00 %
03.11.2015 09:16 0,7 C 97 % 1025,2 hPa 0,0 l/m 6,6 km/h (2 Bft) O 95 0 min 0,000 mm 0,0 UV-I 66 W/m 0,3 C 0,5 C 11,3 km/h (2 Bft) 100,00 %
03.11.2015 09:17 0,7 C 97 % 1025,2 hPa 0,0 l/m 4,6 km/h (1 Bft) O-NO 74 0 min 0,000 mm 0,0 UV-I 67 W/m 0,3 C 0,7 C 8,0 km/h (2 Bft) 100,00 %
03.11.2015 09:18 0,7 C 97 % 1025,2 hPa 0,0 l/m 6,8 km/h (2 Bft) SO 131 0 min 0,000 mm 0,0 UV-I 71 W/m 0,3 C 0,3 C 12,9 km/h (3 Bft) 100,00 %
03.11.2015 09:19 0,7 C 97 % 1025,2 hPa 0,0 l/m 4,8 km/h (1 Bft) O-SO 121 0 min 0,000 mm 0,0 UV-I 75 W/m 0,3 C 0,7 C 9,7 km/h (2 Bft) 100,00 %
03.11.2015 09:20 0,7 C 97 % 1025,2 hPa 0,0 l/m 4,6 km/h (1 Bft) O-SO 104 0 min 0,000 mm 0,0 UV-I 74 W/m 0,3 C 0,7 C 6,4 km/h (2 Bft) 100,00 %
03.11.2015 09:21 0,7 C 97 % 1025,2 hPa 0,0 l/m 5,3 km/h (1 Bft) O-SO 103 0 min 0,000 mm 0,0 UV-I 74 W/m 0,3 C 0,7 C 9,7 km/h (2 Bft) 100,00 %
03.11.2015 09:22 0,7 C 97 % 1025,2 hPa 0,0 l/m 4,8 km/h (1 Bft) O-NO 63 0 min 0,000 mm 0,0 UV-I 72 W/m 0,3 C 0,7 C 11,3 km/h (2 Bft) 100,00 %
03.11.2015 09:23 0,7 C 97 % 1025,2 hPa 0,0 l/m 7,9 km/h (2 Bft) O-NO 61 0 min 0,000 mm 0,0 UV-I 70 W/m 0,3 C -0,8 C 11,3 km/h (2 Bft) 96,55 %
03.11.2015 09:24 0,7 C 97 % 1025,2 hPa 0,0 l/m 4,2 km/h (1 Bft) O 80 0 min 0,000 mm 0,0 UV-I 69 W/m 0,3 C 0,7 C 6,4 km/h (2 Bft) 100,00 %
03.11.2015 09:25 0,7 C 97 % 1025,2 hPa 0,0 l/m 6,0 km/h (2 Bft) O 80 0 min 0,000 mm 0,0 UV-I 69 W/m 0,3 C 0,7 C 11,3 km/h (2 Bft) 95,65 %
03.11.2015 09:26 0,7 C 97 % 1025,2 hPa 0,0 l/m 4,8 km/h (1 Bft) O 86 0 min 0,000 mm 0,0 UV-I 69 W/m 0,3 C 0,7 C 9,7 km/h (2 Bft) 100,00 %
03.11.2015 09:27 0,7 C 97 % 1025,2 hPa 0,0 l/m 7,2 km/h (2 Bft) O 86 0 min 0,000 mm 0,0 UV-I 68 W/m 0,3 C -0,1 C 11,3 km/h (2 Bft) 100,00 %
03.11.2015 09:28 0,8 C 97 % 1025,2 hPa 0,0 l/m 4,6 km/h (1 Bft) SO 135 0 min 0,000 mm 0,0 UV-I 69 W/m 0,4 C 0,8 C 8,0 km/h (2 Bft) 100,00 %
03.11.2015 09:29 0,8 C 97 % 1025,1 hPa 0,0 l/m 4,9 km/h (1 Bft) SO 124 0 min 0,000 mm 0,0 UV-I 71 W/m 0,4 C 0,8 C 9,7 km/h (2 Bft) 100,00 %
03.11.2015 09:30 0,8 C 97 % 1025,2 hPa 0,0 l/m 3,5 km/h (1 Bft) O 79 0 min 0,000 mm 0,0 UV-I 73 W/m 0,4 C 0,8 C 6,4 km/h (2 Bft) 100,00 %
03.11.2015 09:31 0,8 C 97 % 1025,2 hPa 0,0 l/m 6,0 km/h (2 Bft) O 101 0 min 0,000 mm 0,0 UV-I 76 W/m 0,4 C 0,8 C 8,0 km/h (2 Bft) 100,00 %
03.11.2015 09:32 0,8 C 97 % 1025,1 hPa 0,0 l/m 5,6 km/h (1 Bft) O 98 0 min 0,000 mm 0,0 UV-I 69 W/m 0,4 C 0,8 C 8,0 km/h (2 Bft) 100,00 %
03.11.2015 09:33 0,8 C 97 % 1025,2 hPa 0,0 l/m 5,6 km/h (1 Bft) O-NO 58 0 min 0,000 mm 0,0 UV-I 67 W/m 0,4 C 0,8 C 8,0 km/h (2 Bft) 99,07 %
03.11.2015 09:36 0,8 C 98 % 1025,1 hPa 0,0 l/m 4,3 km/h (1 Bft) O 80 0 min 0,000 mm 0,0 UV-I 66 W/m 0,5 C 0,8 C 8,0 km/h (2 Bft) 98,88 %
03.11.2015 09:37 0,8 C 98 % 1025,2 hPa 0,0 l/m 5,2 km/h (1 Bft) O 82 0 min 0,000 mm 0,0 UV-I 63 W/m 0,5 C 0,8 C 8,0 km/h (2 Bft) 100,00 %
03.11.2015 09:38 0,9 C 98 % 1025,1 hPa 0,0 l/m 6,5 km/h (2 Bft) NO 41 0 min 0,000 mm 0,0 UV-I 60 W/m 0,6 C 0,8 C 11,3 km/h (2 Bft) 95,83 %
03.11.2015 09:39 0,9 C 98 % 1025,1 hPa 0,0 l/m 5,8 km/h (2 Bft) O 96 0 min 0,000 mm 0,0 UV-I 63 W/m 0,6 C 0,9 C 8,0 km/h (2 Bft) 100,00 %
03.11.2015 09:40 0,9 C 98 % 1025,1 hPa 0,0 l/m 5,2 km/h (1 Bft) O-NO 74 0 min 0,000 mm 0,0 UV-I 65 W/m 0,6 C 0,9 C 6,4 km/h (2 Bft) 100,00 %
03.11.2015 09:41 0,9 C 98 % 1025,2 hPa 0,0 l/m 4,7 km/h (1 Bft) O 84 0 min 0,000 mm 0,0 UV-I 64 W/m 0,6 C 0,9 C 8,0 km/h (2 Bft) 100,00 %
03.11.2015 09:42 0,9 C 98 % 1025,2 hPa 0,0 l/m 4,8 km/h (1 Bft) O-NO 63 0 min 0,000 mm 0,0 UV-I 62 W/m 0,6 C 0,9 C 9,7 km/h (2 Bft) 100,00 %
03.11.2015 09:43 0,9 C 98 % 1025,2 hPa 0,0 l/m 6,1 km/h (2 Bft) N-NO 20 0 min 0,000 mm 0,0 UV-I 64 W/m 0,6 C 0,9 C 9,7 km/h (2 Bft) 100,00 %
03.11.2015 09:44 0,9 C 98 % 1025,2 hPa 0,0 l/m 6,4 km/h (2 Bft) O-NO 72 0 min 0,000 mm 0,0 UV-I 69 W/m 0,6 C 0,9 C 8,0 km/h (2 Bft) 100,00 %
03.11.2015 09:45 0,9 C 98 % 1025,1 hPa 0,0 l/m 4,6 km/h (1 Bft) O-NO 72 0 min 0,000 mm 0,0 UV-I 70 W/m 0,6 C 0,9 C 6,4 km/h (2 Bft) 100,00 %
03.11.2015 09:46 0,9 C 98 % 1025,0 hPa 0,0 l/m 4,5 km/h (1 Bft) O 96 0 min 0,000 mm 0,0 UV-I 69 W/m 0,6 C 0,9 C 6,4 km/h (2 Bft) 100,00 %
03.11.2015 09:47 0,9 C 98 % 1025,0 hPa 0,0 l/m 3,3 km/h (1 Bft) O-NO 78 0 min 0,000 mm 0,0 UV-I 70 W/m 0,6 C 0,9 C 8,0 km/h (2 Bft) 100,00 %
03.11.2015 09:48 0,9 C 98 % 1025,0 hPa 0,0 l/m 5,1 km/h (1 Bft) O 98 0 min 0,000 mm 0,0 UV-I 73 W/m 0,6 C 0,9 C 6,4 km/h (2 Bft) 100,00 %
03.11.2015 09:49 0,9 C 98 % 1025,0 hPa 0,0 l/m 3,3 km/h (1 Bft) O 82 0 min 0,000 mm 0,0 UV-I 72 W/m 0,6 C 0,9 C 9,7 km/h (2 Bft) 100,00 %
03.11.2015 09:50 0,9 C 98 % 1025,0 hPa 0,0 l/m 4,2 km/h (1 Bft) O 89 0 min 0,000 mm 0,0 UV-I 74 W/m 0,6 C 0,9 C 9,7 km/h (2 Bft) 100,00 %
03.11.2015 09:51 1,0 C 98 % 1024,9 hPa 0,0 l/m 4,2 km/h (1 Bft) O 92 0 min 0,000 mm 0,0 UV-I 71 W/m 0,7 C 1,0 C 6,4 km/h (2 Bft) 100,00 %
03.11.2015 09:52 1,0 C 98 % 1024,9 hPa 0,0 l/m 4,7 km/h (1 Bft) O-NO 69 0 min 0,000 mm 0,0 UV-I 71 W/m 0,7 C 1,0 C 6,4 km/h (2 Bft) 100,00 %
03.11.2015 09:53 1,0 C 98 % 1024,9 hPa 0,0 l/m 3,8 km/h (1 Bft) SO 128 0 min 0,000 mm 0,0 UV-I 72 W/m 0,7 C 1,0 C 6,4 km/h (2 Bft) 95,83 %
03.11.2015 09:54 1,0 C 98 % 1024,9 hPa 0,0 l/m 5,4 km/h (1 Bft) O-NO 70 0 min 0,000 mm 0,0 UV-I 72 W/m 0,7 C 1,0 C 11,3 km/h (2 Bft) 100,00 %
03.11.2015 09:55 1,0 C 98 % 1024,9 hPa 0,0 l/m 5,0 km/h (1 Bft) O-NO 64 0 min 0,000 mm 0,0 UV-I 72 W/m 0,7 C 1,0 C 6,4 km/h (2 Bft) 100,00 %
03.11.2015 09:56 1,0 C 97 % 1025,0 hPa 0,0 l/m 5,3 km/h (1 Bft) O-NO 76 0 min 0,000 mm 0,0 UV-I 72 W/m 0,6 C 1,0 C 8,0 km/h (2 Bft) 95,65 %
03.11.2015 09:57 1,0 C 97 % 1024,9 hPa 0,0 l/m 3,8 km/h (1 Bft) O-NO 71 0 min 0,000 mm 0,0 UV-I 73 W/m 0,6 C 1,0 C 6,4 km/h (2 Bft) 100,00 %
03.11.2015 09:58 1,1 C 97 % 1024,9 hPa 0,0 l/m 3,6 km/h (1 Bft) O 101 0 min 0,000 mm 0,0 UV-I 76 W/m 0,7 C 1,1 C 4,8 km/h (1 Bft) 95,65 %
03.11.2015 09:59 1,1 C 97 % 1024,9 hPa 0,0 l/m 2,7 km/h (1 Bft) O 80 0 min 0,000 mm 0,0 UV-I 77 W/m 0,7 C 1,1 C 4,8 km/h (1 Bft) 100,00 %
03.11.2015 10:00 1,1 C 97 % 1024,9 hPa 0,0 l/m 2,6 km/h (1 Bft) O 101 0 min 0,026 mm 0,0 UV-I 76 W/m 0,7 C 1,1 C 4,8 km/h (1 Bft) 100,00 %
03.11.2015 10:01 1,2 C 97 % 1025,0 hPa 0,0 l/m 1,9 km/h (1 Bft) O-SO 123 0 min 0,000 mm 0,0 UV-I 76 W/m 0,8 C 1,2 C 6,4 km/h (2 Bft) 100,00 %
03.11.2015 10:02 1,2 C 97 % 1025,0 hPa 0,0 l/m 5,4 km/h (1 Bft) O 101 0 min 0,000 mm 0,0 UV-I 78 W/m 0,8 C 1,2 C 9,7 km/h (2 Bft) 100,00 %
03.11.2015 10:03 1,2 C 97 % 1024,9 hPa 0,0 l/m 5,5 km/h (1 Bft) O-NO 66 0 min 0,000 mm 0,0 UV-I 82 W/m 0,8 C 1,2 C 9,7 km/h (2 Bft) 100,00 %
03.11.2015 10:04 1,1 C 97 % 1024,9 hPa 0,0 l/m 5,7 km/h (1 Bft) O 85 0 min 0,000 mm 0,0 UV-I 83 W/m 0,7 C 1,1 C 11,3 km/h (2 Bft) 100,00 %
03.11.2015 10:05 1,1 C 97 % 1024,9 hPa 0,0 l/m 3,6 km/h (1 Bft) O-SO 105 0 min 0,000 mm 0,0 UV-I 84 W/m 0,7 C 1,1 C 4,8 km/h (1 Bft) 100,00 %
03.11.2015 10:06 1,1 C 97 % 1024,9 hPa 0,0 l/m 2,6 km/h (1 Bft) O 86 0 min 0,000 mm 0,0 UV-I 84 W/m 0,7 C 1,1 C 4,8 km/h (1 Bft) 100,00 %
03.11.2015 10:07 1,1 C 97 % 1024,9 hPa 0,0 l/m 2,7 km/h (1 Bft) O-NO 77 0 min 0,000 mm 0,0 UV-I 83 W/m 0,7 C 1,1 C 4,8 km/h (1 Bft) 96,15 %
03.11.2015 10:08 1,1 C 97 % 1024,9 hPa 0,0 l/m 3,4 km/h (1 Bft) O-SO 106 0 min 0,000 mm 0,0 UV-I 84 W/m 0,7 C 1,1 C 4,8 km/h (1 Bft) 95,83 %
03.11.2015 10:09 1,1 C 97 % 1024,8 hPa 0,0 l/m 3,7 km/h (1 Bft) O 101 0 min 0,000 mm 0,0 UV-I 86 W/m 0,7 C 1,1 C 4,8 km/h (1 Bft) 100,00 %
03.11.2015 10:10 1,2 C 97 % 1024,9 hPa 0,0 l/m 4,3 km/h (1 Bft) NO 44 0 min 0,000 mm 0,0 UV-I 84 W/m 0,8 C 1,2 C 6,4 km/h (2 Bft) 100,00 %
03.11.2015 10:11 1,2 C 97 % 1024,8 hPa 0,0 l/m 3,4 km/h (1 Bft) O-SO 115 0 min 0,000 mm 0,0 UV-I 83 W/m 0,8 C 1,2 C 6,4 km/h (2 Bft) 100,00 %
03.11.2015 10:12 1,2 C 97 % 1024,9 hPa 0,0 l/m 3,8 km/h (1 Bft) O 97 0 min 0,000 mm 0,0 UV-I 84 W/m 0,8 C 1,2 C 4,8 km/h (1 Bft) 100,00 %
03.11.2015 10:13 1,2 C 98 % 1024,8 hPa 0,0 l/m 2,5 km/h (1 Bft) O-SO 109 0 min 0,000 mm 0,0 UV-I 86 W/m 0,9 C 1,2 C 3,2 km/h (1 Bft) 96,55 %
03.11.2015 10:14 1,2 C 98 % 1024,8 hPa 0,0 l/m 3,0 km/h (1 Bft) O-NO 60 0 min 0,000 mm 0,0 UV-I 90 W/m 0,9 C 1,2 C 6,4 km/h (2 Bft) 95,83 %
03.11.2015 10:15 1,2 C 98 % 1024,8 hPa 0,0 l/m 4,2 km/h (1 Bft) O-SO 106 0 min 0,000 mm 0,0 UV-I 91 W/m 0,9 C 1,2 C 6,4 km/h (2 Bft) 99,07 %
03.11.2015 10:16 1,2 C 98 % 1024,9 hPa 0,0 l/m 4,5 km/h (1 Bft) SO 127 0 min 0,000 mm 0,0 UV-I 87 W/m 0,9 C 1,2 C 6,4 km/h (2 Bft) 100,00 %
03.11.2015 10:17 1,3 C 98 % 1024,8 hPa 0,0 l/m 4,5 km/h (1 Bft) SO 127 0 min 0,000 mm 0,0 UV-I 84 W/m 1,0 C 1,3 C 6,4 km/h (2 Bft) 100,00 %
03.11.2015 10:18 1,2 C 98 % 1024,8 hPa 0,0 l/m 4,9 km/h (1 Bft) SO 135 0 min 0,000 mm 0,0 UV-I 86 W/m 0,9 C 1,2 C 8,0 km/h (2 Bft) 96,15 %
03.11.2015 10:19 1,2 C 98 % 1024,8 hPa 0,0 l/m 5,6 km/h (1 Bft) O-SO 115 0 min 0,000 mm 0,0 UV-I 84 W/m 0,9 C 1,2 C 8,0 km/h (2 Bft) 100,00 %
03.11.2015 10:20 1,2 C 98 % 1024,7 hPa 0,0 l/m 3,1 km/h (1 Bft) SO 127 0 min 0,000 mm 0,0 UV-I 86 W/m 0,9 C 1,2 C 4,8 km/h (1 Bft) 100,00 %
03.11.2015 10:21 1,2 C 98 % 1024,8 hPa 0,0 l/m 3,7 km/h (1 Bft) SO 124 0 min 0,000 mm 0,0 UV-I 87 W/m 0,9 C 1,2 C 4,8 km/h (1 Bft) 100,00 %
03.11.2015 10:22 1,3 C 98 % 1024,7 hPa 0,0 l/m 3,4 km/h (1 Bft) O-SO 108 0 min 0,000 mm 0,0 UV-I 88 W/m 1,0 C 1,3 C 6,4 km/h (2 Bft) 96,55 %
03.11.2015 10:23 1,3 C 98 % 1024,7 hPa 0,0 l/m 5,9 km/h (2 Bft) O-SO 109 0 min 0,000 mm 0,0 UV-I 87 W/m 1,0 C 1,3 C 9,7 km/h (2 Bft) 100,00 %
03.11.2015 10:24 1,3 C 98 % 1024,8 hPa 0,0 l/m 3,0 km/h (1 Bft) O-SO 107 0 min 0,000 mm 0,0 UV-I 93 W/m 1,0 C 1,3 C 4,8 km/h (1 Bft) 100,00 %
03.11.2015 10:25 1,3 C 97 % 1024,8 hPa 0,0 l/m 3,2 km/h (1 Bft) O-SO 104 0 min 0,000 mm 0,0 UV-I 95 W/m 0,9 C 1,3 C 4,8 km/h (1 Bft) 100,00 %
03.11.2015 10:26 1,3 C 97 % 1024,7 hPa 0,0 l/m 2,4 km/h (1 Bft) O-SO 111 0 min 0,000 mm 0,0 UV-I 92 W/m 0,9 C 1,3 C 4,8 km/h (1 Bft) 100,00 %
03.11.2015 10:27 1,3 C 97 % 1024,7 hPa 0,0 l/m 3,6 km/h (1 Bft) O 85 0 min 0,000 mm 0,0 UV-I 91 W/m 0,9 C 1,3 C 6,4 km/h (2 Bft) 100,00 %
03.11.2015 10:28 1,4 C 97 % 1024,7 hPa 0,0 l/m 3,6 km/h (1 Bft) O 101 0 min 0,000 mm 0,0 UV-I 90 W/m 1,0 C 1,4 C 6,4 km/h (2 Bft) 100,00 %
03.11.2015 10:29 1,4 C 97 % 1024,7 hPa 0,0 l/m 5,0 km/h (1 Bft) O-NO 78 0 min 0,000 mm 0,0 UV-I 91 W/m 1,0 C 1,4 C 6,4 km/h (2 Bft) 100,00 %
03.11.2015 10:30 1,4 C 97 % 1024,7 hPa 0,0 l/m 4,4 km/h (1 Bft) O 85 0 min 0,000 mm 0,0 UV-I 90 W/m 1,0 C 1,4 C 8,0 km/h (2 Bft) 100,00 %
03.11.2015 10:31 1,4 C 97 % 1024,7 hPa 0,0 l/m 3,6 km/h (1 Bft) O 86 0 min 0,000 mm 0,0 UV-I 91 W/m 1,0 C 1,4 C 4,8 km/h (1 Bft) 100,00 %
03.11.2015 10:32 1,4 C 97 % 1024,7 hPa 0,0 l/m 2,0 km/h (1 Bft) O-NO 59 0 min 0,000 mm 0,0 UV-I 94 W/m 1,0 C 1,4 C 3,2 km/h (1 Bft) 100,00 %
03.11.2015 10:33 1,4 C 98 % 1024,7 hPa 0,0 l/m 3,5 km/h (1 Bft) O 97 0 min 0,000 mm 0,0 UV-I 91 W/m 1,1 C 1,4 C 6,4 km/h (2 Bft) 100,00 %
03.11.2015 10:34 1,4 C 98 % 1024,7 hPa 0,0 l/m 5,6 km/h (1 Bft) O 82 0 min 0,000 mm 0,0 UV-I 91 W/m 1,1 C 1,4 C 6,4 km/h (2 Bft) 100,00 %
03.11.2015 10:35 1,4 C 97 % 1024,7 hPa 0,0 l/m 4,9 km/h (1 Bft) O-NO 72 0 min 0,000 mm 0,0 UV-I 95 W/m 1,0 C 1,4 C 8,0 km/h (2 Bft) 100,00 %
03.11.2015 10:36 1,4 C 97 % 1024,7 hPa 0,0 l/m 5,0 km/h (1 Bft) O-SO 117 0 min 0,000 mm 0,0 UV-I 101 W/m 1,0 C 1,4 C 6,4 km/h (2 Bft) 100,00 %
03.11.2015 10:37 1,4 C 97 % 1024,7 hPa 0,0 l/m 3,8 km/h (1 Bft) SO 126 0 min 0,000 mm 0,0 UV-I 97 W/m 1,0 C 1,4 C 6,4 km/h (2 Bft) 95,83 %
03.11.2015 10:38 1,4 C 97 % 1024,6 hPa 0,0 l/m 3,3 km/h (1 Bft) O-NO 71 0 min 0,000 mm 0,0 UV-I 95 W/m 1,0 C 1,4 C 6,4 km/h (2 Bft) 100,00 %
03.11.2015 10:39 1,4 C 97 % 1024,6 hPa 0,0 l/m 5,4 km/h (1 Bft) O-NO 78 0 min 0,000 mm 0,0 UV-I 93 W/m 1,0 C 1,4 C 8,0 km/h (2 Bft) 96,15 %
03.11.2015 10:40 1,4 C 97 % 1024,6 hPa 0,0 l/m 3,6 km/h (1 Bft) O 97 0 min 0,000 mm 0,0 UV-I 92 W/m 1,0 C 1,4 C 4,8 km/h (1 Bft) 100,00 %
03.11.2015 10:41 1,4 C 97 % 1024,6 hPa 0,0 l/m 5,0 km/h (1 Bft) O-NO 74 0 min 0,000 mm 0,0 UV-I 91 W/m 1,0 C 1,4 C 8,0 km/h (2 Bft) 100,00 %
03.11.2015 10:42 1,4 C 97 % 1024,6 hPa 0,0 l/m 4,8 km/h (1 Bft) O-NO 77 0 min 0,000 mm 0,0 UV-I 91 W/m 1,0 C 1,4 C 6,4 km/h (2 Bft) 100,00 %
03.11.2015 10:43 1,4 C 97 % 1024,6 hPa 0,0 l/m 4,2 km/h (1 Bft) O-SO 107 0 min 0,000 mm 0,0 UV-I 88 W/m 1,0 C 1,4 C 6,4 km/h (2 Bft) 96,15 %
03.11.2015 10:44 1,4 C 97 % 1024,6 hPa 0,0 l/m 4,5 km/h (1 Bft) O 90 0 min 0,000 mm 0,0 UV-I 88 W/m 1,0 C 1,4 C 6,4 km/h (2 Bft) 100,00 %
03.11.2015 10:45 1,4 C 97 % 1024,6 hPa 0,0 l/m 5,2 km/h (1 Bft) O-NO 69 0 min 0,000 mm 0,0 UV-I 90 W/m 1,0 C 1,4 C 6,4 km/h (2 Bft) 100,00 %
03.11.2015 10:46 1,5 C 97 % 1024,6 hPa 0,0 l/m 4,7 km/h (1 Bft) O 80 0 min 0,000 mm 0,0 UV-I 89 W/m 1,1 C 1,5 C 6,4 km/h (2 Bft) 100,00 %
03.11.2015 10:47 1,5 C 97 % 1024,6 hPa 0,0 l/m 5,4 km/h (1 Bft) O-NO 59 0 min 0,000 mm 0,0 UV-I 84 W/m 1,1 C 1,5 C 8,0 km/h (2 Bft) 96,55 %
03.11.2015 10:48 1,6 C 97 % 1024,6 hPa 0,0 l/m 6,0 km/h (2 Bft) O-NO 74 0 min 0,000 mm 0,0 UV-I 86 W/m 1,2 C 1,6 C 11,3 km/h (2 Bft) 95,83 %
03.11.2015 10:49 1,6 C 97 % 1024,5 hPa 0,0 l/m 6,0 km/h (2 Bft) O 81 0 min 0,000 mm 0,0 UV-I 92 W/m 1,2 C 1,6 C 9,7 km/h (2 Bft) 100,00 %
03.11.2015 10:50 1,6 C 97 % 1024,5 hPa 0,0 l/m 5,9 km/h (2 Bft) O-NO 71 0 min 0,000 mm 0,4 UV-I 96 W/m 1,2 C 1,6 C 8,0 km/h (2 Bft) 100,00 %
03.11.2015 10:51 1,6 C 97 % 1024,5 hPa 0,0 l/m 3,2 km/h (1 Bft) N-NO 20 0 min 0,000 mm 0,0 UV-I 95 W/m 1,2 C 1,6 C 4,8 km/h (1 Bft) 100,00 %
03.11.2015 10:52 1,6 C 97 % 1024,5 hPa 0,0 l/m 2,7 km/h (1 Bft) N 351 0 min 0,000 mm 0,2 UV-I 95 W/m 1,2 C 1,6 C 4,8 km/h (1 Bft) 95,83 %
03.11.2015 10:53 1,6 C 97 % 1024,5 hPa 0,0 l/m 1,9 km/h (1 Bft) O 89 0 min 0,000 mm 0,5 UV-I 96 W/m 1,2 C 1,6 C 3,2 km/h (1 Bft) 100,00 %
03.11.2015 10:54 1,7 C 97 % 1024,6 hPa 0,0 l/m 4,1 km/h (1 Bft) O-SO 105 0 min 0,000 mm 0,5 UV-I 98 W/m 1,3 C 1,7 C 6,4 km/h (2 Bft) 100,00 %
03.11.2015 10:55 1,7 C 97 % 1024,6 hPa 0,0 l/m 5,4 km/h (1 Bft) O-NO 74 0 min 0,000 mm 0,5 UV-I 106 W/m 1,3 C 1,7 C 8,0 km/h (2 Bft) 100,00 %
03.11.2015 10:56 1,6 C 97 % 1024,6 hPa 0,0 l/m 3,4 km/h (1 Bft) O 94 0 min 0,000 mm 0,5 UV-I 113 W/m 1,2 C 1,6 C 6,4 km/h (2 Bft) 100,00 %
03.11.2015 10:57 1,6 C 96 % 1024,7 hPa 0,0 l/m 3,1 km/h (1 Bft) O-SO 103 0 min 0,000 mm 0,5 UV-I 111 W/m 1,0 C 1,6 C 4,8 km/h (1 Bft) 100,00 %
03.11.2015 10:58 1,6 C 96 % 1024,6 hPa 0,0 l/m 4,9 km/h (1 Bft) O-SO 122 0 min 0,000 mm 0,5 UV-I 111 W/m 1,0 C 1,6 C 6,4 km/h (2 Bft) 100,00 %
03.11.2015 10:59 1,6 C 96 % 1024,6 hPa 0,0 l/m 3,7 km/h (1 Bft) SO 130 0 min 0,000 mm 0,5 UV-I 113 W/m 1,0 C 1,6 C 4,8 km/h (1 Bft) 100,00 %
03.11.2015 11:00 1,6 C 96 % 1024,6 hPa 0,0 l/m 2,2 km/h (1 Bft) SO 130 0 min 0,000 mm 0,5 UV-I 109 W/m 1,0 C 1,6 C 3,2 km/h (1 Bft) 100,00 %
03.11.2015 11:02 1,7 C 96 % 1024,6 hPa 0,0 l/m 1,8 km/h (1 Bft) O-SO 110 0 min 0,025 mm 0,2 UV-I 97 W/m 1,1 C 1,7 C 3,2 km/h (1 Bft) 100,00 %
03.11.2015 11:03 1,7 C 96 % 1024,6 hPa 0,0 l/m 0,5 km/h (0 Bft) NO 36 0 min 0,000 mm 0,0 UV-I 91 W/m 1,1 C 1,7 C 1,6 km/h (1 Bft) 100,00 %
03.11.2015 11:04 1,7 C 96 % 1024,6 hPa 0,0 l/m 1,7 km/h (1 Bft) N 9 0 min 0,000 mm 0,0 UV-I 91 W/m 1,1 C 1,7 C 3,2 km/h (1 Bft) 91,30 %
03.11.2015 11:05 1,7 C 96 % 1024,5 hPa 0,0 l/m 1,6 km/h (1 Bft) O-SO 112 0 min 0,000 mm 0,1 UV-I 92 W/m 1,1 C 1,7 C 4,8 km/h (1 Bft) 100,00 %
03.11.2015 11:10 1,7 C 96 % 1024,4 hPa 0,0 l/m 1,6 km/h (1 Bft) O-NO 67 0 min 0,000 mm 0,1 UV-I 91 W/m 1,1 C 1,7 C 6,4 km/h (2 Bft) 100,00 %
03.11.2015 11:14 1,7 C 96 % 1024,4 hPa 0,0 l/m 4,8 km/h (1 Bft) O-NO 68 0 min 0,000 mm 0,4 UV-I 101 W/m 1,1 C 1,7 C 6,4 km/h (2 Bft) 100,00 %
03.11.2015 11:15 1,7 C 95 % 1024,4 hPa 0,0 l/m 6,0 km/h (2 Bft) O 99 0 min 0,000 mm 0,5 UV-I 105 W/m 1,0 C 1,7 C 9,7 km/h (2 Bft) 100,00 %
03.11.2015 11:16 1,7 C 95 % 1024,4 hPa 0,0 l/m 6,0 km/h (2 Bft) O-NO 78 0 min 0,000 mm 0,6 UV-I 111 W/m 1,0 C 1,7 C 8,0 km/h (2 Bft) 100,00 %
03.11.2015 11:18 1,7 C 95 % 1024,3 hPa 0,0 l/m 7,4 km/h (2 Bft) O 95 0 min 0,000 mm 0,6 UV-I 119 W/m 1,0 C 0,7 C 8,0 km/h (2 Bft) 97,78 %
03.11.2015 11:19 1,7 C 95 % 1024,3 hPa 0,0 l/m 3,9 km/h (1 Bft) O-SO 103 0 min 0,000 mm 0,6 UV-I 120 W/m 1,0 C 1,7 C 6,4 km/h (2 Bft) 100,00 %
03.11.2015 11:20 1,7 C 95 % 1024,3 hPa 0,0 l/m 3,8 km/h (1 Bft) O 84 0 min 0,000 mm 0,6 UV-I 117 W/m 1,0 C 1,7 C 4,8 km/h (1 Bft) 100,00 %
03.11.2015 11:21 1,7 C 95 % 1024,2 hPa 0,0 l/m 1,7 km/h (1 Bft) O-SO 109 0 min 0,000 mm 0,5 UV-I 112 W/m 1,0 C 1,7 C 4,8 km/h (1 Bft) 95,65 %
03.11.2015 11:24 1,7 C 96 % 1024,2 hPa 0,0 l/m 3,8 km/h (1 Bft) O 85 0 min 0,000 mm 0,5 UV-I 106 W/m 1,1 C 1,7 C 4,8 km/h (1 Bft) 98,48 %
03.11.2015 11:25 1,7 C 96 % 1024,2 hPa 0,0 l/m 2,0 km/h (1 Bft) O 84 0 min 0,000 mm 0,5 UV-I 100 W/m 1,1 C 1,7 C 3,2 km/h (1 Bft) 100,00 %
03.11.2015 11:26 1,7 C 96 % 1024,2 hPa 0,0 l/m 0,7 km/h (0 Bft) O 84 0 min 0,000 mm 0,3 UV-I 94 W/m 1,1 C 1,7 C 1,6 km/h (1 Bft) 100,00 %
03.11.2015 11:27 1,7 C 96 % 1024,2 hPa 0,0 l/m 2,9 km/h (1 Bft) O 86 0 min 0,000 mm 0,0 UV-I 91 W/m 1,1 C 1,7 C 4,8 km/h (1 Bft) 100,00 %
03.11.2015 11:28 1,8 C 96 % 1024,2 hPa 0,0 l/m 1,5 km/h (1 Bft) NO 55 0 min 0,000 mm 0,3 UV-I 92 W/m 1,2 C 1,8 C 3,2 km/h (1 Bft) 100,00 %
03.11.2015 11:29 1,9 C 96 % 1024,1 hPa 0,0 l/m 3,0 km/h (1 Bft) NO 40 0 min 0,000 mm 0,5 UV-I 101 W/m 1,3 C 1,9 C 4,8 km/h (1 Bft) 100,00 %
03.11.2015 11:30 1,9 C 96 % 1024,1 hPa 0,0 l/m 1,6 km/h (1 Bft) O 90 0 min 0,000 mm 0,3 UV-I 97 W/m 1,3 C 1,9 C 4,8 km/h (1 Bft) 100,00 %
03.11.2015 11:35 1,9 C 96 % 1024,1 hPa 0,0 l/m 3,6 km/h (1 Bft) O 94 0 min 0,000 mm 0,5 UV-I 104 W/m 1,3 C 1,9 C 6,4 km/h (2 Bft) 99,32 %
03.11.2015 11:36 1,9 C 96 % 1024,0 hPa 0,0 l/m 4,8 km/h (1 Bft) SO 125 0 min 0,000 mm 0,5 UV-I 105 W/m 1,3 C 1,9 C 8,0 km/h (2 Bft) 100,00 %
03.11.2015 11:37 1,9 C 95 % 1024,0 hPa 0,0 l/m 2,6 km/h (1 Bft) O 85 0 min 0,000 mm 0,5 UV-I 106 W/m 1,2 C 1,9 C 3,2 km/h (1 Bft) 95,65 %
03.11.2015 11:38 1,9 C 96 % 1024,0 hPa 0,0 l/m 4,9 km/h (1 Bft) O 94 0 min 0,000 mm 0,5 UV-I 103 W/m 1,3 C 1,9 C 6,4 km/h (2 Bft) 100,00 %
03.11.2015 11:39 1,9 C 95 % 1024,0 hPa 0,0 l/m 4,6 km/h (1 Bft) O-NO 77 0 min 0,000 mm 0,5 UV-I 99 W/m 1,2 C 1,9 C 6,4 km/h (2 Bft) 100,00 %
03.11.2015 11:40 1,9 C 95 % 1024,0 hPa 0,0 l/m 4,6 km/h (1 Bft) O-SO 105 0 min 0,000 mm 0,5 UV-I 96 W/m 1,2 C 1,9 C 6,4 km/h (2 Bft) 100,00 %
03.11.2015 11:41 1,9 C 95 % 1024,0 hPa 0,0 l/m 5,3 km/h (1 Bft) O 85 0 min 0,000 mm 0,5 UV-I 98 W/m 1,2 C 1,9 C 8,0 km/h (2 Bft) 100,00 %
03.11.2015 11:42 1,9 C 95 % 1023,9 hPa 0,0 l/m 5,6 km/h (1 Bft) O-NO 71 0 min 0,000 mm 0,5 UV-I 101 W/m 1,2 C 1,9 C 11,3 km/h (2 Bft) 96,30 %
03.11.2015 11:43 1,9 C 95 % 1023,9 hPa 0,0 l/m 4,4 km/h (1 Bft) O 91 0 min 0,000 mm 0,5 UV-I 103 W/m 1,2 C 1,9 C 6,4 km/h (2 Bft) 100,00 %
03.11.2015 11:44 1,9 C 95 % 1023,8 hPa 0,0 l/m 5,3 km/h (1 Bft) NO 55 0 min 0,000 mm 0,6 UV-I 107 W/m 1,2 C 1,9 C 9,7 km/h (2 Bft) 100,00 %
03.11.2015 11:45 1,9 C 95 % 1023,9 hPa 0,0 l/m 4,4 km/h (1 Bft) O 85 0 min 0,000 mm 0,6 UV-I 112 W/m 1,2 C 1,9 C 9,7 km/h (2 Bft) 100,00 %
03.11.2015 11:46 1,8 C 95 % 1023,8 hPa 0,0 l/m 5,0 km/h (1 Bft) O-SO 111 0 min 0,000 mm 0,6 UV-I 120 W/m 1,1 C 1,8 C 6,4 km/h (2 Bft) 100,00 %
03.11.2015 11:47 1,8 C 95 % 1023,8 hPa 0,0 l/m 7,8 km/h (2 Bft) O 92 0 min 0,000 mm 0,6 UV-I 123 W/m 1,1 C 0,4 C 12,9 km/h (3 Bft) 100,00 %
03.11.2015 11:48 1,8 C 95 % 1023,8 hPa 0,0 l/m 4,7 km/h (1 Bft) O 92 0 min 0,000 mm 0,6 UV-I 126 W/m 1,1 C 1,8 C 6,4 km/h (2 Bft) 100,00 %
03.11.2015 11:49 1,8 C 95 % 1023,9 hPa 0,0 l/m 3,9 km/h (1 Bft) O-SO 119 0 min 0,000 mm 0,6 UV-I 127 W/m 1,1 C 1,8 C 6,4 km/h (2 Bft) 100,00 %
03.11.2015 11:50 1,8 C 95 % 1023,8 hPa 0,0 l/m 4,2 km/h (1 Bft) O-SO 107 0 min 0,000 mm 0,6 UV-I 129 W/m 1,1 C 1,8 C 9,7 km/h (2 Bft) 100,00 %
03.11.2015 11:51 1,9 C 95 % 1023,8 hPa 0,0 l/m 4,3 km/h (1 Bft) O 98 0 min 0,000 mm 0,6 UV-I 129 W/m 1,2 C 1,9 C 6,4 km/h (2 Bft) 100,00 %
03.11.2015 11:52 1,9 C 95 % 1023,9 hPa 0,0 l/m 3,0 km/h (1 Bft) O-SO 113 0 min 0,000 mm 0,6 UV-I 122 W/m 1,2 C 1,9 C 4,8 km/h (1 Bft) 100,00 %
03.11.2015 11:53 1,9 C 95 % 1023,8 hPa 0,0 l/m 2,9 km/h (1 Bft) O 86 0 min 0,000 mm 0,5 UV-I 116 W/m 1,2 C 1,9 C 4,8 km/h (1 Bft) 100,00 %
03.11.2015 11:54 1,9 C 95 % 1023,7 hPa 0,0 l/m 5,6 km/h (1 Bft) O-NO 75 0 min 0,000 mm 0,5 UV-I 114 W/m 1,2 C 1,9 C 8,0 km/h (2 Bft) 100,00 %
03.11.2015 11:55 1,9 C 95 % 1023,7 hPa 0,0 l/m 4,8 km/h (1 Bft) O 83 0 min 0,000 mm 0,5 UV-I 109 W/m 1,2 C 1,9 C 9,7 km/h (2 Bft) 100,00 %
03.11.2015 11:56 1,9 C 95 % 1023,7 hPa 0,0 l/m 3,2 km/h (1 Bft) O-NO 72 0 min 0,000 mm 0,5 UV-I 102 W/m 1,2 C 1,9 C 4,8 km/h (1 Bft) 100,00 %
03.11.2015 11:57 2,0 C 96 % 1023,7 hPa 0,0 l/m 4,0 km/h (1 Bft) O-NO 75 0 min 0,000 mm 0,5 UV-I 101 W/m 1,4 C 2,0 C 6,4 km/h (2 Bft) 100,00 %
03.11.2015 11:58 2,1 C 96 % 1023,7 hPa 0,0 l/m 4,5 km/h (1 Bft) O-NO 75 0 min 0,000 mm 0,5 UV-I 102 W/m 1,5 C 2,1 C 6,4 km/h (2 Bft) 96,55 %
03.11.2015 11:59 2,1 C 95 % 1023,7 hPa 0,0 l/m 3,5 km/h (1 Bft) O-SO 119 0 min 0,000 mm 0,5 UV-I 104 W/m 1,4 C 2,1 C 6,4 km/h (2 Bft) 100,00 %
03.11.2015 12:00 2,1 C 95 % 1023,7 hPa 0,0 l/m 4,0 km/h (1 Bft) O 87 0 min 0,051 mm 0,5 UV-I 102 W/m 1,4 C 2,1 C 8,0 km/h (2 Bft) 100,00 %
03.11.2015 12:02 2,2 C 95 % 1023,7 hPa 0,0 l/m 5,2 km/h (1 Bft) O 86 0 min 0,000 mm 0,6 UV-I 106 W/m 1,5 C 2,2 C 11,3 km/h (2 Bft) 98,11 %
03.11.2015 12:03 2,1 C 95 % 1023,6 hPa 0,0 l/m 4,9 km/h (1 Bft) O-NO 71 0 min 0,000 mm 0,6 UV-I 119 W/m 1,4 C 2,1 C 6,4 km/h (2 Bft) 100,00 %
03.11.2015 12:04 2,1 C 94 % 1023,6 hPa 0,0 l/m 5,3 km/h (1 Bft) O 82 0 min 0,000 mm 0,6 UV-I 120 W/m 1,2 C 2,1 C 8,0 km/h (2 Bft) 100,00 %
03.11.2015 12:05 2,1 C 94 % 1023,6 hPa 0,0 l/m 4,4 km/h (1 Bft) SO 140 0 min 0,000 mm 0,6 UV-I 121 W/m 1,2 C 2,1 C 6,4 km/h (2 Bft) 100,00 %
03.11.2015 12:06 2,1 C 95 % 1023,6 hPa 0,0 l/m 2,1 km/h (1 Bft) O-NO 64 0 min 0,000 mm 0,6 UV-I 123 W/m 1,4 C 2,1 C 3,2 km/h (1 Bft) 100,00 %
03.11.2015 12:07 2,1 C 95 % 1023,6 hPa 0,0 l/m 4,5 km/h (1 Bft) O 86 0 min 0,000 mm 0,6 UV-I 122 W/m 1,4 C 2,1 C 9,7 km/h (2 Bft) 100,00 %
03.11.2015 12:08 2,1 C 95 % 1023,6 hPa 0,0 l/m 4,2 km/h (1 Bft) O-SO 102 0 min 0,000 mm 0,6 UV-I 120 W/m 1,4 C 2,1 C 6,4 km/h (2 Bft) 100,00 %
03.11.2015 12:09 2,2 C 95 % 1023,6 hPa 0,0 l/m 2,8 km/h (1 Bft) O-NO 73 0 min 0,000 mm 0,6 UV-I 122 W/m 1,5 C 2,2 C 4,8 km/h (1 Bft) 100,00 %
03.11.2015 12:10 2,2 C 95 % 1023,6 hPa 0,0 l/m 1,5 km/h (1 Bft) O-SO 105 0 min 0,000 mm 0,6 UV-I 127 W/m 1,5 C 2,2 C 3,2 km/h (1 Bft) 100,00 %
03.11.2015 12:11 2,3 C 95 % 1023,6 hPa 0,0 l/m 4,2 km/h (1 Bft) O-SO 104 0 min 0,000 mm 0,6 UV-I 130 W/m 1,6 C 2,3 C 9,7 km/h (2 Bft) 100,00 %
03.11.2015 12:12 2,3 C 95 % 1023,6 hPa 0,0 l/m 9,1 km/h (2 Bft) O 80 0 min 0,000 mm 0,6 UV-I 130 W/m 1,6 C -0,2 C 12,9 km/h (3 Bft) 96,55 %
03.11.2015 12:13 2,3 C 94 % 1023,6 hPa 0,0 l/m 6,2 km/h (2 Bft) O 83 0 min 0,000 mm 0,6 UV-I 136 W/m 1,4 C 2,3 C 9,7 km/h (2 Bft) 95,83 %
03.11.2015 12:14 2,3 C 94 % 1023,6 hPa 0,0 l/m 6,3 km/h (2 Bft) O 96 0 min 0,000 mm 0,7 UV-I 146 W/m 1,4 C 2,3 C 11,3 km/h (2 Bft) 100,00 %
03.11.2015 12:15 2,3 C 94 % 1023,6 hPa 0,0 l/m 5,6 km/h (1 Bft) NO 38 0 min 0,000 mm 0,7 UV-I 148 W/m 1,4 C 2,3 C 9,7 km/h (2 Bft) 100,00 %
03.11.2015 12:16 2,3 C 94 % 1023,6 hPa 0,0 l/m 3,6 km/h (1 Bft) O 80 0 min 0,000 mm 0,7 UV-I 146 W/m 1,4 C 2,3 C 6,4 km/h (2 Bft) 100,00 %
03.11.2015 12:17 2,2 C 94 % 1023,6 hPa 0,0 l/m 6,0 km/h (2 Bft) O-NO 72 0 min 0,000 mm 0,7 UV-I 139 W/m 1,3 C 2,2 C 9,7 km/h (2 Bft) 100,00 %
03.11.2015 12:18 2,2 C 93 % 1023,6 hPa 0,0 l/m 5,0 km/h (1 Bft) O 88 0 min 0,000 mm 0,7 UV-I 129 W/m 1,2 C 2,2 C 8,0 km/h (2 Bft) 100,00 %
03.11.2015 12:19 2,1 C 93 % 1023,6 hPa 0,0 l/m 6,4 km/h (2 Bft) O 86 0 min 0,000 mm 0,6 UV-I 122 W/m 1,1 C 2,1 C 9,7 km/h (2 Bft) 100,00 %
03.11.2015 12:20 2,1 C 93 % 1023,6 hPa 0,0 l/m 2,7 km/h (1 Bft) O-NO 57 0 min 0,000 mm 0,6 UV-I 121 W/m 1,1 C 2,1 C 4,8 km/h (1 Bft) 100,00 %
03.11.2015 12:21 2,1 C 94 % 1023,6 hPa 0,0 l/m 2,0 km/h (1 Bft) O-NO 75 0 min 0,000 mm 0,7 UV-I 127 W/m 1,2 C 2,1 C 3,2 km/h (1 Bft) 95,65 %
03.11.2015 12:22 2,0 C 94 % 1023,6 hPa 0,0 l/m 2,9 km/h (1 Bft) O-NO 69 0 min 0,000 mm 0,6 UV-I 127 W/m 1,1 C 2,0 C 4,8 km/h (1 Bft) 100,00 %
03.11.2015 12:23 2,1 C 94 % 1023,6 hPa 0,0 l/m 2,2 km/h (1 Bft) O 94 0 min 0,000 mm 0,6 UV-I 124 W/m 1,2 C 2,1 C 4,8 km/h (1 Bft) 100,00 %
03.11.2015 12:24 2,1 C 94 % 1023,6 hPa 0,0 l/m 2,3 km/h (1 Bft) O 99 0 min 0,000 mm 0,6 UV-I 122 W/m 1,2 C 2,1 C 4,8 km/h (1 Bft) 100,00 %
03.11.2015 12:25 2,1 C 94 % 1023,6 hPa 0,0 l/m 2,1 km/h (1 Bft) NO 44 0 min 0,000 mm 0,6 UV-I 125 W/m 1,2 C 2,1 C 4,8 km/h (1 Bft) 92,31 %
03.11.2015 12:26 2,1 C 94 % 1023,6 hPa 0,0 l/m 2,1 km/h (1 Bft) O 80 0 min 0,000 mm 0,6 UV-I 125 W/m 1,2 C 2,1 C 4,8 km/h (1 Bft) 100,00 %
03.11.2015 12:27 2,2 C 95 % 1023,6 hPa 0,0 l/m 2,7 km/h (1 Bft) O-NO 60 0 min 0,000 mm 0,6 UV-I 123 W/m 1,5 C 2,2 C 4,8 km/h (1 Bft) 95,65 %
03.11.2015 12:28 2,2 C 94 % 1023,6 hPa 0,0 l/m 3,4 km/h (1 Bft) O-NO 69 0 min 0,000 mm 0,6 UV-I 118 W/m 1,3 C 2,2 C 4,8 km/h (1 Bft) 100,00 %
03.11.2015 12:29 2,2 C 94 % 1023,6 hPa 0,0 l/m 1,8 km/h (1 Bft) O 90 0 min 0,000 mm 0,6 UV-I 118 W/m 1,3 C 2,2 C 4,8 km/h (1 Bft) 95,65 %
03.11.2015 12:30 2,2 C 94 % 1023,6 hPa 0,0 l/m 2,1 km/h (1 Bft) NO 44 0 min 0,000 mm 0,6 UV-I 116 W/m 1,3 C 2,2 C 3,2 km/h (1 Bft) 100,00 %
03.11.2015 12:31 2,2 C 94 % 1023,6 hPa 0,0 l/m 3,7 km/h (1 Bft) N-NO 21 0 min 0,000 mm 0,6 UV-I 112 W/m 1,3 C 2,2 C 6,4 km/h (2 Bft) 100,00 %
03.11.2015 12:32 2,2 C 94 % 1023,7 hPa 0,0 l/m 4,7 km/h (1 Bft) O-NO 78 0 min 0,000 mm 0,6 UV-I 112 W/m 1,3 C 2,2 C 9,7 km/h (2 Bft) 100,00 %
03.11.2015 12:33 2,2 C 93 % 1023,6 hPa 0,0 l/m 4,2 km/h (1 Bft) O 89 0 min 0,000 mm 0,6 UV-I 114 W/m 1,2 C 2,2 C 8,0 km/h (2 Bft) 100,00 %
03.11.2015 12:34 2,2 C 93 % 1023,6 hPa 0,0 l/m 4,5 km/h (1 Bft) O-NO 77 0 min 0,000 mm 0,6 UV-I 114 W/m 1,2 C 2,2 C 8,0 km/h (2 Bft) 100,00 %
03.11.2015 12:35 2,1 C 93 % 1023,6 hPa 0,0 l/m 3,7 km/h (1 Bft) O 101 0 min 0,000 mm 0,6 UV-I 116 W/m 1,1 C 2,1 C 6,4 km/h (2 Bft) 100,00 %
03.11.2015 12:36 2,2 C 93 % 1023,6 hPa 0,0 l/m 2,7 km/h (1 Bft) O-NO 69 0 min 0,000 mm 0,6 UV-I 120 W/m 1,2 C 2,2 C 4,8 km/h (1 Bft) 100,00 %
03.11.2015 12:37 2,2 C 93 % 1023,6 hPa 0,0 l/m 2,1 km/h (1 Bft) NO 36 0 min 0,000 mm 0,6 UV-I 120 W/m 1,2 C 2,2 C 4,8 km/h (1 Bft) 100,00 %
03.11.2015 12:38 2,2 C 94 % 1023,5 hPa 0,0 l/m 2,3 km/h (1 Bft) O 96 0 min 0,000 mm 0,6 UV-I 118 W/m 1,3 C 2,2 C 3,2 km/h (1 Bft) 100,00 %
03.11.2015 12:39 2,2 C 94 % 1023,5 hPa 0,0 l/m 1,7 km/h (1 Bft) O 98 0 min 0,000 mm 0,6 UV-I 116 W/m 1,3 C 2,2 C 4,8 km/h (1 Bft) 100,00 %
03.11.2015 12:40 2,2 C 93 % 1023,4 hPa 0,0 l/m 3,8 km/h (1 Bft) NO 51 0 min 0,000 mm 0,6 UV-I 116 W/m 1,2 C 2,2 C 6,4 km/h (2 Bft) 96,15 %
03.11.2015 12:41 2,2 C 93 % 1023,5 hPa 0,0 l/m 3,2 km/h (1 Bft) O 81 0 min 0,000 mm 0,6 UV-I 114 W/m 1,2 C 2,2 C 6,4 km/h (2 Bft) 100,00 %
03.11.2015 12:42 2,2 C 93 % 1023,5 hPa 0,0 l/m 2,8 km/h (1 Bft) O 86 0 min 0,000 mm 0,6 UV-I 111 W/m 1,2 C 2,2 C 4,8 km/h (1 Bft) 100,00 %
03.11.2015 12:43 2,2 C 93 % 1023,4 hPa 0,0 l/m 3,4 km/h (1 Bft) NO 45 0 min 0,000 mm 0,6 UV-I 110 W/m 1,2 C 2,2 C 4,8 km/h (1 Bft) 100,00 %
03.11.2015 12:44 2,2 C 93 % 1023,4 hPa 0,0 l/m 1,9 km/h (1 Bft) O 85 0 min 0,000 mm 0,6 UV-I 112 W/m 1,2 C 2,2 C 4,8 km/h (1 Bft) 100,00 %
03.11.2015 12:45 2,2 C 93 % 1023,4 hPa 0,0 l/m 3,8 km/h (1 Bft) O 88 0 min 0,000 mm 0,5 UV-I 113 W/m 1,2 C 2,2 C 6,4 km/h (2 Bft) 100,00 %
03.11.2015 12:46 2,2 C 93 % 1023,4 hPa 0,0 l/m 3,4 km/h (1 Bft) O 84 0 min 0,000 mm 0,5 UV-I 113 W/m 1,2 C 2,2 C 6,4 km/h (2 Bft) 100,00 %
03.11.2015 12:47 2,2 C 94 % 1023,5 hPa 0,0 l/m 5,6 km/h (1 Bft) O 86 0 min 0,000 mm 0,5 UV-I 111 W/m 1,3 C 2,2 C 8,0 km/h (2 Bft) 100,00 %
03.11.2015 12:48 2,2 C 93 % 1023,3 hPa 0,0 l/m 2,1 km/h (1 Bft) O-NO 69 0 min 0,000 mm 0,5 UV-I 106 W/m 1,2 C 2,2 C 4,8 km/h (1 Bft) 100,00 %
03.11.2015 12:49 2,2 C 94 % 1023,4 hPa 0,0 l/m 2,0 km/h (1 Bft) NO 47 0 min 0,000 mm 0,5 UV-I 101 W/m 1,3 C 2,2 C 3,2 km/h (1 Bft) 100,00 %
03.11.2015 12:50 2,2 C 94 % 1023,3 hPa 0,0 l/m 0,7 km/h (0 Bft) NO 48 0 min 0,000 mm 0,5 UV-I 98 W/m 1,3 C 2,2 C 3,2 km/h (1 Bft) 100,00 %
03.11.2015 12:51 2,3 C 95 % 1023,3 hPa 0,0 l/m 4,7 km/h (1 Bft) O 86 0 min 0,000 mm 0,5 UV-I 100 W/m 1,6 C 2,3 C 11,3 km/h (2 Bft) 100,00 %
03.11.2015 12:52 2,3 C 94 % 1023,3 hPa 0,0 l/m 2,4 km/h (1 Bft) O-NO 67 0 min 0,000 mm 0,5 UV-I 102 W/m 1,4 C 2,3 C 4,8 km/h (1 Bft) 100,00 %
03.11.2015 12:53 2,3 C 94 % 1023,3 hPa 0,0 l/m 3,2 km/h (1 Bft) O 88 0 min 0,000 mm 0,5 UV-I 106 W/m 1,4 C 2,3 C 4,8 km/h (1 Bft) 100,00 %
03.11.2015 12:54 2,4 C 94 % 1023,3 hPa 0,0 l/m 5,5 km/h (1 Bft) O 85 0 min 0,000 mm 0,5 UV-I 108 W/m 1,5 C 2,4 C 11,3 km/h (2 Bft) 100,00 %
03.11.2015 12:55 2,4 C 94 % 1023,3 hPa 0,0 l/m 3,0 km/h (1 Bft) O 88 0 min 0,000 mm 0,5 UV-I 105 W/m 1,5 C 2,4 C 6,4 km/h (2 Bft) 100,00 %
03.11.2015 12:56 2,3 C 94 % 1023,3 hPa 0,0 l/m 2,8 km/h (1 Bft) O-NO 74 0 min 0,000 mm 0,5 UV-I 108 W/m 1,4 C 2,3 C 4,8 km/h (1 Bft) 100,00 %
03.11.2015 12:57 2,4 C 94 % 1023,3 hPa 0,0 l/m 1,9 km/h (1 Bft) O 90 0 min 0,000 mm 0,5 UV-I 114 W/m 1,5 C 2,4 C 3,2 km/h (1 Bft) 100,00 %
03.11.2015 12:58 2,4 C 94 % 1023,3 hPa 0,0 l/m 4,3 km/h (1 Bft) O-SO 115 0 min 0,000 mm 0,5 UV-I 113 W/m 1,5 C 2,4 C 6,4 km/h (2 Bft) 100,00 %
03.11.2015 12:59 2,4 C 94 % 1023,2 hPa 0,0 l/m 4,3 km/h (1 Bft) O 91 0 min 0,000 mm 0,5 UV-I 108 W/m 1,5 C 2,4 C 6,4 km/h (2 Bft) 100,00 %
03.11.2015 13:00 2,4 C 94 % 1023,2 hPa 0,0 l/m 4,8 km/h (1 Bft) O-NO 71 0 min 0,000 mm 0,5 UV-I 108 W/m 1,5 C 2,4 C 11,3 km/h (2 Bft) 100,00 %
03.11.2015 13:01 2,4 C 94 % 1023,2 hPa 0,0 l/m 4,5 km/h (1 Bft) O-NO 65 0 min 0,051 mm 0,5 UV-I 106 W/m 1,5 C 2,4 C 9,7 km/h (2 Bft) 100,00 %
03.11.2015 13:02 2,4 C 94 % 1023,2 hPa 0,0 l/m 5,0 km/h (1 Bft) NO 55 0 min 0,000 mm 0,5 UV-I 104 W/m 1,5 C 2,4 C 8,0 km/h (2 Bft) 100,00 %
03.11.2015 13:03 2,4 C 94 % 1023,2 hPa 0,0 l/m 5,2 km/h (1 Bft) O 83 0 min 0,000 mm 0,5 UV-I 105 W/m 1,5 C 2,4 C 8,0 km/h (2 Bft) 100,00 %
03.11.2015 13:04 2,4 C 94 % 1023,3 hPa 0,0 l/m 5,0 km/h (1 Bft) O 85 0 min 0,000 mm 0,5 UV-I 106 W/m 1,5 C 2,4 C 11,3 km/h (2 Bft) 100,00 %
03.11.2015 13:05 2,4 C 94 % 1023,3 hPa 0,0 l/m 7,4 km/h (2 Bft) O-NO 77 0 min 0,000 mm 0,5 UV-I 105 W/m 1,5 C 1,4 C 11,3 km/h (2 Bft) 96,15 %
03.11.2015 13:06 2,4 C 94 % 1023,3 hPa 0,0 l/m 8,4 km/h (2 Bft) O-NO 67 0 min 0,000 mm 0,5 UV-I 106 W/m 1,5 C 0,5 C 12,9 km/h (3 Bft) 100,00 %
03.11.2015 13:07 2,4 C 94 % 1023,2 hPa 0,0 l/m 6,8 km/h (2 Bft) O-SO 113 0 min 0,000 mm 0,5 UV-I 107 W/m 1,5 C 2,0 C 11,3 km/h (2 Bft) 95,65 %
03.11.2015 13:08 2,3 C 93 % 1023,3 hPa 0,0 l/m 8,3 km/h (2 Bft) O-SO 110 0 min 0,000 mm 0,5 UV-I 107 W/m 1,3 C 0,5 C 12,9 km/h (3 Bft) 100,00 %
03.11.2015 13:09 2,3 C 93 % 1023,2 hPa 0,0 l/m 5,5 km/h (1 Bft) SO 132 0 min 0,000 mm 0,5 UV-I 107 W/m 1,3 C 2,3 C 9,7 km/h (2 Bft) 100,00 %
03.11.2015 13:10 2,3 C 93 % 1023,3 hPa 0,0 l/m 7,0 km/h (2 Bft) O-NO 58 0 min 0,000 mm 0,5 UV-I 106 W/m 1,3 C 1,7 C 12,9 km/h (3 Bft) 100,00 %
03.11.2015 13:11 2,3 C 93 % 1023,2 hPa 0,0 l/m 8,7 km/h (2 Bft) O-NO 78 0 min 0,000 mm 0,6 UV-I 110 W/m 1,3 C 0,1 C 14,5 km/h (3 Bft) 100,00 %
03.11.2015 13:12 2,3 C 93 % 1023,2 hPa 0,0 l/m 9,9 km/h (2 Bft) O-NO 71 0 min 0,000 mm 0,6 UV-I 115 W/m 1,3 C -0,8 C 12,9 km/h (3 Bft) 100,00 %
03.11.2015 13:13 2,2 C 93 % 1023,3 hPa 0,0 l/m 11,7 km/h (2 Bft) O-NO 69 0 min 0,000 mm 0,6 UV-I 117 W/m 1,2 C -2,3 C 17,7 km/h (3 Bft) 100,00 %
03.11.2015 13:14 2,2 C 93 % 1023,3 hPa 0,0 l/m 5,4 km/h (1 Bft) O 86 0 min 0,000 mm 0,6 UV-I 124 W/m 1,2 C 2,2 C 11,3 km/h (2 Bft) 100,00 %
03.11.2015 13:15 2,1 C 93 % 1023,3 hPa 0,0 l/m 7,8 km/h (2 Bft) O 86 0 min 0,000 mm 0,6 UV-I 136 W/m 1,1 C 0,7 C 14,5 km/h (3 Bft) 100,00 %
03.11.2015 13:16 2,1 C 93 % 1023,2 hPa 0,0 l/m 6,8 km/h (2 Bft) O-NO 78 0 min 0,000 mm 0,6 UV-I 146 W/m 1,1 C 1,7 C 11,3 km/h (2 Bft) 100,00 %
03.11.2015 13:17 2,1 C 93 % 1023,2 hPa 0,0 l/m 4,4 km/h (1 Bft) O-SO 104 0 min 0,000 mm 0,6 UV-I 144 W/m 1,1 C 2,1 C 6,4 km/h (2 Bft) 100,00 %
03.11.2015 13:18 2,1 C 94 % 1023,2 hPa 0,0 l/m 4,7 km/h (1 Bft) O 98 0 min 0,000 mm 0,6 UV-I 139 W/m 1,2 C 2,1 C 6,4 km/h (2 Bft) 96,15 %
03.11.2015 13:19 2,2 C 94 % 1023,2 hPa 0,0 l/m 4,6 km/h (1 Bft) O-SO 112 0 min 0,000 mm 0,6 UV-I 140 W/m 1,3 C 2,2 C 8,0 km/h (2 Bft) 100,00 %
03.11.2015 13:20 2,2 C 94 % 1023,2 hPa 0,0 l/m 5,2 km/h (1 Bft) O 91 0 min 0,000 mm 0,6 UV-I 145 W/m 1,3 C 2,2 C 6,4 km/h (2 Bft) 100,00 %
03.11.2015 13:21 2,2 C 94 % 1023,2 hPa 0,0 l/m 7,2 km/h (2 Bft) O 90 0 min 0,000 mm 0,6 UV-I 142 W/m 1,3 C 1,4 C 12,9 km/h (3 Bft) 100,00 %
03.11.2015 13:22 2,2 C 94 % 1023,1 hPa 0,0 l/m 4,8 km/h (1 Bft) O 82 0 min 0,000 mm 0,6 UV-I 126 W/m 1,3 C 2,2 C 8,0 km/h (2 Bft) 100,00 %
03.11.2015 13:23 2,2 C 93 % 1023,1 hPa 0,0 l/m 4,4 km/h (1 Bft) O-SO 107 0 min 0,000 mm 0,5 UV-I 120 W/m 1,2 C 2,2 C 6,4 km/h (2 Bft) 100,00 %
03.11.2015 13:24 2,2 C 94 % 1023,2 hPa 0,0 l/m 4,6 km/h (1 Bft) O 101 0 min 0,000 mm 0,6 UV-I 119 W/m 1,3 C 2,2 C 8,0 km/h (2 Bft) 100,00 %
03.11.2015 13:25 2,2 C 94 % 1023,1 hPa 0,0 l/m 6,6 km/h (2 Bft) O 97 0 min 0,000 mm 0,6 UV-I 124 W/m 1,3 C 2,0 C 11,3 km/h (2 Bft) 100,00 %
03.11.2015 13:26 2,2 C 93 % 1023,1 hPa 0,0 l/m 4,9 km/h (1 Bft) O 99 0 min 0,000 mm 0,6 UV-I 127 W/m 1,2 C 2,2 C 6,4 km/h (2 Bft) 100,00 %
03.11.2015 13:27 2,2 C 94 % 1023,1 hPa 0,0 l/m 6,4 km/h (2 Bft) O-NO 74 0 min 0,000 mm 0,5 UV-I 124 W/m 1,3 C 2,2 C 9,7 km/h (2 Bft) 100,00 %
03.11.2015 13:28 2,2 C 94 % 1023,1 hPa 0,0 l/m 6,8 km/h (2 Bft) O-NO 72 0 min 0,000 mm 0,5 UV-I 120 W/m 1,3 C 1,8 C 8,0 km/h (2 Bft) 95,83 %
03.11.2015 13:29 2,2 C 94 % 1023,1 hPa 0,0 l/m 6,0 km/h (2 Bft) O 89 0 min 0,000 mm 0,5 UV-I 115 W/m 1,3 C 2,2 C 8,0 km/h (2 Bft) 100,00 %
03.11.2015 13:30 2,2 C 93 % 1023,1 hPa 0,0 l/m 3,6 km/h (1 Bft) O-NO 76 0 min 0,000 mm 0,5 UV-I 111 W/m 1,2 C 2,2 C 6,4 km/h (2 Bft) 100,00 %
03.11.2015 13:31 2,2 C 94 % 1023,0 hPa 0,0 l/m 5,4 km/h (1 Bft) O-NO 65 0 min 0,000 mm 0,5 UV-I 106 W/m 1,3 C 2,2 C 11,3 km/h (2 Bft) 100,00 %
03.11.2015 13:32 2,2 C 94 % 1023,0 hPa 0,0 l/m 6,2 km/h (2 Bft) O 93 0 min 0,000 mm 0,5 UV-I 107 W/m 1,3 C 2,2 C 11,3 km/h (2 Bft) 100,00 %
03.11.2015 13:33 2,2 C 94 % 1023,0 hPa 0,0 l/m 7,2 km/h (2 Bft) O 91 0 min 0,000 mm 0,5 UV-I 109 W/m 1,3 C 1,4 C 11,3 km/h (2 Bft) 100,00 %
03.11.2015 13:34 2,2 C 94 % 1023,0 hPa 0,0 l/m 6,8 km/h (2 Bft) O-NO 67 0 min 0,000 mm 0,5 UV-I 112 W/m 1,3 C 1,8 C 9,7 km/h (2 Bft) 100,00 %
03.11.2015 13:35 2,2 C 94 % 1022,9 hPa 0,0 l/m 6,8 km/h (2 Bft) O-NO 78 0 min 0,000 mm 0,5 UV-I 114 W/m 1,3 C 1,8 C 11,3 km/h (2 Bft) 100,00 %
03.11.2015 13:36 2,2 C 94 % 1022,9 hPa 0,0 l/m 8,2 km/h (2 Bft) O-NO 77 0 min 0,000 mm 0,5 UV-I 114 W/m 1,3 C 0,5 C 11,3 km/h (2 Bft) 100,00 %
03.11.2015 13:37 2,2 C 94 % 1022,9 hPa 0,0 l/m 6,7 km/h (2 Bft) O-NO 65 0 min 0,000 mm 0,5 UV-I 116 W/m 1,3 C 1,9 C 9,7 km/h (2 Bft) 100,00 %
03.11.2015 13:38 2,2 C 94 % 1022,9 hPa 0,0 l/m 6,8 km/h (2 Bft) NO 46 0 min 0,000 mm 0,5 UV-I 116 W/m 1,3 C 1,8 C 12,9 km/h (3 Bft) 100,00 %
03.11.2015 13:39 2,2 C 94 % 1022,9 hPa 0,0 l/m 6,4 km/h (2 Bft) O 81 0 min 0,000 mm 0,5 UV-I 113 W/m 1,3 C 2,2 C 9,7 km/h (2 Bft) 100,00 %
03.11.2015 13:40 2,2 C 94 % 1022,9 hPa 0,0 l/m 6,4 km/h (2 Bft) O 94 0 min 0,000 mm 0,5 UV-I 114 W/m 1,3 C 2,2 C 9,7 km/h (2 Bft) 100,00 %
03.11.2015 13:41 2,2 C 94 % 1022,9 hPa 0,0 l/m 6,3 km/h (2 Bft) O-NO 65 0 min 0,000 mm 0,5 UV-I 117 W/m 1,3 C 2,2 C 9,7 km/h (2 Bft) 100,00 %
03.11.2015 13:42 2,3 C 94 % 1022,9 hPa 0,0 l/m 6,6 km/h (2 Bft) O-NO 71 0 min 0,000 mm 0,5 UV-I 123 W/m 1,4 C 2,1 C 12,9 km/h (3 Bft) 95,83 %
03.11.2015 13:43 2,3 C 94 % 1022,9 hPa 0,0 l/m 5,3 km/h (1 Bft) O-SO 120 0 min 0,000 mm 0,5 UV-I 129 W/m 1,4 C 2,3 C 11,3 km/h (2 Bft) 100,00 %
03.11.2015 13:44 2,3 C 94 % 1022,8 hPa 0,0 l/m 5,6 km/h (1 Bft) O-SO 110 0 min 0,000 mm 0,5 UV-I 114 W/m 1,4 C 2,3 C 8,0 km/h (2 Bft) 100,00 %
03.11.2015 13:45 2,3 C 94 % 1022,8 hPa 0,0 l/m 5,2 km/h (1 Bft) O-SO 105 0 min 0,000 mm 0,5 UV-I 100 W/m 1,4 C 2,3 C 8,0 km/h (2 Bft) 96,15 %
03.11.2015 13:46 2,3 C 94 % 1022,9 hPa 0,0 l/m 5,4 km/h (1 Bft) O-NO 59 0 min 0,000 mm 0,1 UV-I 94 W/m 1,4 C 2,3 C 8,0 km/h (2 Bft) 100,00 %
03.11.2015 13:47 2,3 C 94 % 1022,9 hPa 0,0 l/m 4,3 km/h (1 Bft) O 88 0 min 0,000 mm 0,5 UV-I 98 W/m 1,4 C 2,3 C 6,4 km/h (2 Bft) 100,00 %
03.11.2015 13:48 2,3 C 94 % 1022,9 hPa 0,0 l/m 4,9 km/h (1 Bft) O 98 0 min 0,000 mm 0,5 UV-I 100 W/m 1,4 C 2,3 C 8,0 km/h (2 Bft) 100,00 %
03.11.2015 13:49 2,3 C 94 % 1022,9 hPa 0,0 l/m 6,5 km/h (2 Bft) O 80 0 min 0,000 mm 0,2 UV-I 100 W/m 1,4 C 2,2 C 11,3 km/h (2 Bft) 100,00 %
03.11.2015 13:50 2,3 C 94 % 1022,9 hPa 0,0 l/m 5,4 km/h (1 Bft) O-NO 63 0 min 0,000 mm 0,0 UV-I 98 W/m 1,4 C 2,3 C 6,4 km/h (2 Bft) 100,00 %
03.11.2015 13:51 2,3 C 94 % 1022,9 hPa 0,0 l/m 3,9 km/h (1 Bft) NO 54 0 min 0,000 mm 0,0 UV-I 95 W/m 1,4 C 2,3 C 6,4 km/h (2 Bft) 100,00 %
03.11.2015 13:52 2,3 C 94 % 1022,9 hPa 0,0 l/m 6,3 km/h (2 Bft) O 94 0 min 0,000 mm 0,0 UV-I 94 W/m 1,4 C 2,3 C 11,3 km/h (2 Bft) 100,00 %
03.11.2015 13:53 2,3 C 94 % 1022,8 hPa 0,0 l/m 8,0 km/h (2 Bft) O-NO 70 0 min 0,000 mm 0,0 UV-I 92 W/m 1,4 C 0,8 C 12,9 km/h (3 Bft) 100,00 %
03.11.2015 13:54 2,3 C 94 % 1022,9 hPa 0,0 l/m 9,9 km/h (2 Bft) O-NO 72 0 min 0,000 mm 0,0 UV-I 89 W/m 1,4 C -0,8 C 16,1 km/h (3 Bft) 100,00 %
03.11.2015 13:55 2,3 C 94 % 1022,9 hPa 0,0 l/m 8,6 km/h (2 Bft) O 84 0 min 0,000 mm 0,0 UV-I 90 W/m 1,4 C 0,2 C 14,5 km/h (3 Bft) 100,00 %
03.11.2015 13:56 2,3 C 94 % 1022,9 hPa 0,0 l/m 8,1 km/h (2 Bft) O 96 0 min 0,000 mm 0,0 UV-I 98 W/m 1,4 C 0,7 C 12,9 km/h (3 Bft) 100,00 %
03.11.2015 13:57 2,2 C 93 % 1022,9 hPa 0,0 l/m 4,7 km/h (1 Bft) O-NO 74 0 min 0,000 mm 0,0 UV-I 105 W/m 1,2 C 2,2 C 6,4 km/h (2 Bft) 100,00 %
03.11.2015 13:58 2,2 C 93 % 1022,9 hPa 0,0 l/m 4,4 km/h (1 Bft) O 91 0 min 0,000 mm 0,0 UV-I 98 W/m 1,2 C 2,2 C 6,4 km/h (2 Bft) 100,00 %
03.11.2015 13:59 2,2 C 94 % 1022,9 hPa 0,0 l/m 5,6 km/h (1 Bft) O 92 0 min 0,000 mm 0,0 UV-I 91 W/m 1,3 C 2,2 C 9,7 km/h (2 Bft) 100,00 %
03.11.2015 14:00 2,2 C 94 % 1022,9 hPa 0,0 l/m 6,2 km/h (2 Bft) O 90 0 min 0,051 mm 0,0 UV-I 91 W/m 1,3 C 2,2 C 11,3 km/h (2 Bft) 100,00 %
03.11.2015 14:01 2,2 C 94 % 1022,9 hPa 0,0 l/m 5,1 km/h (1 Bft) O-NO 74 0 min 0,000 mm 0,0 UV-I 91 W/m 1,3 C 2,2 C 6,4 km/h (2 Bft) 100,00 %
03.11.2015 14:02 2,3 C 94 % 1022,8 hPa 0,0 l/m 6,0 km/h (2 Bft) O-NO 78 0 min 0,000 mm 0,0 UV-I 94 W/m 1,4 C 2,3 C 11,3 km/h (2 Bft) 100,00 %
03.11.2015 14:03 2,3 C 94 % 1022,8 hPa 0,0 l/m 7,6 km/h (2 Bft) O 86 0 min 0,000 mm 0,0 UV-I 106 W/m 1,4 C 1,1 C 12,9 km/h (3 Bft) 100,00 %
03.11.2015 14:04 2,3 C 94 % 1022,8 hPa 0,0 l/m 4,6 km/h (1 Bft) O-SO 111 0 min 0,000 mm 0,0 UV-I 114 W/m 1,4 C 2,3 C 6,4 km/h (2 Bft) 100,00 %
03.11.2015 14:05 2,3 C 94 % 1022,8 hPa 0,0 l/m 3,3 km/h (1 Bft) O-SO 113 0 min 0,000 mm 0,0 UV-I 106 W/m 1,4 C 2,3 C 6,4 km/h (2 Bft) 100,00 %
03.11.2015 14:06 2,3 C 94 % 1022,8 hPa 0,0 l/m 4,3 km/h (1 Bft) O-NO 71 0 min 0,000 mm 0,0 UV-I 98 W/m 1,4 C 2,3 C 6,4 km/h (2 Bft) 100,00 %
03.11.2015 14:07 2,4 C 93 % 1022,8 hPa 0,0 l/m 4,0 km/h (1 Bft) O-NO 77 0 min 0,000 mm 0,0 UV-I 97 W/m 1,4 C 2,4 C 4,8 km/h (1 Bft) 100,00 %
03.11.2015 14:08 2,4 C 93 % 1022,8 hPa 0,0 l/m 5,1 km/h (1 Bft) O 101 0 min 0,000 mm 0,0 UV-I 97 W/m 1,4 C 2,4 C 11,3 km/h (2 Bft) 96,15 %
03.11.2015 14:09 2,3 C 93 % 1022,8 hPa 0,0 l/m 4,8 km/h (1 Bft) O-NO 57 0 min 0,000 mm 0,0 UV-I 94 W/m 1,3 C 2,3 C 6,4 km/h (2 Bft) 100,00 %
03.11.2015 14:10 2,4 C 93 % 1022,8 hPa 0,0 l/m 6,4 km/h (2 Bft) O 94 0 min 0,000 mm 0,0 UV-I 92 W/m 1,4 C 2,4 C 11,3 km/h (2 Bft) 100,00 %
03.11.2015 14:11 2,3 C 93 % 1022,8 hPa 0,0 l/m 5,6 km/h (1 Bft) O-NO 78 0 min 0,000 mm 0,0 UV-I 88 W/m 1,3 C 2,3 C 9,7 km/h (2 Bft) 100,00 %
03.11.2015 14:12 2,3 C 94 % 1022,8 hPa 0,0 l/m 5,4 km/h (1 Bft) O 86 0 min 0,000 mm 0,0 UV-I 82 W/m 1,4 C 2,3 C 9,7 km/h (2 Bft) 100,00 %
03.11.2015 14:13 2,4 C 93 % 1022,8 hPa 0,0 l/m 7,2 km/h (2 Bft) O-NO 63 0 min 0,000 mm 0,0 UV-I 79 W/m 1,4 C 1,6 C 11,3 km/h (2 Bft) 100,00 %
03.11.2015 14:14 2,4 C 93 % 1022,8 hPa 0,0 l/m 9,0 km/h (2 Bft) O-NO 78 0 min 0,000 mm 0,0 UV-I 82 W/m 1,4 C 0,0 C 12,9 km/h (3 Bft) 95,83 %
03.11.2015 14:15 2,4 C 93 % 1022,8 hPa 0,0 l/m 7,3 km/h (2 Bft) O 87 0 min 0,000 mm 0,0 UV-I 92 W/m 1,4 C 1,5 C 12,9 km/h (3 Bft) 100,00 %
03.11.2015 14:16 2,3 C 93 % 1022,8 hPa 0,0 l/m 8,2 km/h (2 Bft) O-NO 59 0 min 0,000 mm 0,0 UV-I 100 W/m 1,3 C 0,6 C 12,9 km/h (3 Bft) 100,00 %
03.11.2015 14:17 2,3 C 93 % 1022,8 hPa 0,0 l/m 4,7 km/h (1 Bft) O 98 0 min 0,000 mm 0,0 UV-I 93 W/m 1,3 C 2,3 C 6,4 km/h (2 Bft) 100,00 %
03.11.2015 14:18 2,3 C 93 % 1022,8 hPa 0,0 l/m 5,2 km/h (1 Bft) O-NO 69 0 min 0,000 mm 0,0 UV-I 90 W/m 1,3 C 2,3 C 6,4 km/h (2 Bft) 100,00 %
03.11.2015 14:19 2,3 C 93 % 1022,8 hPa 0,0 l/m 8,4 km/h (2 Bft) NO 41 0 min 0,000 mm 0,0 UV-I 90 W/m 1,3 C 0,4 C 12,9 km/h (3 Bft) 100,00 %
03.11.2015 14:20 2,3 C 93 % 1022,8 hPa 0,0 l/m 8,9 km/h (2 Bft) O-NO 76 0 min 0,000 mm 0,0 UV-I 94 W/m 1,3 C -0,0 C 12,9 km/h (3 Bft) 100,00 %
03.11.2015 14:21 2,3 C 93 % 1022,8 hPa 0,0 l/m 7,1 km/h (2 Bft) O-NO 66 0 min 0,000 mm 0,0 UV-I 102 W/m 1,3 C 1,6 C 11,3 km/h (2 Bft) 96,15 %
03.11.2015 14:22 2,3 C 93 % 1022,8 hPa 0,0 l/m 6,6 km/h (2 Bft) O-NO 64 0 min 0,000 mm 0,0 UV-I 112 W/m 1,3 C 2,1 C 9,7 km/h (2 Bft) 95,83 %
03.11.2015 14:23 2,3 C 93 % 1022,8 hPa 0,0 l/m 5,6 km/h (1 Bft) O 94 0 min 0,000 mm 0,0 UV-I 129 W/m 1,3 C 2,3 C 9,7 km/h (2 Bft) 100,00 %
03.11.2015 14:24 2,4 C 93 % 1022,7 hPa 0,0 l/m 4,8 km/h (1 Bft) O-SO 118 0 min 0,000 mm 0,0 UV-I 148 W/m 1,4 C 2,4 C 8,0 km/h (2 Bft) 100,00 %
03.11.2015 14:25 2,4 C 93 % 1022,8 hPa 0,0 l/m 2,1 km/h (1 Bft) O 88 0 min 0,000 mm 0,0 UV-I 150 W/m 1,4 C 2,4 C 4,8 km/h (1 Bft) 96,15 %
03.11.2015 14:26 2,5 C 94 % 1022,7 hPa 0,0 l/m 2,4 km/h (1 Bft) O 85 0 min 0,000 mm 0,0 UV-I 137 W/m 1,6 C 2,5 C 3,2 km/h (1 Bft) 100,00 %
03.11.2015 14:27 2,6 C 93 % 1022,7 hPa 0,0 l/m 3,6 km/h (1 Bft) O 90 0 min 0,000 mm 0,0 UV-I 114 W/m 1,6 C 2,6 C 4,8 km/h (1 Bft) 100,00 %
03.11.2015 14:28 2,6 C 93 % 1022,7 hPa 0,0 l/m 6,4 km/h (2 Bft) O 82 0 min 0,000 mm 0,0 UV-I 97 W/m 1,6 C 2,6 C 11,3 km/h (2 Bft) 95,83 %
03.11.2015 14:29 2,6 C 93 % 1022,7 hPa 0,0 l/m 6,5 km/h (2 Bft) O-NO 74 0 min 0,000 mm 0,0 UV-I 99 W/m 1,6 C 2,5 C 11,3 km/h (2 Bft) 100,00 %
03.11.2015 14:30 2,6 C 92 % 1022,7 hPa 0,0 l/m 4,8 km/h (1 Bft) O 88 0 min 0,000 mm 0,0 UV-I 102 W/m 1,4 C 2,6 C 8,0 km/h (2 Bft) 100,00 %
03.11.2015 14:31 2,5 C 93 % 1022,7 hPa 0,0 l/m 8,0 km/h (2 Bft) O 80 0 min 0,000 mm 0,0 UV-I 93 W/m 1,5 C 1,0 C 12,9 km/h (3 Bft) 100,00 %
03.11.2015 14:32 2,5 C 92 % 1022,8 hPa 0,0 l/m 7,0 km/h (2 Bft) O 80 0 min 0,000 mm 0,0 UV-I 83 W/m 1,3 C 1,9 C 12,9 km/h (3 Bft) 100,00 %
03.11.2015 14:33 2,5 C 92 % 1022,7 hPa 0,0 l/m 8,2 km/h (2 Bft) O-NO 69 0 min 0,000 mm 0,0 UV-I 82 W/m 1,3 C 0,8 C 11,3 km/h (2 Bft) 100,00 %
03.11.2015 14:34 2,4 C 92 % 1022,7 hPa 0,0 l/m 4,9 km/h (1 Bft) O 80 0 min 0,000 mm 0,0 UV-I 86 W/m 1,2 C 2,4 C 9,7 km/h (2 Bft) 100,00 %
03.11.2015 14:35 2,4 C 93 % 1022,7 hPa 0,0 l/m 3,4 km/h (1 Bft) O-NO 70 0 min 0,000 mm 0,0 UV-I 92 W/m 1,4 C 2,4 C 6,4 km/h (2 Bft) 100,00 %
03.11.2015 14:36 2,4 C 93 % 1022,7 hPa 0,0 l/m 4,4 km/h (1 Bft) O-SO 106 0 min 0,000 mm 0,0 UV-I 100 W/m 1,4 C 2,4 C 6,4 km/h (2 Bft) 96,15 %
03.11.2015 14:37 2,5 C 93 % 1022,8 hPa 0,0 l/m 4,9 km/h (1 Bft) O 89 0 min 0,000 mm 0,0 UV-I 92 W/m 1,5 C 2,5 C 6,4 km/h (2 Bft) 100,00 %
03.11.2015 14:38 2,5 C 93 % 1022,7 hPa 0,0 l/m 6,1 km/h (2 Bft) O 98 0 min 0,000 mm 0,0 UV-I 81 W/m 1,5 C 2,5 C 9,7 km/h (2 Bft) 100,00 %
03.11.2015 14:39 2,6 C 93 % 1022,7 hPa 0,0 l/m 4,5 km/h (1 Bft) O 95 0 min 0,000 mm 0,0 UV-I 77 W/m 1,6 C 2,6 C 6,4 km/h (2 Bft) 100,00 %
03.11.2015 14:40 2,6 C 93 % 1022,7 hPa 0,0 l/m 7,5 km/h (2 Bft) O 80 0 min 0,000 mm 0,0 UV-I 78 W/m 1,6 C 1,5 C 12,9 km/h (3 Bft) 96,15 %
03.11.2015 14:41 2,5 C 93 % 1022,7 hPa 0,0 l/m 9,6 km/h (2 Bft) O-NO 72 0 min 0,000 mm 0,0 UV-I 79 W/m 1,5 C -0,4 C 12,9 km/h (3 Bft) 100,00 %
03.11.2015 14:42 2,5 C 93 % 1022,7 hPa 0,0 l/m 6,7 km/h (2 Bft) O-NO 67 0 min 0,000 mm 0,0 UV-I 85 W/m 1,5 C 2,2 C 8,0 km/h (2 Bft) 100,00 %
03.11.2015 14:43 2,4 C 92 % 1022,7 hPa 0,0 l/m 7,3 km/h (2 Bft) O 96 0 min 0,000 mm 0,0 UV-I 94 W/m 1,2 C 1,5 C 11,3 km/h (2 Bft) 100,00 %
03.11.2015 14:44 2,4 C 92 % 1022,7 hPa 0,0 l/m 6,0 km/h (2 Bft) O-NO 77 0 min 0,000 mm 0,0 UV-I 97 W/m 1,2 C 2,4 C 11,3 km/h (2 Bft) 100,00 %
03.11.2015 14:45 2,4 C 93 % 1022,7 hPa 0,0 l/m 5,4 km/h (1 Bft) O-SO 104 0 min 0,000 mm 0,0 UV-I 97 W/m 1,4 C 2,4 C 9,7 km/h (2 Bft) 100,00 %
03.11.2015 14:46 2,4 C 93 % 1022,6 hPa 0,0 l/m 5,0 km/h (1 Bft) O 91 0 min 0,000 mm 0,0 UV-I 100 W/m 1,4 C 2,4 C 6,4 km/h (2 Bft) 100,00 %
03.11.2015 14:47 2,4 C 93 % 1022,6 hPa 0,0 l/m 6,5 km/h (2 Bft) O-NO 63 0 min 0,000 mm 0,0 UV-I 102 W/m 1,4 C 2,3 C 9,7 km/h (2 Bft) 96,15 %
03.11.2015 14:48 2,4 C 93 % 1022,5 hPa 0,0 l/m 4,8 km/h (1 Bft) NO 42 0 min 0,000 mm 0,0 UV-I 90 W/m 1,4 C 2,4 C 6,4 km/h (2 Bft) 100,00 %
03.11.2015 14:49 2,4 C 93 % 1022,5 hPa 0,0 l/m 6,8 km/h (2 Bft) O-NO 76 0 min 0,000 mm 0,0 UV-I 98 W/m 1,4 C 2,0 C 11,3 km/h (2 Bft) 95,65 %
03.11.2015 14:50 2,5 C 93 % 1022,5 hPa 0,0 l/m 6,8 km/h (2 Bft) O 86 0 min 0,000 mm 0,0 UV-I 99 W/m 1,5 C 2,1 C 11,3 km/h (2 Bft) 100,00 %
03.11.2015 14:51 2,5 C 93 % 1022,5 hPa 0,0 l/m 5,2 km/h (1 Bft) O-NO 67 0 min 0,000 mm 0,0 UV-I 97 W/m 1,5 C 2,5 C 9,7 km/h (2 Bft) 100,00 %
03.11.2015 14:52 2,5 C 93 % 1022,5 hPa 0,0 l/m 5,6 km/h (1 Bft) O-SO 109 0 min 0,000 mm 0,0 UV-I 103 W/m 1,5 C 2,5 C 11,3 km/h (2 Bft) 100,00 %
03.11.2015 14:53 2,6 C 93 % 1022,5 hPa 0,0 l/m 8,8 km/h (2 Bft) O 80 0 min 0,000 mm 0,0 UV-I 105 W/m 1,6 C 0,4 C 12,9 km/h (3 Bft) 100,00 %
03.11.2015 14:54 2,6 C 93 % 1022,5 hPa 0,0 l/m 9,6 km/h (2 Bft) O 90 0 min 0,000 mm 0,0 UV-I 104 W/m 1,6 C -0,3 C 12,9 km/h (3 Bft) 96,30 %
03.11.2015 14:55 2,6 C 92 % 1022,4 hPa 0,0 l/m 6,3 km/h (2 Bft) O-NO 67 0 min 0,000 mm 0,0 UV-I 94 W/m 1,4 C 2,6 C 11,3 km/h (2 Bft) 100,00 %
03.11.2015 14:56 2,6 C 93 % 1022,4 hPa 0,0 l/m 4,9 km/h (1 Bft) O-SO 105 0 min 0,000 mm 0,0 UV-I 91 W/m 1,6 C 2,6 C 6,4 km/h (2 Bft) 100,00 %
03.11.2015 14:57 2,6 C 93 % 1022,4 hPa 0,0 l/m 4,9 km/h (1 Bft) O 92 0 min 0,000 mm 0,0 UV-I 96 W/m 1,6 C 2,6 C 6,4 km/h (2 Bft) 100,00 %
03.11.2015 14:58 2,6 C 93 % 1022,5 hPa 0,0 l/m 3,9 km/h (1 Bft) O-SO 107 0 min 0,000 mm 0,0 UV-I 102 W/m 1,6 C 2,6 C 6,4 km/h (2 Bft) 100,00 %
03.11.2015 14:59 2,6 C 93 % 1022,4 hPa 0,0 l/m 4,5 km/h (1 Bft) O 84 0 min 0,000 mm 0,0 UV-I 99 W/m 1,6 C 2,6 C 11,3 km/h (2 Bft) 96,15 %
03.11.2015 15:00 2,6 C 93 % 1022,4 hPa 0,0 l/m 4,4 km/h (1 Bft) O-NO 76 0 min 0,000 mm 0,0 UV-I 85 W/m 1,6 C 2,6 C 6,4 km/h (2 Bft) 100,00 %
03.11.2015 15:01 2,6 C 93 % 1022,4 hPa 0,0 l/m 7,2 km/h (2 Bft) O 83 0 min 0,050 mm 0,0 UV-I 76 W/m 1,6 C 1,8 C 11,3 km/h (2 Bft) 96,15 %
03.11.2015 15:02 2,6 C 93 % 1022,5 hPa 0,0 l/m 5,5 km/h (1 Bft) O 94 0 min 0,000 mm 0,0 UV-I 73 W/m 1,6 C 2,6 C 9,7 km/h (2 Bft) 100,00 %
03.11.2015 15:03 2,6 C 93 % 1022,4 hPa 0,0 l/m 4,0 km/h (1 Bft) O 79 0 min 0,000 mm 0,0 UV-I 70 W/m 1,6 C 2,6 C 6,4 km/h (2 Bft) 100,00 %
03.11.2015 15:04 2,6 C 93 % 1022,4 hPa 0,0 l/m 2,9 km/h (1 Bft) O 83 0 min 0,000 mm 0,0 UV-I 70 W/m 1,6 C 2,6 C 4,8 km/h (1 Bft) 100,00 %
03.11.2015 15:05 2,7 C 93 % 1022,4 hPa 0,0 l/m 3,1 km/h (1 Bft) O 90 0 min 0,000 mm 0,0 UV-I 74 W/m 1,7 C 2,7 C 4,8 km/h (1 Bft) 100,00 %
03.11.2015 15:06 2,7 C 93 % 1022,5 hPa 0,0 l/m 3,8 km/h (1 Bft) O 94 0 min 0,000 mm 0,0 UV-I 82 W/m 1,7 C 2,7 C 6,4 km/h (2 Bft) 95,83 %
03.11.2015 15:07 2,7 C 93 % 1022,5 hPa 0,0 l/m 5,3 km/h (1 Bft) O 86 0 min 0,000 mm 0,0 UV-I 85 W/m 1,7 C 2,7 C 8,0 km/h (2 Bft) 96,00 %
03.11.2015 15:08 2,7 C 93 % 1022,4 hPa 0,0 l/m 4,2 km/h (1 Bft) O 86 0 min 0,000 mm 0,0 UV-I 91 W/m 1,7 C 2,7 C 8,0 km/h (2 Bft) 100,00 %
03.11.2015 15:09 2,7 C 93 % 1022,5 hPa 0,0 l/m 4,3 km/h (1 Bft) O 86 0 min 0,000 mm 0,0 UV-I 96 W/m 1,7 C 2,7 C 4,8 km/h (1 Bft) 100,00 %
03.11.2015 15:10 2,7 C 92 % 1022,5 hPa 0,0 l/m 3,4 km/h (1 Bft) O-NO 72 0 min 0,000 mm 0,0 UV-I 103 W/m 1,5 C 2,7 C 8,0 km/h (2 Bft) 95,83 %
03.11.2015 15:11 2,8 C 92 % 1022,4 hPa 0,0 l/m 4,5 km/h (1 Bft) O-NO 60 0 min 0,000 mm 0,0 UV-I 108 W/m 1,6 C 2,8 C 6,4 km/h (2 Bft) 100,00 %
03.11.2015 15:12 2,8 C 92 % 1022,4 hPa 0,0 l/m 2,4 km/h (1 Bft) SO 124 1 min 0,000 mm 0,0 UV-I 118 W/m 1,6 C 2,8 C 4,8 km/h (1 Bft) 100,00 %
03.11.2015 15:13 2,8 C 93 % 1022,4 hPa 0,0 l/m 2,8 km/h (1 Bft) O 96 0 min 0,000 mm 0,0 UV-I 103 W/m 1,8 C 2,8 C 4,8 km/h (1 Bft) 100,00 %
03.11.2015 15:14 2,9 C 92 % 1022,4 hPa 0,0 l/m 2,7 km/h (1 Bft) O-SO 103 0 min 0,000 mm 0,0 UV-I 95 W/m 1,7 C 2,9 C 4,8 km/h (1 Bft) 100,00 %
03.11.2015 15:15 2,9 C 92 % 1022,4 hPa 0,0 l/m 2,7 km/h (1 Bft) O 96 0 min 0,000 mm 0,0 UV-I 88 W/m 1,7 C 2,9 C 4,8 km/h (1 Bft) 100,00 %
03.11.2015 15:16 2,9 C 92 % 1022,4 hPa 0,0 l/m 3,4 km/h (1 Bft) O-SO 108 0 min 0,000 mm 0,0 UV-I 80 W/m 1,7 C 2,9 C 4,8 km/h (1 Bft) 100,00 %
03.11.2015 15:17 2,9 C 92 % 1022,4 hPa 0,0 l/m 5,6 km/h (1 Bft) O-SO 104 0 min 0,000 mm 0,0 UV-I 76 W/m 1,7 C 2,9 C 9,7 km/h (2 Bft) 100,00 %
03.11.2015 15:18 2,9 C 92 % 1022,4 hPa 0,0 l/m 4,0 km/h (1 Bft) O 98 0 min 0,000 mm 0,0 UV-I 77 W/m 1,7 C 2,9 C 4,8 km/h (1 Bft) 100,00 %
03.11.2015 15:19 2,9 C 92 % 1022,4 hPa 0,0 l/m 4,6 km/h (1 Bft) O-NO 69 0 min 0,000 mm 0,0 UV-I 73 W/m 1,7 C 2,9 C 6,4 km/h (2 Bft) 100,00 %
03.11.2015 15:20 2,9 C 92 % 1022,4 hPa 0,0 l/m 3,2 km/h (1 Bft) O-SO 103 0 min 0,000 mm 0,0 UV-I 68 W/m 1,7 C 2,9 C 6,4 km/h (2 Bft) 95,65 %
03.11.2015 15:21 2,9 C 92 % 1022,4 hPa 0,0 l/m 2,8 km/h (1 Bft) O 99 0 min 0,000 mm 0,0 UV-I 67 W/m 1,7 C 2,9 C 4,8 km/h (1 Bft) 95,83 %
03.11.2015 15:22 2,9 C 92 % 1022,4 hPa 0,0 l/m 2,9 km/h (1 Bft) O 89 0 min 0,000 mm 0,0 UV-I 71 W/m 1,7 C 2,9 C 4,8 km/h (1 Bft) 100,00 %
03.11.2015 15:23 2,9 C 92 % 1022,4 hPa 0,0 l/m 4,4 km/h (1 Bft) O 90 0 min 0,000 mm 0,0 UV-I 72 W/m 1,7 C 2,9 C 9,7 km/h (2 Bft) 100,00 %
03.11.2015 15:24 2,8 C 92 % 1022,4 hPa 0,0 l/m 3,5 km/h (1 Bft) O 98 0 min 0,000 mm 0,0 UV-I 72 W/m 1,6 C 2,8 C 6,4 km/h (2 Bft) 100,00 %
03.11.2015 15:25 2,8 C 92 % 1022,4 hPa 0,0 l/m 3,8 km/h (1 Bft) O 85 0 min 0,000 mm 0,0 UV-I 71 W/m 1,6 C 2,8 C 4,8 km/h (1 Bft) 100,00 %
03.11.2015 15:26 2,8 C 92 % 1022,4 hPa 0,0 l/m 5,1 km/h (1 Bft) O 101 0 min 0,000 mm 0,0 UV-I 69 W/m 1,6 C 2,8 C 9,7 km/h (2 Bft) 100,00 %
03.11.2015 15:27 2,8 C 92 % 1022,3 hPa 0,0 l/m 4,2 km/h (1 Bft) O 87 0 min 0,000 mm 0,0 UV-I 67 W/m 1,6 C 2,8 C 6,4 km/h (2 Bft) 100,00 %
03.11.2015 15:28 2,8 C 92 % 1022,3 hPa 0,0 l/m 3,8 km/h (1 Bft) O-SO 114 0 min 0,000 mm 0,0 UV-I 65 W/m 1,6 C 2,8 C 4,8 km/h (1 Bft) 100,00 %
03.11.2015 15:29 2,8 C 92 % 1022,3 hPa 0,0 l/m 3,6 km/h (1 Bft) SO 127 0 min 0,000 mm 0,0 UV-I 69 W/m 1,6 C 2,8 C 4,8 km/h (1 Bft) 100,00 %
03.11.2015 15:30 2,7 C 92 % 1022,3 hPa 0,0 l/m 3,2 km/h (1 Bft) O-SO 106 0 min 0,000 mm 0,0 UV-I 70 W/m 1,5 C 2,7 C 4,8 km/h (1 Bft) 100,00 %
03.11.2015 15:31 2,8 C 93 % 1022,3 hPa 0,0 l/m 3,0 km/h (1 Bft) O 98 0 min 0,000 mm 0,0 UV-I 72 W/m 1,8 C 2,8 C 4,8 km/h (1 Bft) 100,00 %
03.11.2015 15:32 2,8 C 93 % 1022,3 hPa 0,0 l/m 2,3 km/h (1 Bft) O 98 0 min 0,000 mm 0,0 UV-I 71 W/m 1,8 C 2,8 C 3,2 km/h (1 Bft) 100,00 %
03.11.2015 15:33 2,8 C 92 % 1022,2 hPa 0,0 l/m 2,7 km/h (1 Bft) O 99 0 min 0,000 mm 0,0 UV-I 69 W/m 1,6 C 2,8 C 4,8 km/h (1 Bft) 100,00 %
03.11.2015 15:34 2,8 C 92 % 1022,2 hPa 0,0 l/m 3,4 km/h (1 Bft) O 88 0 min 0,000 mm 0,0 UV-I 68 W/m 1,6 C 2,8 C 6,4 km/h (2 Bft) 100,00 %
03.11.2015 15:35 2,8 C 92 % 1022,3 hPa 0,0 l/m 2,4 km/h (1 Bft) O 80 0 min 0,000 mm 0,0 UV-I 70 W/m 1,6 C 2,8 C 4,8 km/h (1 Bft) 96,00 %
03.11.2015 15:36 2,8 C 92 % 1022,3 hPa 0,0 l/m 2,7 km/h (1 Bft) O 96 0 min 0,000 mm 0,0 UV-I 69 W/m 1,6 C 2,8 C 4,8 km/h (1 Bft) 100,00 %
03.11.2015 15:37 2,8 C 93 % 1022,3 hPa 0,0 l/m 2,3 km/h (1 Bft) O 82 0 min 0,000 mm 0,0 UV-I 69 W/m 1,8 C 2,8 C 4,8 km/h (1 Bft) 100,00 %
03.11.2015 15:38 2,8 C 92 % 1022,3 hPa 0,0 l/m 2,0 km/h (1 Bft) O 89 0 min 0,000 mm 0,0 UV-I 74 W/m 1,6 C 2,8 C 3,2 km/h (1 Bft) 100,00 %
03.11.2015 15:39 2,8 C 92 % 1022,3 hPa 0,0 l/m 1,5 km/h (1 Bft) O 89 0 min 0,000 mm 0,0 UV-I 77 W/m 1,6 C 2,8 C 3,2 km/h (1 Bft) 100,00 %
03.11.2015 15:40 2,8 C 93 % 1022,3 hPa 0,0 l/m 1,4 km/h (1 Bft) O 89 1 min 0,000 mm 0,0 UV-I 89 W/m 1,8 C 2,8 C 3,2 km/h (1 Bft) 100,00 %
03.11.2015 15:41 2,8 C 93 % 1022,3 hPa 0,0 l/m 1,0 km/h (0 Bft) O 89 1 min 0,000 mm 0,0 UV-I 84 W/m 1,8 C 2,8 C 1,6 km/h (1 Bft) 90,91 %
03.11.2015 15:42 2,8 C 93 % 1022,3 hPa 0,0 l/m 1,3 km/h (1 Bft) O-NO 77 0 min 0,000 mm 0,0 UV-I 78 W/m 1,8 C 2,8 C 3,2 km/h (1 Bft) 96,30 %
03.11.2015 15:43 2,8 C 93 % 1022,4 hPa 0,0 l/m 1,3 km/h (1 Bft) O-NO 77 1 min 0,000 mm 0,0 UV-I 87 W/m 1,8 C 2,8 C 1,6 km/h (1 Bft) 100,00 %
03.11.2015 15:44 2,8 C 93 % 1022,3 hPa 0,0 l/m 2,5 km/h (1 Bft) O 98 1 min 0,000 mm 0,0 UV-I 86 W/m 1,8 C 2,8 C 4,8 km/h (1 Bft) 100,00 %
03.11.2015 15:45 2,9 C 93 % 1022,3 hPa 0,0 l/m 1,9 km/h (1 Bft) NO 55 1 min 0,000 mm 0,0 UV-I 77 W/m 1,9 C 2,9 C 3,2 km/h (1 Bft) 93,33 %
03.11.2015 15:46 2,9 C 93 % 1022,3 hPa 0,0 l/m 2,9 km/h (1 Bft) O 80 1 min 0,000 mm 0,0 UV-I 74 W/m 1,9 C 2,9 C 4,8 km/h (1 Bft) 96,15 %
03.11.2015 15:47 2,9 C 93 % 1022,4 hPa 0,0 l/m 2,4 km/h (1 Bft) N-NO 32 1 min 0,000 mm 0,0 UV-I 75 W/m 1,9 C 2,9 C 4,8 km/h (1 Bft) 95,83 %
03.11.2015 15:48 2,9 C 93 % 1022,3 hPa 0,0 l/m 2,5 km/h (1 Bft) O 90 0 min 0,000 mm 0,0 UV-I 63 W/m 1,9 C 2,9 C 4,8 km/h (1 Bft) 95,65 %
03.11.2015 15:49 2,9 C 93 % 1022,4 hPa 0,0 l/m 4,6 km/h (1 Bft) O 82 0 min 0,000 mm 0,0 UV-I 63 W/m 1,9 C 2,9 C 6,4 km/h (2 Bft) 100,00 %
03.11.2015 15:50 2,9 C 92 % 1022,3 hPa 0,0 l/m 4,8 km/h (1 Bft) O-NO 73 0 min 0,000 mm 0,0 UV-I 64 W/m 1,7 C 2,9 C 8,0 km/h (2 Bft) 100,00 %
03.11.2015 15:51 2,9 C 92 % 1022,3 hPa 0,0 l/m 4,2 km/h (1 Bft) O 93 0 min 0,000 mm 0,0 UV-I 62 W/m 1,7 C 2,9 C 8,0 km/h (2 Bft) 100,00 %
03.11.2015 15:52 2,9 C 92 % 1022,4 hPa 0,0 l/m 3,7 km/h (1 Bft) O-NO 78 0 min 0,000 mm 0,0 UV-I 59 W/m 1,7 C 2,9 C 6,4 km/h (2 Bft) 100,00 %
03.11.2015 15:53 2,9 C 92 % 1022,3 hPa 0,0 l/m 6,0 km/h (2 Bft) O 98 0 min 0,000 mm 0,0 UV-I 49 W/m 1,7 C 2,9 C 8,0 km/h (2 Bft) 100,00 %
03.11.2015 15:54 2,9 C 92 % 1022,3 hPa 0,0 l/m 4,8 km/h (1 Bft) O 83 0 min 0,000 mm 0,0 UV-I 46 W/m 1,7 C 2,9 C 8,0 km/h (2 Bft) 100,00 %
03.11.2015 15:55 2,9 C 92 % 1022,2 hPa 0,0 l/m 5,3 km/h (1 Bft) SO 129 0 min 0,000 mm 0,0 UV-I 40 W/m 1,7 C 2,9 C 6,4 km/h (2 Bft) 100,00 %
03.11.2015 15:56 2,9 C 92 % 1022,2 hPa 0,0 l/m 3,4 km/h (1 Bft) O 97 0 min 0,000 mm 0,0 UV-I 37 W/m 1,7 C 2,9 C 4,8 km/h (1 Bft) 94,12 %
03.11.2015 15:57 2,9 C 92 % 1022,2 hPa 0,0 l/m 3,8 km/h (1 Bft) O 88 0 min 0,000 mm 0,0 UV-I 34 W/m 1,7 C 2,9 C 4,8 km/h (1 Bft) 100,00 %
03.11.2015 15:58 2,8 C 92 % 1022,2 hPa 0,0 l/m 3,6 km/h (1 Bft) O 82 0 min 0,000 mm 0,0 UV-I 35 W/m 1,6 C 2,8 C 6,4 km/h (2 Bft) 100,00 %
03.11.2015 15:59 2,8 C 92 % 1022,3 hPa 0,0 l/m 3,2 km/h (1 Bft) O 84 0 min 0,000 mm 0,0 UV-I 35 W/m 1,6 C 2,8 C 4,8 km/h (1 Bft) 95,83 %
03.11.2015 16:00 2,8 C 92 % 1022,3 hPa 0,0 l/m 3,0 km/h (1 Bft) O 86 0 min 0,000 mm 0,0 UV-I 35 W/m 1,6 C 2,8 C 6,4 km/h (2 Bft) 100,00 %
03.11.2015 16:01 2,8 C 92 % 1022,3 hPa 0,0 l/m 5,2 km/h (1 Bft) O 90 0 min 0,026 mm 0,0 UV-I 35 W/m 1,6 C 2,8 C 8,0 km/h (2 Bft) 100,00 %
03.11.2015 16:02 2,8 C 92 % 1022,3 hPa 0,0 l/m 4,7 km/h (1 Bft) O 84 0 min 0,000 mm 0,0 UV-I 35 W/m 1,6 C 2,8 C 6,4 km/h (2 Bft) 100,00 %
03.11.2015 16:03 2,7 C 92 % 1022,3 hPa 0,0 l/m 5,4 km/h (1 Bft) O 89 0 min 0,000 mm 0,0 UV-I 36 W/m 1,5 C 2,7 C 8,0 km/h (2 Bft) 96,30 %
03.11.2015 16:04 2,7 C 92 % 1022,3 hPa 0,0 l/m 4,4 km/h (1 Bft) NO 36 0 min 0,000 mm 0,0 UV-I 35 W/m 1,5 C 2,7 C 6,4 km/h (2 Bft) 100,00 %
03.11.2015 16:05 2,7 C 92 % 1022,3 hPa 0,0 l/m 2,7 km/h (1 Bft) O 92 0 min 0,000 mm 0,0 UV-I 35 W/m 1,5 C 2,7 C 4,8 km/h (1 Bft) 95,83 %
03.11.2015 16:06 2,7 C 92 % 1022,3 hPa 0,0 l/m 2,4 km/h (1 Bft) O-NO 76 0 min 0,000 mm 0,0 UV-I 36 W/m 1,5 C 2,7 C 4,8 km/h (1 Bft) 100,00 %
03.11.2015 16:07 2,7 C 92 % 1022,3 hPa 0,0 l/m 2,4 km/h (1 Bft) O 99 0 min 0,000 mm 0,0 UV-I 35 W/m 1,5 C 2,7 C 4,8 km/h (1 Bft) 100,00 %
03.11.2015 16:08 2,7 C 93 % 1022,2 hPa 0,0 l/m 1,2 km/h (1 Bft) O 95 0 min 0,000 mm 0,0 UV-I 34 W/m 1,7 C 2,7 C 3,2 km/h (1 Bft) 100,00 %
03.11.2015 16:09 2,6 C 93 % 1022,3 hPa 0,0 l/m 2,5 km/h (1 Bft) O 93 0 min 0,000 mm 0,0 UV-I 32 W/m 1,6 C 2,6 C 3,2 km/h (1 Bft) 100,00 %
03.11.2015 16:10 2,6 C 93 % 1022,3 hPa 0,0 l/m 3,9 km/h (1 Bft) O-NO 69 0 min 0,000 mm 0,0 UV-I 30 W/m 1,6 C 2,6 C 6,4 km/h (2 Bft) 100,00 %
03.11.2015 16:11 2,6 C 93 % 1022,3 hPa 0,0 l/m 4,4 km/h (1 Bft) O 85 0 min 0,000 mm 0,0 UV-I 28 W/m 1,6 C 2,6 C 8,0 km/h (2 Bft) 96,15 %
03.11.2015 16:12 2,6 C 93 % 1022,3 hPa 0,0 l/m 4,3 km/h (1 Bft) O 84 0 min 0,000 mm 0,0 UV-I 26 W/m 1,6 C 2,6 C 8,0 km/h (2 Bft) 100,00 %
03.11.2015 16:13 2,6 C 93 % 1022,3 hPa 0,0 l/m 2,4 km/h (1 Bft) O 80 0 min 0,000 mm 0,0 UV-I 26 W/m 1,6 C 2,6 C 4,8 km/h (1 Bft) 100,00 %
03.11.2015 16:14 2,6 C 93 % 1022,3 hPa 0,0 l/m 1,0 km/h (0 Bft) O 80 0 min 0,000 mm 0,0 UV-I 25 W/m 1,6 C 2,6 C 1,6 km/h (1 Bft) 100,00 %
03.11.2015 16:15 2,6 C 93 % 1022,4 hPa 0,0 l/m 0,5 km/h (0 Bft) O 80 0 min 0,000 mm 0,0 UV-I 25 W/m 1,6 C 2,6 C 1,6 km/h (1 Bft) 100,00 %
03.11.2015 16:16 2,5 C 93 % 1022,3 hPa 0,0 l/m 1,8 km/h (1 Bft) O 80 0 min 0,000 mm 0,0 UV-I 25 W/m 1,5 C 2,5 C 3,2 km/h (1 Bft) 100,00 %
03.11.2015 16:17 2,5 C 93 % 1022,3 hPa 0,0 l/m 1,5 km/h (1 Bft) O 80 0 min 0,000 mm 0,0 UV-I 25 W/m 1,5 C 2,5 C 3,2 km/h (1 Bft) 100,00 %
03.11.2015 16:18 2,5 C 93 % 1022,3 hPa 0,0 l/m 0,6 km/h (0 Bft) O 80 0 min 0,000 mm 0,0 UV-I 23 W/m 1,5 C 2,5 C 3,2 km/h (1 Bft) 100,00 %
03.11.2015 16:19 2,4 C 93 % 1022,3 hPa 0,0 l/m 0,9 km/h (0 Bft) O 80 0 min 0,000 mm 0,0 UV-I 23 W/m 1,4 C 2,4 C 1,6 km/h (1 Bft) 100,00 %
03.11.2015 16:20 2,4 C 93 % 1022,4 hPa 0,0 l/m 0,2 km/h (0 Bft) O 80 0 min 0,000 mm 0,0 UV-I 23 W/m 1,4 C 2,4 C 1,6 km/h (1 Bft) 100,00 %
03.11.2015 16:21 2,4 C 93 % 1022,4 hPa 0,0 l/m 0,0 km/h (0 Bft) O 80 0 min 0,000 mm 0,0 UV-I 21 W/m 1,4 C 2,4 C 0,0 km/h (0 Bft) 100,00 %
03.11.2015 16:22 2,4 C 93 % 1022,4 hPa 0,0 l/m 0,6 km/h (0 Bft) NO 56 0 min 0,000 mm 0,0 UV-I 21 W/m 1,4 C 2,4 C 1,6 km/h (1 Bft) 100,00 %
03.11.2015 16:23 2,3 C 93 % 1022,4 hPa 0,0 l/m 0,7 km/h (0 Bft) O-NO 57 0 min 0,000 mm 0,0 UV-I 19 W/m 1,3 C 2,3 C 1,6 km/h (1 Bft) 100,00 %
03.11.2015 16:24 2,3 C 93 % 1022,4 hPa 0,0 l/m 0,7 km/h (0 Bft) O-NO 57 0 min 0,000 mm 0,0 UV-I 18 W/m 1,3 C 2,3 C 1,6 km/h (1 Bft) 100,00 %
03.11.2015 16:25 2,3 C 93 % 1022,4 hPa 0,0 l/m 0,6 km/h (0 Bft) O-NO 57 1 min 0,000 mm 0,0 UV-I 18 W/m 1,3 C 2,3 C 3,2 km/h (1 Bft) 100,00 %
03.11.2015 16:26 2,3 C 93 % 1022,4 hPa 0,0 l/m 0,7 km/h (0 Bft) O 80 0 min 0,000 mm 0,0 UV-I 16 W/m 1,3 C 2,3 C 3,2 km/h (1 Bft) 100,00 %
03.11.2015 16:27 2,3 C 93 % 1022,5 hPa 0,0 l/m 0,0 km/h (0 Bft) O 80 1 min 0,000 mm 0,0 UV-I 16 W/m 1,3 C 2,3 C 0,0 km/h (0 Bft) 100,00 %
03.11.2015 16:28 2,3 C 93 % 1022,4 hPa 0,0 l/m 0,4 km/h (0 Bft) O 80 1 min 0,000 mm 0,0 UV-I 14 W/m 1,3 C 2,3 C 1,6 km/h (1 Bft) 95,65 %
03.11.2015 16:29 2,3 C 94 % 1022,5 hPa 0,0 l/m 2,1 km/h (1 Bft) O 80 1 min 0,000 mm 0,0 UV-I 14 W/m 1,4 C 2,3 C 3,2 km/h (1 Bft) 100,00 %
03.11.2015 16:30 2,3 C 94 % 1022,4 hPa 0,0 l/m 1,6 km/h (1 Bft) O 80 1 min 0,000 mm 0,0 UV-I 12 W/m 1,4 C 2,3 C 3,2 km/h (1 Bft) 100,00 %
03.11.2015 16:31 2,2 C 94 % 1022,4 hPa 0,0 l/m 2,0 km/h (1 Bft) O 80 1 min 0,000 mm 0,0 UV-I 11 W/m 1,3 C 2,2 C 3,2 km/h (1 Bft) 100,00 %
03.11.2015 16:32 2,2 C 94 % 1022,4 hPa 0,0 l/m 2,9 km/h (1 Bft) O-NO 71 0 min 0,000 mm 0,0 UV-I 10 W/m 1,3 C 2,2 C 3,2 km/h (1 Bft) 96,43 %
03.11.2015 16:33 2,2 C 94 % 1022,4 hPa 0,0 l/m 3,0 km/h (1 Bft) O 96 0 min 0,000 mm 0,0 UV-I 9 W/m 1,3 C 2,2 C 4,8 km/h (1 Bft) 100,00 %
03.11.2015 16:34 2,2 C 94 % 1022,4 hPa 0,0 l/m 2,0 km/h (1 Bft) O 88 0 min 0,000 mm 0,0 UV-I 7 W/m 1,3 C 2,2 C 3,2 km/h (1 Bft) 100,00 %
03.11.2015 16:35 2,2 C 94 % 1022,3 hPa 0,0 l/m 1,9 km/h (1 Bft) O 88 0 min 0,000 mm 0,0 UV-I 7 W/m 1,3 C 2,2 C 3,2 km/h (1 Bft) 100,00 %
03.11.2015 16:36 2,1 C 94 % 1022,4 hPa 0,0 l/m 1,3 km/h (1 Bft) O 88 0 min 0,000 mm 0,0 UV-I 7 W/m 1,2 C 2,1 C 1,6 km/h (1 Bft) 88,46 %
03.11.2015 16:37 2,1 C 94 % 1022,4 hPa 0,0 l/m 0,5 km/h (0 Bft) O 88 0 min 0,000 mm 0,0 UV-I 7 W/m 1,2 C 2,1 C 1,6 km/h (1 Bft) 100,00 %
03.11.2015 16:38 2,1 C 94 % 1022,4 hPa 0,0 l/m 0,5 km/h (0 Bft) O 88 0 min 0,000 mm 0,0 UV-I 5 W/m 1,2 C 2,1 C 1,6 km/h (1 Bft) 100,00 %
03.11.2015 16:39 2,1 C 94 % 1022,4 hPa 0,0 l/m 2,1 km/h (1 Bft) O-NO 63 0 min 0,000 mm 0,0 UV-I 5 W/m 1,2 C 2,1 C 4,8 km/h (1 Bft) 100,00 %
03.11.2015 16:40 2,0 C 94 % 1022,4 hPa 0,0 l/m 0,3 km/h (0 Bft) O-NO 63 0 min 0,000 mm 0,0 UV-I 5 W/m 1,1 C 2,0 C 1,6 km/h (1 Bft) 100,00 %
03.11.2015 16:41 1,9 C 94 % 1022,4 hPa 0,0 l/m 0,5 km/h (0 Bft) O-NO 63 0 min 0,000 mm 0,0 UV-I 5 W/m 1,0 C 1,9 C 1,6 km/h (1 Bft) 95,83 %
03.11.2015 16:42 1,9 C 94 % 1022,4 hPa 0,0 l/m 0,0 km/h (0 Bft) O-NO 63 0 min 0,000 mm 0,0 UV-I 5 W/m 1,0 C 1,9 C 0,0 km/h (0 Bft) 95,65 %
03.11.2015 16:43 1,9 C 94 % 1022,4 hPa 0,0 l/m 0,0 km/h (0 Bft) O-NO 63 0 min 0,000 mm 0,0 UV-I 2 W/m 1,0 C 1,9 C 0,0 km/h (0 Bft) 100,00 %
03.11.2015 16:44 1,9 C 94 % 1022,4 hPa 0,0 l/m 0,1 km/h (0 Bft) O-NO 63 0 min 0,000 mm 0,0 UV-I 0 W/m 1,0 C 1,9 C 1,6 km/h (1 Bft) 100,00 %
03.11.2015 16:45 1,9 C 94 % 1022,3 hPa 0,0 l/m 0,3 km/h (0 Bft) O-NO 63 0 min 0,000 mm 0,0 UV-I 0 W/m 1,0 C 1,9 C 1,6 km/h (1 Bft) 100,00 %
03.11.2015 16:46 1,8 C 94 % 1022,2 hPa 0,0 l/m 0,2 km/h (0 Bft) O-NO 63 0 min 0,000 mm 0,0 UV-I 0 W/m 0,9 C 1,8 C 1,6 km/h (1 Bft) 100,00 %
03.11.2015 16:47 1,8 C 94 % 1022,3 hPa 0,0 l/m 0,0 km/h (0 Bft) O-NO 63 0 min 0,000 mm 0,0 UV-I 0 W/m 0,9 C 1,8 C 0,0 km/h (0 Bft) 100,00 %
03.11.2015 16:48 1,8 C 94 % 1022,2 hPa 0,0 l/m 0,2 km/h (0 Bft) O-NO 63 0 min 0,000 mm 0,0 UV-I 0 W/m 0,9 C 1,8 C 1,6 km/h (1 Bft) 95,65 %
03.11.2015 16:49 1,8 C 94 % 1022,2 hPa 0,0 l/m 0,0 km/h (0 Bft) O-NO 63 0 min 0,000 mm 0,0 UV-I 0 W/m 0,9 C 1,8 C 0,0 km/h (0 Bft) 100,00 %
03.11.2015 16:50 1,8 C 94 % 1022,3 hPa 0,0 l/m 0,0 km/h (0 Bft) O-NO 63 0 min 0,000 mm 0,0 UV-I 0 W/m 0,9 C 1,8 C 0,0 km/h (0 Bft) 100,00 %
03.11.2015 16:51 1,8 C 94 % 1022,3 hPa 0,0 l/m 0,0 km/h (0 Bft) O-NO 63 0 min 0,000 mm 0,0 UV-I 0 W/m 0,9 C 1,8 C 0,0 km/h (0 Bft) 95,83 %
03.11.2015 16:52 1,8 C 94 % 1022,3 hPa 0,0 l/m 0,3 km/h (0 Bft) O-NO 63 0 min 0,000 mm 0,0 UV-I 0 W/m 0,9 C 1,8 C 1,6 km/h (1 Bft) 100,00 %
03.11.2015 16:53 1,8 C 94 % 1022,3 hPa 0,0 l/m 1,3 km/h (1 Bft) O-NO 63 0 min 0,000 mm 0,0 UV-I 0 W/m 0,9 C 1,8 C 1,6 km/h (1 Bft) 100,00 %
03.11.2015 16:54 1,8 C 94 % 1022,3 hPa 0,0 l/m 1,3 km/h (1 Bft) O-NO 63 0 min 0,000 mm 0,0 UV-I 0 W/m 0,9 C 1,8 C 3,2 km/h (1 Bft) 100,00 %
03.11.2015 16:55 1,8 C 94 % 1022,2 hPa 0,0 l/m 0,9 km/h (0 Bft) O-NO 67 0 min 0,000 mm 0,0 UV-I 0 W/m 0,9 C 1,8 C 1,6 km/h (1 Bft) 93,10 %
03.11.2015 16:56 1,8 C 94 % 1022,2 hPa 0,0 l/m 0,1 km/h (0 Bft) O-NO 67 0 min 0,000 mm 0,0 UV-I 0 W/m 0,9 C 1,8 C 1,6 km/h (1 Bft) 100,00 %
03.11.2015 16:57 1,7 C 94 % 1022,2 hPa 0,0 l/m 0,2 km/h (0 Bft) O-NO 67 0 min 0,000 mm 0,0 UV-I 0 W/m 0,8 C 1,7 C 1,6 km/h (1 Bft) 96,15 %
03.11.2015 16:58 1,7 C 94 % 1022,2 hPa 0,0 l/m 0,3 km/h (0 Bft) O-NO 67 0 min 0,000 mm 0,0 UV-I 0 W/m 0,8 C 1,7 C 1,6 km/h (1 Bft) 100,00 %
03.11.2015 16:59 1,7 C 94 % 1022,2 hPa 0,0 l/m 0,0 km/h (0 Bft) O-NO 67 0 min 0,000 mm 0,0 UV-I 0 W/m 0,8 C 1,7 C 0,0 km/h (0 Bft) 100,00 %
03.11.2015 17:00 1,7 C 95 % 1022,2 hPa 0,0 l/m 0,0 km/h (0 Bft) O-NO 67 0 min 0,000 mm 0,0 UV-I 0 W/m 1,0 C 1,7 C 0,0 km/h (0 Bft) 100,00 %
03.11.2015 17:01 1,7 C 95 % 1022,2 hPa 0,0 l/m 0,1 km/h (0 Bft) O-NO 67 0 min 0,000 mm 0,0 UV-I 0 W/m 1,0 C 1,7 C 1,6 km/h (1 Bft) 95,65 %
03.11.2015 17:02 1,7 C 95 % 1022,2 hPa 0,0 l/m 0,2 km/h (0 Bft) O-NO 67 0 min 0,000 mm 0,0 UV-I 0 W/m 1,0 C 1,7 C 1,6 km/h (1 Bft) 100,00 %
03.11.2015 17:03 1,7 C 95 % 1022,2 hPa 0,0 l/m 0,0 km/h (0 Bft) O-NO 67 0 min 0,000 mm 0,0 UV-I 0 W/m 1,0 C 1,7 C 0,0 km/h (0 Bft) 96,15 %
03.11.2015 17:04 1,6 C 94 % 1022,2 hPa 0,0 l/m 0,0 km/h (0 Bft) O-NO 67 0 min 0,000 mm 0,0 UV-I 0 W/m 0,7 C 1,6 C 0,0 km/h (0 Bft) 100,00 %
03.11.2015 17:05 1,6 C 94 % 1022,2 hPa 0,0 l/m 0,0 km/h (0 Bft) O-NO 67 0 min 0,000 mm 0,0 UV-I 0 W/m 0,7 C 1,6 C 0,0 km/h (0 Bft) 96,15 %
03.11.2015 17:06 1,5 C 94 % 1022,2 hPa 0,0 l/m 0,0 km/h (0 Bft) O-NO 67 0 min 0,000 mm 0,0 UV-I 0 W/m 0,6 C 1,5 C 0,0 km/h (0 Bft) 100,00 %
03.11.2015 17:07 1,4 C 95 % 1022,2 hPa 0,0 l/m 0,0 km/h (0 Bft) O-NO 67 0 min 0,000 mm 0,0 UV-I 0 W/m 0,7 C 1,4 C 0,0 km/h (0 Bft) 100,00 %
03.11.2015 17:08 1,4 C 95 % 1022,2 hPa 0,0 l/m 0,0 km/h (0 Bft) O-NO 67 0 min 0,000 mm 0,0 UV-I 0 W/m 0,7 C 1,4 C 0,0 km/h (0 Bft) 100,00 %
03.11.2015 17:09 1,4 C 95 % 1022,3 hPa 0,0 l/m 0,0 km/h (0 Bft) O-NO 67 0 min 0,000 mm 0,0 UV-I 0 W/m 0,7 C 1,4 C 0,0 km/h (0 Bft) 100,00 %
03.11.2015 17:10 1,4 C 95 % 1022,2 hPa 0,0 l/m 0,1 km/h (0 Bft) O-NO 67 0 min 0,000 mm 0,0 UV-I 0 W/m 0,7 C 1,4 C 1,6 km/h (1 Bft) 100,00 %
03.11.2015 17:11 1,3 C 95 % 1022,2 hPa 0,0 l/m 0,1 km/h (0 Bft) O-NO 67 0 min 0,000 mm 0,0 UV-I 0 W/m 0,6 C 1,3 C 1,6 km/h (1 Bft) 100,00 %
03.11.2015 17:12 1,3 C 95 % 1022,3 hPa 0,0 l/m 0,0 km/h (0 Bft) O-NO 67 0 min 0,000 mm 0,0 UV-I 0 W/m 0,6 C 1,3 C 0,0 km/h (0 Bft) 100,00 %
03.11.2015 17:13 1,3 C 95 % 1022,2 hPa 0,0 l/m 0,1 km/h (0 Bft) O-NO 67 0 min 0,000 mm 0,0 UV-I 0 W/m 0,6 C 1,3 C 1,6 km/h (1 Bft) 100,00 %
03.11.2015 17:14 1,3 C 95 % 1022,3 hPa 0,0 l/m 0,0 km/h (0 Bft) O-NO 67 0 min 0,000 mm 0,0 UV-I 0 W/m 0,6 C 1,3 C 0,0 km/h (0 Bft) 100,00 %
03.11.2015 17:15 1,2 C 95 % 1022,2 hPa 0,0 l/m 0,0 km/h (0 Bft) O-NO 67 0 min 0,000 mm 0,0 UV-I 0 W/m 0,5 C 1,2 C 0,0 km/h (0 Bft) 100,00 %
03.11.2015 17:16 1,2 C 95 % 1022,2 hPa 0,0 l/m 0,1 km/h (0 Bft) O-NO 67 0 min 0,000 mm 0,0 UV-I 0 W/m 0,5 C 1,2 C 1,6 km/h (1 Bft) 100,00 %
03.11.2015 17:17 1,2 C 95 % 1022,2 hPa 0,0 l/m 0,3 km/h (0 Bft) O-NO 67 0 min 0,000 mm 0,0 UV-I 0 W/m 0,5 C 1,2 C 1,6 km/h (1 Bft) 100,00 %
03.11.2015 17:18 1,2 C 95 % 1022,2 hPa 0,0 l/m 0,0 km/h (0 Bft) O-NO 67 0 min 0,000 mm 0,0 UV-I 0 W/m 0,5 C 1,2 C 0,0 km/h (0 Bft) 100,00 %
03.11.2015 17:19 1,2 C 95 % 1022,3 hPa 0,0 l/m 0,0 km/h (0 Bft) O-NO 67 0 min 0,000 mm 0,0 UV-I 0 W/m 0,5 C 1,2 C 0,0 km/h (0 Bft) 100,00 %
03.11.2015 17:20 1,2 C 96 % 1022,3 hPa 0,0 l/m 0,0 km/h (0 Bft) O-NO 67 0 min 0,000 mm 0,0 UV-I 0 W/m 0,6 C 1,2 C 0,0 km/h (0 Bft) 100,00 %
03.11.2015 17:21 1,2 C 96 % 1022,4 hPa 0,0 l/m 0,0 km/h (0 Bft) O-NO 67 0 min 0,000 mm 0,0 UV-I 0 W/m 0,6 C 1,2 C 0,0 km/h (0 Bft) 100,00 %
03.11.2015 17:22 1,3 C 96 % 1022,4 hPa 0,0 l/m 0,1 km/h (0 Bft) O-NO 67 0 min 0,000 mm 0,0 UV-I 0 W/m 0,7 C 1,3 C 1,6 km/h (1 Bft) 100,00 %
03.11.2015 17:23 1,3 C 95 % 1022,4 hPa 0,0 l/m 0,0 km/h (0 Bft) O-NO 67 0 min 0,000 mm 0,0 UV-I 0 W/m 0,6 C 1,3 C 0,0 km/h (0 Bft) 95,83 %
03.11.2015 17:24 1,3 C 96 % 1022,4 hPa 0,0 l/m 0,0 km/h (0 Bft) O-NO 67 0 min 0,000 mm 0,0 UV-I 0 W/m 0,7 C 1,3 C 0,0 km/h (0 Bft) 96,15 %
03.11.2015 17:25 1,3 C 96 % 1022,4 hPa 0,0 l/m 0,0 km/h (0 Bft) O-NO 67 0 min 0,000 mm 0,0 UV-I 0 W/m 0,7 C 1,3 C 0,0 km/h (0 Bft) 100,00 %
03.11.2015 17:26 1,3 C 96 % 1022,5 hPa 0,0 l/m 0,0 km/h (0 Bft) O-NO 67 0 min 0,000 mm 0,0 UV-I 0 W/m 0,7 C 1,3 C 0,0 km/h (0 Bft) 100,00 %
03.11.2015 17:27 1,2 C 96 % 1022,4 hPa 0,0 l/m 0,0 km/h (0 Bft) O-NO 67 0 min 0,000 mm 0,0 UV-I 0 W/m 0,6 C 1,2 C 0,0 km/h (0 Bft) 100,00 %
03.11.2015 17:28 1,2 C 95 % 1022,4 hPa 0,0 l/m 0,0 km/h (0 Bft) O-NO 67 0 min 0,000 mm 0,0 UV-I 0 W/m 0,5 C 1,2 C 0,0 km/h (0 Bft) 100,00 %
03.11.2015 17:29 1,2 C 96 % 1022,4 hPa 0,0 l/m 0,0 km/h (0 Bft) O-NO 67 0 min 0,000 mm 0,0 UV-I 0 W/m 0,6 C 1,2 C 0,0 km/h (0 Bft) 100,00 %
03.11.2015 17:30 1,2 C 95 % 1022,4 hPa 0,0 l/m 0,0 km/h (0 Bft) O-NO 67 0 min 0,000 mm 0,0 UV-I 0 W/m 0,5 C 1,2 C 0,0 km/h (0 Bft) 100,00 %
03.11.2015 17:31 1,2 C 96 % 1022,4 hPa 0,0 l/m 0,0 km/h (0 Bft) O-NO 67 0 min 0,000 mm 0,0 UV-I 0 W/m 0,6 C 1,2 C 0,0 km/h (0 Bft) 100,00 %
03.11.2015 17:32 1,2 C 96 % 1022,4 hPa 0,0 l/m 0,0 km/h (0 Bft) O-NO 67 0 min 0,000 mm 0,0 UV-I 0 W/m 0,6 C 1,2 C 0,0 km/h (0 Bft) 100,00 %
03.11.2015 17:33 1,2 C 96 % 1022,4 hPa 0,0 l/m 0,1 km/h (0 Bft) O-NO 67 0 min 0,000 mm 0,0 UV-I 0 W/m 0,6 C 1,2 C 1,6 km/h (1 Bft) 100,00 %
03.11.2015 17:34 1,2 C 96 % 1022,4 hPa 0,0 l/m 0,8 km/h (0 Bft) O-NO 67 0 min 0,000 mm 0,0 UV-I 0 W/m 0,6 C 1,2 C 1,6 km/h (1 Bft) 100,00 %
03.11.2015 17:35 1,2 C 96 % 1022,4 hPa 0,0 l/m 0,0 km/h (0 Bft) O-NO 67 0 min 0,000 mm 0,0 UV-I 0 W/m 0,6 C 1,2 C 0,0 km/h (0 Bft) 96,15 %
03.11.2015 17:36 1,2 C 96 % 1022,4 hPa 0,0 l/m 0,1 km/h (0 Bft) O-NO 67 0 min 0,000 mm 0,0 UV-I 0 W/m 0,6 C 1,2 C 1,6 km/h (1 Bft) 100,00 %
03.11.2015 17:37 1,2 C 96 % 1022,3 hPa 0,0 l/m 0,0 km/h (0 Bft) O-NO 67 0 min 0,000 mm 0,0 UV-I 0 W/m 0,6 C 1,2 C 0,0 km/h (0 Bft) 100,00 %
03.11.2015 17:38 1,2 C 96 % 1022,4 hPa 0,0 l/m 0,0 km/h (0 Bft) O-NO 67 0 min 0,000 mm 0,0 UV-I 0 W/m 0,6 C 1,2 C 0,0 km/h (0 Bft) 100,00 %
03.11.2015 17:39 1,1 C 96 % 1022,4 hPa 0,0 l/m 0,0 km/h (0 Bft) O-NO 67 0 min 0,000 mm 0,0 UV-I 0 W/m 0,5 C 1,1 C 0,0 km/h (0 Bft) 100,00 %
03.11.2015 17:40 1,1 C 96 % 1022,3 hPa 0,0 l/m 0,0 km/h (0 Bft) O-NO 67 0 min 0,000 mm 0,0 UV-I 0 W/m 0,5 C 1,1 C 0,0 km/h (0 Bft) 100,00 %
03.11.2015 17:41 1,1 C 96 % 1022,3 hPa 0,0 l/m 0,1 km/h (0 Bft) O-NO 67 0 min 0,000 mm 0,0 UV-I 0 W/m 0,5 C 1,1 C 1,6 km/h (1 Bft) 100,00 %
03.11.2015 17:42 1,1 C 96 % 1022,3 hPa 0,0 l/m 0,8 km/h (0 Bft) O-NO 67 0 min 0,000 mm 0,0 UV-I 0 W/m 0,5 C 1,1 C 1,6 km/h (1 Bft) 100,00 %
03.11.2015 17:43 1,1 C 96 % 1022,2 hPa 0,0 l/m 1,5 km/h (1 Bft) O-NO 67 0 min 0,000 mm 0,0 UV-I 0 W/m 0,5 C 1,1 C 1,6 km/h (1 Bft) 100,00 %
03.11.2015 17:44 1,1 C 96 % 1022,2 hPa 0,0 l/m 0,2 km/h (0 Bft) O-NO 67 0 min 0,000 mm 0,0 UV-I 0 W/m 0,5 C 1,1 C 1,6 km/h (1 Bft) 100,00 %
03.11.2015 17:45 1,1 C 96 % 1022,2 hPa 0,0 l/m 0,0 km/h (0 Bft) O-NO 67 0 min 0,000 mm 0,0 UV-I 0 W/m 0,5 C 1,1 C 0,0 km/h (0 Bft) 100,00 %
03.11.2015 17:46 1,1 C 96 % 1022,3 hPa 0,0 l/m 0,0 km/h (0 Bft) O-NO 67 0 min 0,000 mm 0,0 UV-I 0 W/m 0,5 C 1,1 C 0,0 km/h (0 Bft) 100,00 %
03.11.2015 17:47 1,1 C 96 % 1022,3 hPa 0,0 l/m 0,0 km/h (0 Bft) O-NO 67 0 min 0,000 mm 0,0 UV-I 0 W/m 0,5 C 1,1 C 0,0 km/h (0 Bft) 100,00 %
03.11.2015 17:48 1,1 C 96 % 1022,3 hPa 0,0 l/m 0,0 km/h (0 Bft) O-NO 67 0 min 0,000 mm 0,0 UV-I 0 W/m 0,5 C 1,1 C 0,0 km/h (0 Bft) 100,00 %
03.11.2015 17:49 1,1 C 96 % 1022,3 hPa 0,0 l/m 0,0 km/h (0 Bft) O-NO 67 0 min 0,000 mm 0,0 UV-I 0 W/m 0,5 C 1,1 C 0,0 km/h (0 Bft) 100,00 %
03.11.2015 17:50 1,1 C 96 % 1022,3 hPa 0,0 l/m 0,0 km/h (0 Bft) O-NO 67 0 min 0,000 mm 0,0 UV-I 0 W/m 0,5 C 1,1 C 0,0 km/h (0 Bft) 95,83 %
03.11.2015 17:51 1,1 C 96 % 1022,3 hPa 0,0 l/m 0,2 km/h (0 Bft) O-NO 67 0 min 0,000 mm 0,0 UV-I 0 W/m 0,5 C 1,1 C 1,6 km/h (1 Bft) 100,00 %
03.11.2015 17:52 1,1 C 96 % 1022,3 hPa 0,0 l/m 0,0 km/h (0 Bft) O-NO 67 0 min 0,000 mm 0,0 UV-I 0 W/m 0,5 C 1,1 C 0,0 km/h (0 Bft) 100,00 %
03.11.2015 17:53 1,1 C 96 % 1022,4 hPa 0,0 l/m 0,0 km/h (0 Bft) O-NO 67 0 min 0,000 mm 0,0 UV-I 0 W/m 0,5 C 1,1 C 0,0 km/h (0 Bft) 100,00 %
03.11.2015 17:54 1,0 C 96 % 1022,3 hPa 0,0 l/m 0,0 km/h (0 Bft) O-NO 67 0 min 0,000 mm 0,0 UV-I 0 W/m 0,4 C 1,0 C 0,0 km/h (0 Bft) 100,00 %
03.11.2015 17:55 0,9 C 96 % 1022,3 hPa 0,0 l/m 0,0 km/h (0 Bft) O-NO 67 0 min 0,000 mm 0,0 UV-I 0 W/m 0,3 C 0,9 C 0,0 km/h (0 Bft) 100,00 %
03.11.2015 17:56 0,9 C 95 % 1022,3 hPa 0,0 l/m 0,0 km/h (0 Bft) O-NO 67 0 min 0,000 mm 0,0 UV-I 0 W/m 0,2 C 0,9 C 0,0 km/h (0 Bft) 100,00 %
03.11.2015 17:57 0,8 C 95 % 1022,4 hPa 0,0 l/m 0,0 km/h (0 Bft) O-NO 67 0 min 0,000 mm 0,0 UV-I 0 W/m 0,1 C 0,8 C 0,0 km/h (0 Bft) 95,83 %
03.11.2015 17:58 0,8 C 95 % 1022,4 hPa 0,0 l/m 0,0 km/h (0 Bft) O-NO 67 0 min 0,000 mm 0,0 UV-I 0 W/m 0,1 C 0,8 C 0,0 km/h (0 Bft) 96,15 %
03.11.2015 17:59 0,8 C 95 % 1022,4 hPa 0,0 l/m 0,0 km/h (0 Bft) O-NO 67 0 min 0,000 mm 0,0 UV-I 0 W/m 0,1 C 0,8 C 0,0 km/h (0 Bft) 100,00 %
03.11.2015 18:00 0,7 C 95 % 1022,4 hPa 0,0 l/m 0,0 km/h (0 Bft) O-NO 67 0 min 0,000 mm 0,0 UV-I 0 W/m -0,0 C 0,7 C 0,0 km/h (0 Bft) 100,00 %
03.11.2015 18:01 0,7 C 95 % 1022,4 hPa 0,0 l/m 0,0 km/h (0 Bft) O-NO 67 0 min 0,000 mm 0,0 UV-I 0 W/m -0,0 C 0,7 C 0,0 km/h (0 Bft) 100,00 %
03.11.2015 18:02 0,6 C 95 % 1022,5 hPa 0,0 l/m 0,0 km/h (0 Bft) O-NO 67 0 min 0,000 mm 0,0 UV-I 0 W/m -0,1 C 0,6 C 0,0 km/h (0 Bft) 100,00 %
03.11.2015 18:03 0,6 C 95 % 1022,4 hPa 0,0 l/m 0,0 km/h (0 Bft) O-NO 67 0 min 0,000 mm 0,0 UV-I 0 W/m -0,1 C 0,6 C 0,0 km/h (0 Bft) 100,00 %
03.11.2015 18:04 0,6 C 95 % 1022,4 hPa 0,0 l/m 0,0 km/h (0 Bft) O-NO 67 0 min 0,000 mm 0,0 UV-I 0 W/m -0,1 C 0,6 C 0,0 km/h (0 Bft) 100,00 %
03.11.2015 18:05 0,6 C 95 % 1022,4 hPa 0,0 l/m 0,0 km/h (0 Bft) O-NO 67 0 min 0,000 mm 0,0 UV-I 0 W/m -0,1 C 0,6 C 0,0 km/h (0 Bft) 95,83 %
03.11.2015 18:06 0,5 C 96 % 1022,4 hPa 0,0 l/m 0,0 km/h (0 Bft) O-NO 67 0 min 0,000 mm 0,0 UV-I 0 W/m -0,1 C 0,5 C 0,0 km/h (0 Bft) 100,00 %
03.11.2015 18:07 0,5 C 96 % 1022,4 hPa 0,0 l/m 0,0 km/h (0 Bft) O-NO 67 0 min 0,000 mm 0,0 UV-I 0 W/m -0,1 C 0,5 C 0,0 km/h (0 Bft) 100,00 %
03.11.2015 18:08 0,5 C 96 % 1022,4 hPa 0,0 l/m 0,0 km/h (0 Bft) O-NO 67 0 min 0,000 mm 0,0 UV-I 0 W/m -0,1 C 0,5 C 0,0 km/h (0 Bft) 100,00 %
03.11.2015 18:09 0,4 C 96 % 1022,4 hPa 0,0 l/m 0,0 km/h (0 Bft) O-NO 67 0 min 0,000 mm 0,0 UV-I 0 W/m -0,2 C 0,4 C 0,0 km/h (0 Bft) 100,00 %
03.11.2015 18:10 0,4 C 96 % 1022,3 hPa 0,0 l/m 0,0 km/h (0 Bft) O-NO 67 0 min 0,000 mm 0,0 UV-I 0 W/m -0,2 C 0,4 C 0,0 km/h (0 Bft) 100,00 %
03.11.2015 18:11 0,4 C 96 % 1022,3 hPa 0,0 l/m 0,0 km/h (0 Bft) O-NO 67 0 min 0,000 mm 0,0 UV-I 0 W/m -0,2 C 0,4 C 0,0 km/h (0 Bft) 100,00 %
03.11.2015 18:12 0,4 C 96 % 1022,3 hPa 0,0 l/m 0,0 km/h (0 Bft) O-NO 67 0 min 0,000 mm 0,0 UV-I 0 W/m -0,2 C 0,4 C 0,0 km/h (0 Bft) 100,00 %
03.11.2015 18:13 0,4 C 96 % 1022,2 hPa 0,0 l/m 0,0 km/h (0 Bft) O-NO 67 0 min 0,000 mm 0,0 UV-I 0 W/m -0,2 C 0,4 C 0,0 km/h (0 Bft) 100,00 %
03.11.2015 18:14 0,4 C 96 % 1022,3 hPa 0,0 l/m 0,0 km/h (0 Bft) O-NO 67 0 min 0,000 mm 0,0 UV-I 0 W/m -0,2 C 0,4 C 0,0 km/h (0 Bft) 100,00 %
03.11.2015 18:15 0,3 C 96 % 1022,3 hPa 0,0 l/m 0,0 km/h (0 Bft) O-NO 67 0 min 0,000 mm 0,0 UV-I 0 W/m -0,3 C 0,3 C 0,0 km/h (0 Bft) 100,00 %
03.11.2015 18:16 0,3 C 95 % 1022,3 hPa 0,0 l/m 0,0 km/h (0 Bft) O-NO 67 0 min 0,000 mm 0,0 UV-I 0 W/m -0,4 C 0,3 C 0,0 km/h (0 Bft) 100,00 %
03.11.2015 18:17 0,2 C 95 % 1022,2 hPa 0,0 l/m 0,0 km/h (0 Bft) O-NO 67 0 min 0,000 mm 0,0 UV-I 0 W/m -0,5 C 0,2 C 0,0 km/h (0 Bft) 100,00 %
03.11.2015 18:18 0,2 C 95 % 1022,2 hPa 0,0 l/m 0,0 km/h (0 Bft) O-NO 67 0 min 0,000 mm 0,0 UV-I 0 W/m -0,5 C 0,2 C 0,0 km/h (0 Bft) 100,00 %
03.11.2015 18:19 0,2 C 95 % 1022,2 hPa 0,0 l/m 0,0 km/h (0 Bft) O-NO 67 0 min 0,000 mm 0,0 UV-I 0 W/m -0,5 C 0,2 C 0,0 km/h (0 Bft) 95,65 %
03.11.2015 18:20 0,2 C 96 % 1022,3 hPa 0,0 l/m 0,0 km/h (0 Bft) O-NO 67 0 min 0,000 mm 0,0 UV-I 0 W/m -0,4 C 0,2 C 0,0 km/h (0 Bft) 100,00 %
03.11.2015 18:21 0,1 C 96 % 1022,3 hPa 0,0 l/m 0,5 km/h (0 Bft) O-NO 67 0 min 0,000 mm 0,0 UV-I 0 W/m -0,5 C 0,1 C 1,6 km/h (1 Bft) 96,15 %
03.11.2015 18:22 0,1 C 96 % 1022,3 hPa 0,0 l/m 1,3 km/h (1 Bft) O-NO 67 0 min 0,000 mm 0,0 UV-I 0 W/m -0,5 C 0,1 C 1,6 km/h (1 Bft) 100,00 %
03.11.2015 18:23 0,1 C 96 % 1022,3 hPa 0,0 l/m 1,0 km/h (0 Bft) O-NO 67 0 min 0,000 mm 0,0 UV-I 0 W/m -0,5 C 0,1 C 1,6 km/h (1 Bft) 100,00 %
03.11.2015 18:24 0,1 C 96 % 1022,3 hPa 0,0 l/m 0,8 km/h (0 Bft) SO 142 0 min 0,000 mm 0,0 UV-I 0 W/m -0,5 C 0,1 C 1,6 km/h (1 Bft) 100,00 %
03.11.2015 18:25 0,1 C 96 % 1022,3 hPa 0,0 l/m 0,0 km/h (0 Bft) SO 142 0 min 0,000 mm 0,0 UV-I 0 W/m -0,5 C 0,1 C 0,0 km/h (0 Bft) 100,00 %
03.11.2015 18:26 0,1 C 96 % 1022,2 hPa 0,0 l/m 0,1 km/h (0 Bft) SO 142 0 min 0,000 mm 0,0 UV-I 0 W/m -0,5 C 0,1 C 1,6 km/h (1 Bft) 100,00 %
03.11.2015 18:27 0,1 C 96 % 1022,2 hPa 0,0 l/m 1,0 km/h (0 Bft) SO 142 0 min 0,000 mm 0,0 UV-I 0 W/m -0,5 C 0,1 C 1,6 km/h (1 Bft) 100,00 %
03.11.2015 18:28 0,1 C 96 % 1022,2 hPa 0,0 l/m 0,8 km/h (0 Bft) SO 142 0 min 0,000 mm 0,0 UV-I 0 W/m -0,5 C 0,1 C 1,6 km/h (1 Bft) 100,00 %
03.11.2015 18:29 0,0 C 96 % 1022,2 hPa 0,0 l/m 0,2 km/h (0 Bft) SO 142 0 min 0,000 mm 0,0 UV-I 0 W/m -0,6 C 0,0 C 1,6 km/h (1 Bft) 100,00 %
03.11.2015 18:30 -0,1 C 96 % 1022,2 hPa 0,0 l/m 0,8 km/h (0 Bft) SO 142 0 min 0,000 mm 0,0 UV-I 0 W/m -0,7 C -0,1 C 1,6 km/h (1 Bft) 100,00 %
03.11.2015 18:31 -0,1 C 95 % 1022,2 hPa 0,0 l/m 0,0 km/h (0 Bft) SO 142 0 min 0,000 mm 0,0 UV-I 0 W/m -0,8 C -0,1 C 0,0 km/h (0 Bft) 100,00 %
03.11.2015 18:32 -0,1 C 96 % 1022,2 hPa 0,0 l/m 0,0 km/h (0 Bft) SO 142 0 min 0,000 mm 0,0 UV-I 0 W/m -0,7 C -0,1 C 0,0 km/h (0 Bft) 100,00 %
03.11.2015 18:33 -0,1 C 96 % 1022,2 hPa 0,0 l/m 0,0 km/h (0 Bft) SO 142 0 min 0,000 mm 0,0 UV-I 0 W/m -0,7 C -0,1 C 0,0 km/h (0 Bft) 100,00 %
03.11.2015 18:34 -0,2 C 96 % 1022,2 hPa 0,0 l/m 0,0 km/h (0 Bft) SO 142 0 min 0,000 mm 0,0 UV-I 0 W/m -0,8 C -0,2 C 0,0 km/h (0 Bft) 95,65 %
03.11.2015 18:35 -0,2 C 96 % 1022,2 hPa 0,0 l/m 0,0 km/h (0 Bft) SO 142 0 min 0,000 mm 0,0 UV-I 0 W/m -0,8 C -0,2 C 0,0 km/h (0 Bft) 100,00 %
03.11.2015 18:36 -0,2 C 96 % 1022,1 hPa 0,0 l/m 0,0 km/h (0 Bft) SO 142 0 min 0,000 mm 0,0 UV-I 0 W/m -0,8 C -0,2 C 0,0 km/h (0 Bft) 100,00 %
03.11.2015 18:37 -0,1 C 96 % 1022,2 hPa 0,0 l/m 0,1 km/h (0 Bft) SO 142 0 min 0,000 mm 0,0 UV-I 0 W/m -0,7 C -0,1 C 1,6 km/h (1 Bft) 100,00 %
03.11.2015 18:38 -0,1 C 96 % 1022,2 hPa 0,0 l/m 0,5 km/h (0 Bft) SO 142 0 min 0,000 mm 0,0 UV-I 0 W/m -0,7 C -0,1 C 1,6 km/h (1 Bft) 96,15 %
03.11.2015 18:39 -0,1 C 96 % 1022,1 hPa 0,0 l/m 0,5 km/h (0 Bft) SO 142 0 min 0,000 mm 0,0 UV-I 0 W/m -0,7 C -0,1 C 1,6 km/h (1 Bft) 100,00 %
03.11.2015 18:40 -0,2 C 96 % 1022,1 hPa 0,0 l/m 0,1 km/h (0 Bft) SO 142 0 min 0,000 mm 0,0 UV-I 0 W/m -0,8 C -0,2 C 1,6 km/h (1 Bft) 100,00 %
03.11.2015 18:41 -0,2 C 96 % 1022,1 hPa 0,0 l/m 0,0 km/h (0 Bft) SO 142 0 min 0,000 mm 0,0 UV-I 0 W/m -0,8 C -0,2 C 0,0 km/h (0 Bft) 95,83 %
03.11.2015 18:42 -0,2 C 96 % 1022,2 hPa 0,0 l/m 0,0 km/h (0 Bft) SO 142 0 min 0,000 mm 0,0 UV-I 0 W/m -0,8 C -0,2 C 0,0 km/h (0 Bft) 100,00 %
03.11.2015 18:43 -0,2 C 96 % 1022,2 hPa 0,0 l/m 0,1 km/h (0 Bft) SO 142 0 min 0,000 mm 0,0 UV-I 0 W/m -0,8 C -0,2 C 1,6 km/h (1 Bft) 100,00 %
03.11.2015 18:44 -0,2 C 96 % 1022,2 hPa 0,0 l/m 0,9 km/h (0 Bft) SO 142 0 min 0,000 mm 0,0 UV-I 0 W/m -0,8 C -0,2 C 1,6 km/h (1 Bft) 100,00 %
03.11.2015 18:45 -0,2 C 96 % 1022,1 hPa 0,0 l/m 1,7 km/h (1 Bft) SO 142 0 min 0,000 mm 0,0 UV-I 0 W/m -0,8 C -0,2 C 3,2 km/h (1 Bft) 100,00 %
03.11.2015 18:46 -0,1 C 96 % 1022,1 hPa 0,0 l/m 1,5 km/h (1 Bft) SO 142 0 min 0,000 mm 0,0 UV-I 0 W/m -0,7 C -0,1 C 1,6 km/h (1 Bft) 100,00 %
03.11.2015 18:47 -0,1 C 96 % 1022,1 hPa 0,0 l/m 1,5 km/h (1 Bft) SO 142 0 min 0,000 mm 0,0 UV-I 0 W/m -0,7 C -0,1 C 3,2 km/h (1 Bft) 95,83 %
03.11.2015 18:48 -0,2 C 96 % 1022,2 hPa 0,0 l/m 1,8 km/h (1 Bft) SO 142 0 min 0,000 mm 0,0 UV-I 0 W/m -0,8 C -0,2 C 3,2 km/h (1 Bft) 100,00 %
03.11.2015 18:49 -0,2 C 96 % 1022,1 hPa 0,0 l/m 1,5 km/h (1 Bft) SO 142 0 min 0,000 mm 0,0 UV-I 0 W/m -0,8 C -0,2 C 3,2 km/h (1 Bft) 100,00 %
03.11.2015 18:50 -0,1 C 96 % 1022,1 hPa 0,0 l/m 0,5 km/h (0 Bft) SO 142 0 min 0,000 mm 0,0 UV-I 0 W/m -0,7 C -0,1 C 1,6 km/h (1 Bft) 100,00 %
03.11.2015 18:51 -0,2 C 96 % 1022,1 hPa 0,0 l/m 0,7 km/h (0 Bft) SO 142 0 min 0,000 mm 0,0 UV-I 0 W/m -0,8 C -0,2 C 1,6 km/h (1 Bft) 100,00 %
03.11.2015 18:52 -0,2 C 96 % 1022,1 hPa 0,0 l/m 0,0 km/h (0 Bft) SO 142 0 min 0,000 mm 0,0 UV-I 0 W/m -0,8 C -0,2 C 0,0 km/h (0 Bft) 100,00 %
03.11.2015 18:53 -0,2 C 96 % 1022,1 hPa 0,0 l/m 0,0 km/h (0 Bft) SO 142 0 min 0,000 mm 0,0 UV-I 0 W/m -0,8 C -0,2 C 0,0 km/h (0 Bft) 100,00 %
03.11.2015 18:54 -0,2 C 96 % 1022,1 hPa 0,0 l/m 0,0 km/h (0 Bft) SO 142 0 min 0,000 mm 0,0 UV-I 0 W/m -0,8 C -0,2 C 0,0 km/h (0 Bft) 100,00 %
03.11.2015 18:55 -0,1 C 96 % 1022,1 hPa 0,0 l/m 0,0 km/h (0 Bft) SO 142 0 min 0,000 mm 0,0 UV-I 0 W/m -0,7 C -0,1 C 0,0 km/h (0 Bft) 100,00 %
03.11.2015 18:56 -0,2 C 96 % 1022,1 hPa 0,0 l/m 0,0 km/h (0 Bft) SO 142 0 min 0,000 mm 0,0 UV-I 0 W/m -0,8 C -0,2 C 0,0 km/h (0 Bft) 100,00 %
03.11.2015 18:57 -0,2 C 96 % 1022,1 hPa 0,0 l/m 0,0 km/h (0 Bft) SO 142 0 min 0,000 mm 0,0 UV-I 0 W/m -0,8 C -0,2 C 0,0 km/h (0 Bft) 96,15 %
03.11.2015 18:58 -0,2 C 96 % 1022,1 hPa 0,0 l/m 0,0 km/h (0 Bft) SO 142 0 min 0,000 mm 0,0 UV-I 0 W/m -0,8 C -0,2 C 0,0 km/h (0 Bft) 100,00 %
03.11.2015 18:59 -0,2 C 96 % 1022,1 hPa 0,0 l/m 0,1 km/h (0 Bft) SO 142 0 min 0,000 mm 0,0 UV-I 0 W/m -0,8 C -0,2 C 1,6 km/h (1 Bft) 100,00 %
03.11.2015 19:00 -0,2 C 96 % 1022,1 hPa 0,0 l/m 0,4 km/h (0 Bft) SO 142 0 min 0,000 mm 0,0 UV-I 0 W/m -0,8 C -0,2 C 1,6 km/h (1 Bft) 100,00 %
03.11.2015 19:01 -0,2 C 96 % 1022,1 hPa 0,0 l/m 0,3 km/h (0 Bft) SO 142 0 min 0,000 mm 0,0 UV-I 0 W/m -0,8 C -0,2 C 1,6 km/h (1 Bft) 100,00 %
03.11.2015 19:02 -0,2 C 96 % 1022,1 hPa 0,0 l/m 0,0 km/h (0 Bft) SO 142 0 min 0,000 mm 0,0 UV-I 0 W/m -0,8 C -0,2 C 0,0 km/h (0 Bft) 100,00 %
03.11.2015 19:03 -0,3 C 96 % 1022,1 hPa 0,0 l/m 0,0 km/h (0 Bft) SO 142 0 min 0,000 mm 0,0 UV-I 0 W/m -0,9 C -0,3 C 0,0 km/h (0 Bft) 100,00 %
03.11.2015 19:04 -0,3 C 96 % 1022,1 hPa 0,0 l/m 0,0 km/h (0 Bft) SO 142 0 min 0,000 mm 0,0 UV-I 0 W/m -0,9 C -0,3 C 0,0 km/h (0 Bft) 100,00 %
03.11.2015 19:05 -0,3 C 96 % 1022,1 hPa 0,0 l/m 0,0 km/h (0 Bft) SO 142 0 min 0,000 mm 0,0 UV-I 0 W/m -0,9 C -0,3 C 0,0 km/h (0 Bft) 100,00 %
03.11.2015 19:06 -0,3 C 96 % 1022,1 hPa 0,0 l/m 0,0 km/h (0 Bft) SO 142 0 min 0,000 mm 0,0 UV-I 0 W/m -0,9 C -0,3 C 0,0 km/h (0 Bft) 100,00 %
03.11.2015 19:07 -0,3 C 96 % 1022,1 hPa 0,0 l/m 0,0 km/h (0 Bft) SO 142 0 min 0,000 mm 0,0 UV-I 0 W/m -0,9 C -0,3 C 0,0 km/h (0 Bft) 100,00 %
03.11.2015 19:08 -0,4 C 96 % 1022,1 hPa 0,0 l/m 0,0 km/h (0 Bft) SO 142 0 min 0,000 mm 0,0 UV-I 0 W/m -1,0 C -0,4 C 0,0 km/h (0 Bft) 100,00 %
03.11.2015 19:09 -0,4 C 96 % 1022,1 hPa 0,0 l/m 0,0 km/h (0 Bft) SO 142 0 min 0,000 mm 0,0 UV-I 0 W/m -1,0 C -0,4 C 0,0 km/h (0 Bft) 100,00 %
03.11.2015 19:10 -0,4 C 95 % 1022,1 hPa 0,0 l/m 0,0 km/h (0 Bft) SO 142 0 min 0,000 mm 0,0 UV-I 0 W/m -1,1 C -0,4 C 0,0 km/h (0 Bft) 100,00 %
03.11.2015 19:11 -0,4 C 95 % 1022,1 hPa 0,0 l/m 0,0 km/h (0 Bft) SO 142 0 min 0,000 mm 0,0 UV-I 0 W/m -1,1 C -0,4 C 0,0 km/h (0 Bft) 100,00 %
03.11.2015 19:12 -0,5 C 95 % 1022,1 hPa 0,0 l/m 0,7 km/h (0 Bft) SO 141 0 min 0,000 mm 0,0 UV-I 0 W/m -1,2 C -0,5 C 3,2 km/h (1 Bft) 96,15 %
03.11.2015 19:13 -0,5 C 95 % 1022,1 hPa 0,0 l/m 2,5 km/h (1 Bft) SO 132 0 min 0,000 mm 0,0 UV-I 0 W/m -1,2 C -0,5 C 3,2 km/h (1 Bft) 99,19 %
03.11.2015 19:14 -0,6 C 95 % 1022,1 hPa 0,0 l/m 2,0 km/h (1 Bft) SO 131 0 min 0,000 mm 0,0 UV-I 0 W/m -1,3 C -0,6 C 3,2 km/h (1 Bft) 100,00 %
03.11.2015 19:15 -0,6 C 95 % 1022,0 hPa 0,0 l/m 1,6 km/h (1 Bft) SO 131 0 min 0,000 mm 0,0 UV-I 0 W/m -1,3 C -0,6 C 3,2 km/h (1 Bft) 95,83 %
03.11.2015 19:16 -0,6 C 96 % 1022,1 hPa 0,0 l/m 1,1 km/h (1 Bft) SO 131 0 min 0,000 mm 0,0 UV-I 0 W/m -1,2 C -0,6 C 1,6 km/h (1 Bft) 100,00 %
03.11.2015 19:17 -0,5 C 96 % 1022,0 hPa 0,0 l/m 0,4 km/h (0 Bft) SO 131 0 min 0,000 mm 0,0 UV-I 0 W/m -1,1 C -0,5 C 1,6 km/h (1 Bft) 100,00 %
03.11.2015 19:18 -0,4 C 96 % 1022,1 hPa 0,0 l/m 0,2 km/h (0 Bft) SO 131 0 min 0,000 mm 0,0 UV-I 0 W/m -1,0 C -0,4 C 1,6 km/h (1 Bft) 100,00 %
03.11.2015 19:19 -0,4 C 96 % 1022,1 hPa 0,0 l/m 1,0 km/h (0 Bft) SO 131 0 min 0,000 mm 0,0 UV-I 0 W/m -1,0 C -0,4 C 1,6 km/h (1 Bft) 100,00 %
03.11.2015 19:20 -0,3 C 97 % 1022,1 hPa 0,0 l/m 0,9 km/h (0 Bft) SO 131 0 min 0,000 mm 0,0 UV-I 0 W/m -0,7 C -0,3 C 1,6 km/h (1 Bft) 95,65 %
03.11.2015 19:21 -0,3 C 97 % 1022,1 hPa 0,0 l/m 0,7 km/h (0 Bft) SO 131 0 min 0,000 mm 0,0 UV-I 0 W/m -0,7 C -0,3 C 1,6 km/h (1 Bft) 100,00 %
03.11.2015 19:22 -0,3 C 97 % 1022,1 hPa 0,0 l/m 0,4 km/h (0 Bft) SO 131 0 min 0,000 mm 0,0 UV-I 0 W/m -0,7 C -0,3 C 1,6 km/h (1 Bft) 100,00 %
03.11.2015 19:23 -0,3 C 97 % 1022,1 hPa 0,0 l/m 0,2 km/h (0 Bft) SO 131 0 min 0,000 mm 0,0 UV-I 0 W/m -0,7 C -0,3 C 1,6 km/h (1 Bft) 100,00 %
03.11.2015 19:24 -0,3 C 97 % 1022,0 hPa 0,0 l/m 0,3 km/h (0 Bft) SO 131 0 min 0,000 mm 0,0 UV-I 0 W/m -0,7 C -0,3 C 1,6 km/h (1 Bft) 100,00 %
03.11.2015 19:25 -0,3 C 97 % 1022,0 hPa 0,0 l/m 0,4 km/h (0 Bft) SO 131 0 min 0,000 mm 0,0 UV-I 0 W/m -0,7 C -0,3 C 1,6 km/h (1 Bft) 100,00 %
03.11.2015 19:26 -0,3 C 97 % 1022,0 hPa 0,0 l/m 0,1 km/h (0 Bft) SO 131 0 min 0,000 mm 0,0 UV-I 0 W/m -0,7 C -0,3 C 1,6 km/h (1 Bft) 100,00 %
03.11.2015 19:27 -0,4 C 96 % 1022,0 hPa 0,0 l/m 0,0 km/h (0 Bft) SO 131 0 min 0,000 mm 0,0 UV-I 0 W/m -1,0 C -0,4 C 0,0 km/h (0 Bft) 100,00 %
03.11.2015 19:28 -0,4 C 96 % 1022,0 hPa 0,0 l/m 0,0 km/h (0 Bft) SO 131 0 min 0,000 mm 0,0 UV-I 0 W/m -1,0 C -0,4 C 0,0 km/h (0 Bft) 100,00 %
03.11.2015 19:29 -0,5 C 96 % 1022,0 hPa 0,0 l/m 0,2 km/h (0 Bft) SO 131 0 min 0,000 mm 0,0 UV-I 0 W/m -1,1 C -0,5 C 1,6 km/h (1 Bft) 95,65 %
03.11.2015 19:30 -0,5 C 96 % 1022,0 hPa 0,0 l/m 0,7 km/h (0 Bft) SO 131 0 min 0,000 mm 0,0 UV-I 0 W/m -1,1 C -0,5 C 1,6 km/h (1 Bft) 95,83 %
03.11.2015 19:31 -0,4 C 96 % 1022,0 hPa 0,0 l/m 0,5 km/h (0 Bft) SO 131 0 min 0,000 mm 0,0 UV-I 0 W/m -1,0 C -0,4 C 1,6 km/h (1 Bft) 100,00 %
03.11.2015 19:32 -0,5 C 96 % 1022,0 hPa 0,0 l/m 1,6 km/h (1 Bft) SO 131 0 min 0,000 mm 0,0 UV-I 0 W/m -1,1 C -0,5 C 3,2 km/h (1 Bft) 100,00 %
03.11.2015 19:33 -0,5 C 96 % 1022,0 hPa 0,0 l/m 2,1 km/h (1 Bft) SO 131 0 min 0,000 mm 0,0 UV-I 0 W/m -1,1 C -0,5 C 3,2 km/h (1 Bft) 100,00 %
03.11.2015 19:34 -0,5 C 96 % 1022,1 hPa 0,0 l/m 2,4 km/h (1 Bft) SO 131 0 min 0,000 mm 0,0 UV-I 0 W/m -1,1 C -0,5 C 3,2 km/h (1 Bft) 100,00 %
03.11.2015 19:35 -0,5 C 96 % 1022,0 hPa 0,0 l/m 0,8 km/h (0 Bft) SO 131 0 min 0,000 mm 0,0 UV-I 0 W/m -1,1 C -0,5 C 1,6 km/h (1 Bft) 95,65 %
03.11.2015 19:36 -0,4 C 96 % 1022,0 hPa 0,0 l/m 0,1 km/h (0 Bft) SO 131 0 min 0,000 mm 0,0 UV-I 0 W/m -1,0 C -0,4 C 1,6 km/h (1 Bft) 91,67 %
03.11.2015 19:37 -0,4 C 96 % 1022,1 hPa 0,0 l/m 0,0 km/h (0 Bft) SO 131 0 min 0,000 mm 0,0 UV-I 0 W/m -1,0 C -0,4 C 0,0 km/h (0 Bft) 100,00 %
03.11.2015 19:38 -0,5 C 96 % 1022,0 hPa 0,0 l/m 0,1 km/h (0 Bft) SO 131 0 min 0,000 mm 0,0 UV-I 0 W/m -1,1 C -0,5 C 1,6 km/h (1 Bft) 100,00 %
03.11.2015 19:39 -0,5 C 96 % 1022,0 hPa 0,0 l/m 0,0 km/h (0 Bft) SO 131 0 min 0,000 mm 0,0 UV-I 0 W/m -1,1 C -0,5 C 0,0 km/h (0 Bft) 100,00 %
03.11.2015 19:40 -0,5 C 96 % 1022,0 hPa 0,0 l/m 0,0 km/h (0 Bft) SO 131 0 min 0,000 mm 0,0 UV-I 0 W/m -1,1 C -0,5 C 0,0 km/h (0 Bft) 100,00 %
03.11.2015 19:41 -0,5 C 96 % 1022,1 hPa 0,0 l/m 0,0 km/h (0 Bft) SO 131 0 min 0,000 mm 0,0 UV-I 0 W/m -1,1 C -0,5 C 0,0 km/h (0 Bft) 100,00 %
03.11.2015 19:42 -0,4 C 96 % 1022,1 hPa 0,0 l/m 0,0 km/h (0 Bft) SO 131 0 min 0,000 mm 0,0 UV-I 0 W/m -1,0 C -0,4 C 0,0 km/h (0 Bft) 100,00 %
03.11.2015 19:43 -0,4 C 96 % 1022,1 hPa 0,0 l/m 0,5 km/h (0 Bft) SO 131 0 min 0,000 mm 0,0 UV-I 0 W/m -1,0 C -0,4 C 1,6 km/h (1 Bft) 100,00 %
03.11.2015 19:44 -0,4 C 96 % 1022,1 hPa 0,0 l/m 1,3 km/h (1 Bft) SO 131 0 min 0,000 mm 0,0 UV-I 0 W/m -1,0 C -0,4 C 1,6 km/h (1 Bft) 95,83 %
03.11.2015 19:45 -0,4 C 97 % 1022,1 hPa 0,0 l/m 1,3 km/h (1 Bft) SO 131 0 min 0,000 mm 0,0 UV-I 0 W/m -0,8 C -0,4 C 1,6 km/h (1 Bft) 100,00 %
03.11.2015 19:46 -0,4 C 97 % 1022,1 hPa 0,0 l/m 0,4 km/h (0 Bft) SO 131 0 min 0,000 mm 0,0 UV-I 0 W/m -0,8 C -0,4 C 1,6 km/h (1 Bft) 100,00 %
03.11.2015 19:47 -0,4 C 96 % 1022,1 hPa 0,0 l/m 0,2 km/h (0 Bft) SO 131 0 min 0,000 mm 0,0 UV-I 0 W/m -1,0 C -0,4 C 1,6 km/h (1 Bft) 100,00 %
03.11.2015 19:48 -0,3 C 97 % 1022,1 hPa 0,0 l/m 0,6 km/h (0 Bft) SO 131 0 min 0,000 mm 0,0 UV-I 0 W/m -0,7 C -0,3 C 1,6 km/h (1 Bft) 95,83 %
03.11.2015 19:49 -0,3 C 97 % 1022,1 hPa 0,0 l/m 0,9 km/h (0 Bft) SO 131 0 min 0,000 mm 0,0 UV-I 0 W/m -0,7 C -0,3 C 1,6 km/h (1 Bft) 96,15 %
03.11.2015 19:50 -0,3 C 97 % 1022,1 hPa 0,0 l/m 1,2 km/h (1 Bft) SO 131 0 min 0,000 mm 0,0 UV-I 0 W/m -0,7 C -0,3 C 1,6 km/h (1 Bft) 100,00 %
03.11.2015 19:51 -0,3 C 97 % 1022,1 hPa 0,0 l/m 0,9 km/h (0 Bft) SO 131 0 min 0,000 mm 0,0 UV-I 0 W/m -0,7 C -0,3 C 1,6 km/h (1 Bft) 100,00 %
03.11.2015 19:52 -0,3 C 97 % 1022,1 hPa 0,0 l/m 0,6 km/h (0 Bft) SO 131 0 min 0,000 mm 0,0 UV-I 0 W/m -0,7 C -0,3 C 1,6 km/h (1 Bft) 100,00 %
03.11.2015 19:53 -0,3 C 97 % 1022,1 hPa 0,0 l/m 0,0 km/h (0 Bft) SO 131 0 min 0,000 mm 0,0 UV-I 0 W/m -0,7 C -0,3 C 0,0 km/h (0 Bft) 92,59 %
03.11.2015 19:54 -0,3 C 97 % 1022,1 hPa 0,0 l/m 0,0 km/h (0 Bft) SO 131 0 min 0,000 mm 0,0 UV-I 0 W/m -0,7 C -0,3 C 0,0 km/h (0 Bft) 100,00 %
03.11.2015 19:55 -0,3 C 97 % 1022,1 hPa 0,0 l/m 0,0 km/h (0 Bft) SO 131 0 min 0,000 mm 0,0 UV-I 0 W/m -0,7 C -0,3 C 0,0 km/h (0 Bft) 100,00 %
03.11.2015 19:56 -0,3 C 97 % 1022,1 hPa 0,0 l/m 1,1 km/h (1 Bft) SO 131 0 min 0,000 mm 0,0 UV-I 0 W/m -0,7 C -0,3 C 1,6 km/h (1 Bft) 100,00 %
03.11.2015 19:57 -0,3 C 97 % 1022,1 hPa 0,0 l/m 1,3 km/h (1 Bft) SO 132 0 min 0,000 mm 0,0 UV-I 0 W/m -0,7 C -0,3 C 1,6 km/h (1 Bft) 100,00 %
03.11.2015 19:58 -0,3 C 97 % 1022,1 hPa 0,0 l/m 0,5 km/h (0 Bft) SO 131 0 min 0,000 mm 0,0 UV-I 0 W/m -0,7 C -0,3 C 1,6 km/h (1 Bft) 100,00 %
03.11.2015 19:59 -0,3 C 97 % 1022,2 hPa 0,0 l/m 0,0 km/h (0 Bft) SO 131 0 min 0,000 mm 0,0 UV-I 0 W/m -0,7 C -0,3 C 0,0 km/h (0 Bft) 100,00 %
03.11.2015 20:00 -0,3 C 97 % 1022,1 hPa 0,0 l/m 0,1 km/h (0 Bft) SO 131 0 min 0,000 mm 0,0 UV-I 0 W/m -0,7 C -0,3 C 1,6 km/h (1 Bft) 96,88 %
03.11.2015 20:01 -0,4 C 97 % 1022,1 hPa 0,0 l/m 0,6 km/h (0 Bft) SO 131 0 min 0,000 mm 0,0 UV-I 0 W/m -0,8 C -0,4 C 1,6 km/h (1 Bft) 100,00 %
03.11.2015 20:02 -0,5 C 96 % 1022,1 hPa 0,0 l/m 1,3 km/h (1 Bft) SO 131 0 min 0,000 mm 0,0 UV-I 0 W/m -1,1 C -0,5 C 1,6 km/h (1 Bft) 100,00 %
03.11.2015 20:03 -0,5 C 96 % 1022,2 hPa 0,0 l/m 0,9 km/h (0 Bft) SO 131 0 min 0,000 mm 0,0 UV-I 0 W/m -1,1 C -0,5 C 3,2 km/h (1 Bft) 100,00 %
03.11.2015 20:04 -0,5 C 96 % 1022,1 hPa 0,0 l/m 0,2 km/h (0 Bft) SO 131 0 min 0,000 mm 0,0 UV-I 0 W/m -1,1 C -0,5 C 1,6 km/h (1 Bft) 100,00 %
03.11.2015 20:05 -0,5 C 96 % 1022,1 hPa 0,0 l/m 0,1 km/h (0 Bft) SO 131 0 min 0,000 mm 0,0 UV-I 0 W/m -1,1 C -0,5 C 1,6 km/h (1 Bft) 100,00 %
03.11.2015 20:06 -0,5 C 96 % 1022,1 hPa 0,0 l/m 0,1 km/h (0 Bft) SO 131 0 min 0,000 mm 0,0 UV-I 0 W/m -1,1 C -0,5 C 1,6 km/h (1 Bft) 95,65 %
03.11.2015 20:07 -0,4 C 96 % 1022,1 hPa 0,0 l/m 0,6 km/h (0 Bft) SO 131 0 min 0,000 mm 0,0 UV-I 0 W/m -1,0 C -0,4 C 1,6 km/h (1 Bft) 100,00 %
03.11.2015 20:08 -0,4 C 97 % 1022,1 hPa 0,0 l/m 0,1 km/h (0 Bft) SO 131 0 min 0,000 mm 0,0 UV-I 0 W/m -0,8 C -0,4 C 1,6 km/h (1 Bft) 100,00 %
03.11.2015 20:09 -0,3 C 97 % 1022,1 hPa 0,0 l/m 0,0 km/h (0 Bft) SO 131 0 min 0,000 mm 0,0 UV-I 0 W/m -0,7 C -0,3 C 0,0 km/h (0 Bft) 100,00 %
03.11.2015 20:10 -0,3 C 97 % 1022,1 hPa 0,0 l/m 0,3 km/h (0 Bft) SO 131 0 min 0,000 mm 0,0 UV-I 0 W/m -0,7 C -0,3 C 1,6 km/h (1 Bft) 100,00 %
03.11.2015 20:11 -0,3 C 97 % 1022,1 hPa 0,0 l/m 0,6 km/h (0 Bft) SO 131 0 min 0,000 mm 0,0 UV-I 0 W/m -0,7 C -0,3 C 1,6 km/h (1 Bft) 100,00 %
03.11.2015 20:12 -0,3 C 97 % 1022,1 hPa 0,0 l/m 0,2 km/h (0 Bft) SO 131 0 min 0,000 mm 0,0 UV-I 0 W/m -0,7 C -0,3 C 1,6 km/h (1 Bft) 100,00 %
03.11.2015 20:13 -0,3 C 97 % 1022,1 hPa 0,0 l/m 0,0 km/h (0 Bft) SO 131 0 min 0,000 mm 0,0 UV-I 0 W/m -0,7 C -0,3 C 0,0 km/h (0 Bft) 100,00 %
03.11.2015 20:14 -0,3 C 97 % 1022,2 hPa 0,0 l/m 0,3 km/h (0 Bft) SO 131 0 min 0,000 mm 0,0 UV-I 0 W/m -0,7 C -0,3 C 1,6 km/h (1 Bft) 100,00 %
03.11.2015 20:15 -0,3 C 97 % 1022,2 hPa 0,0 l/m 1,4 km/h (1 Bft) SO 131 0 min 0,000 mm 0,0 UV-I 0 W/m -0,7 C -0,3 C 3,2 km/h (1 Bft) 96,15 %
03.11.2015 20:16 -0,2 C 97 % 1022,2 hPa 0,0 l/m 1,7 km/h (1 Bft) SO 132 0 min 0,000 mm 0,0 UV-I 0 W/m -0,6 C -0,2 C 3,2 km/h (1 Bft) 100,00 %
03.11.2015 20:17 -0,2 C 97 % 1022,2 hPa 0,0 l/m 1,4 km/h (1 Bft) SO 132 0 min 0,000 mm 0,0 UV-I 0 W/m -0,6 C -0,2 C 1,6 km/h (1 Bft) 100,00 %
03.11.2015 20:18 -0,1 C 97 % 1022,3 hPa 0,0 l/m 1,3 km/h (1 Bft) SO 132 0 min 0,000 mm 0,0 UV-I 0 W/m -0,5 C -0,1 C 1,6 km/h (1 Bft) 100,00 %
03.11.2015 20:19 -0,1 C 97 % 1022,2 hPa 0,0 l/m 0,8 km/h (0 Bft) SO 132 0 min 0,000 mm 0,0 UV-I 0 W/m -0,5 C -0,1 C 1,6 km/h (1 Bft) 96,15 %
03.11.2015 20:20 -0,1 C 97 % 1022,2 hPa 0,0 l/m 0,8 km/h (0 Bft) SO 132 0 min 0,000 mm 0,0 UV-I 0 W/m -0,5 C -0,1 C 1,6 km/h (1 Bft) 100,00 %
03.11.2015 20:21 -0,1 C 97 % 1022,2 hPa 0,0 l/m 0,1 km/h (0 Bft) SO 132 0 min 0,000 mm 0,0 UV-I 0 W/m -0,5 C -0,1 C 1,6 km/h (1 Bft) 96,15 %
03.11.2015 20:22 0,0 C 97 % 1022,2 hPa 0,0 l/m 0,1 km/h (0 Bft) SO 132 0 min 0,000 mm 0,0 UV-I 0 W/m -0,4 C 0,0 C 1,6 km/h (1 Bft) 100,00 %
03.11.2015 20:23 0,0 C 97 % 1022,2 hPa 0,0 l/m 0,0 km/h (0 Bft) SO 132 0 min 0,000 mm 0,0 UV-I 0 W/m -0,4 C 0,0 C 0,0 km/h (0 Bft) 99,17 %
03.11.2015 20:24 -0,1 C 97 % 1022,2 hPa 0,0 l/m 0,1 km/h (0 Bft) SO 132 0 min 0,000 mm 0,0 UV-I 0 W/m -0,5 C -0,1 C 1,6 km/h (1 Bft) 100,00 %
03.11.2015 20:25 -0,1 C 97 % 1022,2 hPa 0,0 l/m 0,0 km/h (0 Bft) SO 132 0 min 0,000 mm 0,0 UV-I 0 W/m -0,5 C -0,1 C 0,0 km/h (0 Bft) 96,15 %
03.11.2015 20:26 -0,1 C 97 % 1022,2 hPa 0,0 l/m 0,0 km/h (0 Bft) SO 132 0 min 0,000 mm 0,0 UV-I 0 W/m -0,5 C -0,1 C 0,0 km/h (0 Bft) 100,00 %
03.11.2015 20:27 -0,1 C 97 % 1022,2 hPa 0,0 l/m 0,0 km/h (0 Bft) SO 132 0 min 0,000 mm 0,0 UV-I 0 W/m -0,5 C -0,1 C 0,0 km/h (0 Bft) 100,00 %
03.11.2015 20:28 -0,1 C 97 % 1022,2 hPa 0,0 l/m 0,0 km/h (0 Bft) SO 132 0 min 0,000 mm 0,0 UV-I 0 W/m -0,5 C -0,1 C 0,0 km/h (0 Bft) 100,00 %
03.11.2015 20:29 -0,1 C 97 % 1022,2 hPa 0,0 l/m 0,0 km/h (0 Bft) SO 132 0 min 0,000 mm 0,0 UV-I 0 W/m -0,5 C -0,1 C 0,0 km/h (0 Bft) 100,00 %
03.11.2015 20:30 -0,1 C 97 % 1022,2 hPa 0,0 l/m 0,1 km/h (0 Bft) SO 132 0 min 0,000 mm 0,0 UV-I 0 W/m -0,5 C -0,1 C 1,6 km/h (1 Bft) 100,00 %
03.11.2015 20:31 -0,1 C 97 % 1022,2 hPa 0,0 l/m 0,0 km/h (0 Bft) SO 132 0 min 0,000 mm 0,0 UV-I 0 W/m -0,5 C -0,1 C 0,0 km/h (0 Bft) 100,00 %
03.11.2015 20:32 0,0 C 97 % 1022,2 hPa 0,0 l/m 0,0 km/h (0 Bft) SO 132 0 min 0,000 mm 0,0 UV-I 0 W/m -0,4 C 0,0 C 0,0 km/h (0 Bft) 100,00 %
03.11.2015 20:33 0,0 C 97 % 1022,2 hPa 0,0 l/m 0,0 km/h (0 Bft) SO 132 0 min 0,000 mm 0,0 UV-I 0 W/m -0,4 C 0,0 C 0,0 km/h (0 Bft) 100,00 %
03.11.2015 20:34 0,0 C 97 % 1022,2 hPa 0,0 l/m 0,0 km/h (0 Bft) SO 132 0 min 0,000 mm 0,0 UV-I 0 W/m -0,4 C 0,0 C 0,0 km/h (0 Bft) 100,00 %
03.11.2015 20:35 0,0 C 97 % 1022,3 hPa 0,0 l/m 0,0 km/h (0 Bft) SO 132 0 min 0,000 mm 0,0 UV-I 0 W/m -0,4 C 0,0 C 0,0 km/h (0 Bft) 100,00 %
03.11.2015 20:36 0,0 C 97 % 1022,2 hPa 0,0 l/m 0,0 km/h (0 Bft) SO 132 0 min 0,000 mm 0,0 UV-I 0 W/m -0,4 C 0,0 C 0,0 km/h (0 Bft) 95,65 %
03.11.2015 20:37 0,1 C 97 % 1022,2 hPa 0,0 l/m 0,0 km/h (0 Bft) SO 132 0 min 0,000 mm 0,0 UV-I 0 W/m -0,3 C 0,1 C 0,0 km/h (0 Bft) 100,00 %
03.11.2015 20:38 0,1 C 97 % 1022,2 hPa 0,0 l/m 0,0 km/h (0 Bft) SO 132 0 min 0,000 mm 0,0 UV-I 0 W/m -0,3 C 0,1 C 0,0 km/h (0 Bft) 92,86 %
03.11.2015 20:39 0,0 C 97 % 1022,2 hPa 0,0 l/m 0,0 km/h (0 Bft) SO 132 0 min 0,000 mm 0,0 UV-I 0 W/m -0,4 C 0,0 C 0,0 km/h (0 Bft) 100,00 %
03.11.2015 20:40 0,1 C 97 % 1022,2 hPa 0,0 l/m 0,0 km/h (0 Bft) SO 132 0 min 0,000 mm 0,0 UV-I 0 W/m -0,3 C 0,1 C 0,0 km/h (0 Bft) 96,15 %
03.11.2015 20:41 0,1 C 97 % 1022,2 hPa 0,0 l/m 0,0 km/h (0 Bft) SO 132 0 min 0,000 mm 0,0 UV-I 0 W/m -0,3 C 0,1 C 0,0 km/h (0 Bft) 95,83 %
03.11.2015 20:42 0,1 C 97 % 1022,2 hPa 0,0 l/m 0,1 km/h (0 Bft) SO 132 0 min 0,000 mm 0,0 UV-I 0 W/m -0,3 C 0,1 C 1,6 km/h (1 Bft) 100,00 %
03.11.2015 20:43 0,1 C 97 % 1022,2 hPa 0,0 l/m 0,2 km/h (0 Bft) SO 132 0 min 0,000 mm 0,0 UV-I 0 W/m -0,3 C 0,1 C 1,6 km/h (1 Bft) 100,00 %
03.11.2015 20:44 0,1 C 97 % 1022,2 hPa 0,0 l/m 0,8 km/h (0 Bft) SO 132 0 min 0,000 mm 0,0 UV-I 0 W/m -0,3 C 0,1 C 1,6 km/h (1 Bft) 100,00 %
03.11.2015 20:45 0,1 C 97 % 1022,2 hPa 0,0 l/m 0,8 km/h (0 Bft) SO 132 0 min 0,000 mm 0,0 UV-I 0 W/m -0,3 C 0,1 C 1,6 km/h (1 Bft) 100,00 %
03.11.2015 20:46 0,0 C 97 % 1022,2 hPa 0,0 l/m 1,0 km/h (0 Bft) SO 132 0 min 0,000 mm 0,0 UV-I 0 W/m -0,4 C 0,0 C 1,6 km/h (1 Bft) 100,00 %
03.11.2015 20:47 0,0 C 97 % 1022,3 hPa 0,0 l/m 0,4 km/h (0 Bft) SO 132 0 min 0,000 mm 0,0 UV-I 0 W/m -0,4 C 0,0 C 1,6 km/h (1 Bft) 100,00 %
03.11.2015 20:48 0,0 C 97 % 1022,2 hPa 0,0 l/m 0,8 km/h (0 Bft) SO 132 0 min 0,000 mm 0,0 UV-I 0 W/m -0,4 C 0,0 C 1,6 km/h (1 Bft) 100,00 %
03.11.2015 20:49 0,0 C 97 % 1022,2 hPa 0,0 l/m 0,3 km/h (0 Bft) SO 132 0 min 0,000 mm 0,0 UV-I 0 W/m -0,4 C 0,0 C 1,6 km/h (1 Bft) 100,00 %
03.11.2015 20:50 0,0 C 97 % 1022,2 hPa 0,0 l/m 0,0 km/h (0 Bft) SO 132 0 min 0,000 mm 0,0 UV-I 0 W/m -0,4 C 0,0 C 0,0 km/h (0 Bft) 100,00 %
03.11.2015 20:51 0,0 C 97 % 1022,2 hPa 0,0 l/m 0,0 km/h (0 Bft) SO 132 0 min 0,000 mm 0,0 UV-I 0 W/m -0,4 C 0,0 C 0,0 km/h (0 Bft) 100,00 %
03.11.2015 20:52 0,0 C 97 % 1022,2 hPa 0,0 l/m 0,0 km/h (0 Bft) SO 132 0 min 0,000 mm 0,0 UV-I 0 W/m -0,4 C 0,0 C 0,0 km/h (0 Bft) 100,00 %
03.11.2015 20:53 0,1 C 97 % 1022,2 hPa 0,0 l/m 0,1 km/h (0 Bft) SO 132 0 min 0,000 mm 0,0 UV-I 0 W/m -0,3 C 0,1 C 1,6 km/h (1 Bft) 100,00 %
03.11.2015 20:54 0,1 C 97 % 1022,3 hPa 0,0 l/m 0,2 km/h (0 Bft) SO 132 0 min 0,000 mm 0,0 UV-I 0 W/m -0,3 C 0,1 C 1,6 km/h (1 Bft) 100,00 %
03.11.2015 20:55 0,1 C 97 % 1022,2 hPa 0,0 l/m 0,5 km/h (0 Bft) SO 132 0 min 0,000 mm 0,0 UV-I 0 W/m -0,3 C 0,1 C 1,6 km/h (1 Bft) 100,00 %
03.11.2015 20:56 0,1 C 97 % 1022,4 hPa 0,0 l/m 0,3 km/h (0 Bft) SO 132 0 min 0,000 mm 0,0 UV-I 0 W/m -0,3 C 0,1 C 1,6 km/h (1 Bft) 100,00 %
03.11.2015 20:57 0,2 C 97 % 1022,3 hPa 0,0 l/m 0,4 km/h (0 Bft) SO 132 0 min 0,000 mm 0,0 UV-I 0 W/m -0,2 C 0,2 C 1,6 km/h (1 Bft) 100,00 %
03.11.2015 20:58 0,2 C 97 % 1022,3 hPa 0,0 l/m 0,0 km/h (0 Bft) SO 132 0 min 0,000 mm 0,0 UV-I 0 W/m -0,2 C 0,2 C 0,0 km/h (0 Bft) 100,00 %
03.11.2015 20:59 0,2 C 97 % 1022,3 hPa 0,0 l/m 0,2 km/h (0 Bft) SO 132 0 min 0,000 mm 0,0 UV-I 0 W/m -0,2 C 0,2 C 1,6 km/h (1 Bft) 96,55 %
03.11.2015 21:00 0,2 C 97 % 1022,3 hPa 0,0 l/m 0,0 km/h (0 Bft) SO 132 0 min 0,000 mm 0,0 UV-I 0 W/m -0,2 C 0,2 C 0,0 km/h (0 Bft) 100,00 %
03.11.2015 21:01 0,2 C 97 % 1022,3 hPa 0,0 l/m 0,0 km/h (0 Bft) SO 132 0 min 0,000 mm 0,0 UV-I 0 W/m -0,2 C 0,2 C 0,0 km/h (0 Bft) 100,00 %
03.11.2015 21:02 0,2 C 97 % 1022,4 hPa 0,0 l/m 0,2 km/h (0 Bft) SO 132 0 min 0,000 mm 0,0 UV-I 0 W/m -0,2 C 0,2 C 1,6 km/h (1 Bft) 100,00 %
03.11.2015 21:03 0,2 C 97 % 1022,4 hPa 0,0 l/m 0,1 km/h (0 Bft) SO 132 0 min 0,000 mm 0,0 UV-I 0 W/m -0,2 C 0,2 C 1,6 km/h (1 Bft) 91,30 %
03.11.2015 21:04 0,3 C 97 % 1022,4 hPa 0,0 l/m 0,1 km/h (0 Bft) SO 132 0 min 0,000 mm 0,0 UV-I 0 W/m -0,1 C 0,3 C 1,6 km/h (1 Bft) 100,00 %
03.11.2015 21:05 0,3 C 97 % 1022,4 hPa 0,0 l/m 0,7 km/h (0 Bft) SO 132 0 min 0,000 mm 0,0 UV-I 0 W/m -0,1 C 0,3 C 1,6 km/h (1 Bft) 99,17 %
03.11.2015 21:06 0,3 C 97 % 1022,4 hPa 0,0 l/m 1,7 km/h (1 Bft) SO 146 0 min 0,000 mm 0,0 UV-I 0 W/m -0,1 C 0,3 C 3,2 km/h (1 Bft) 100,00 %
03.11.2015 21:07 0,3 C 97 % 1022,4 hPa 0,0 l/m 1,0 km/h (0 Bft) SO 146 0 min 0,000 mm 0,0 UV-I 0 W/m -0,1 C 0,3 C 3,2 km/h (1 Bft) 100,00 %
03.11.2015 21:08 0,3 C 97 % 1022,4 hPa 0,0 l/m 0,7 km/h (0 Bft) SO 146 0 min 0,000 mm 0,0 UV-I 0 W/m -0,1 C 0,3 C 1,6 km/h (1 Bft) 97,37 %
03.11.2015 21:09 0,3 C 97 % 1022,4 hPa 0,0 l/m 1,3 km/h (1 Bft) SO 146 0 min 0,000 mm 0,0 UV-I 0 W/m -0,1 C 0,3 C 1,6 km/h (1 Bft) 100,00 %
03.11.2015 21:10 0,3 C 97 % 1022,4 hPa 0,0 l/m 0,5 km/h (0 Bft) SO 146 0 min 0,000 mm 0,0 UV-I 0 W/m -0,1 C 0,3 C 1,6 km/h (1 Bft) 100,00 %
03.11.2015 21:11 0,3 C 97 % 1022,4 hPa 0,0 l/m 0,0 km/h (0 Bft) SO 146 0 min 0,000 mm 0,0 UV-I 0 W/m -0,1 C 0,3 C 0,0 km/h (0 Bft) 100,00 %
03.11.2015 21:12 0,3 C 97 % 1022,4 hPa 0,0 l/m 0,5 km/h (0 Bft) SO 146 0 min 0,000 mm 0,0 UV-I 0 W/m -0,1 C 0,3 C 1,6 km/h (1 Bft) 100,00 %
03.11.2015 21:13 0,3 C 97 % 1022,4 hPa 0,0 l/m 1,6 km/h (1 Bft) S-SO 147 0 min 0,000 mm 0,0 UV-I 0 W/m -0,1 C 0,3 C 3,2 km/h (1 Bft) 100,00 %
03.11.2015 21:14 0,3 C 97 % 1022,4 hPa 0,0 l/m 0,8 km/h (0 Bft) S-SO 147 0 min 0,000 mm 0,0 UV-I 0 W/m -0,1 C 0,3 C 1,6 km/h (1 Bft) 100,00 %
03.11.2015 21:15 0,3 C 97 % 1022,5 hPa 0,0 l/m 0,6 km/h (0 Bft) S-SO 147 0 min 0,000 mm 0,0 UV-I 0 W/m -0,1 C 0,3 C 1,6 km/h (1 Bft) 100,00 %
03.11.2015 21:16 0,3 C 97 % 1022,5 hPa 0,0 l/m 0,1 km/h (0 Bft) S-SO 147 0 min 0,000 mm 0,0 UV-I 0 W/m -0,1 C 0,3 C 1,6 km/h (1 Bft) 100,00 %
03.11.2015 21:17 0,3 C 97 % 1022,6 hPa 0,0 l/m 1,3 km/h (1 Bft) S-SO 147 0 min 0,000 mm 0,0 UV-I 0 W/m -0,1 C 0,3 C 3,2 km/h (1 Bft) 100,00 %
03.11.2015 21:18 0,3 C 97 % 1022,6 hPa 0,0 l/m 1,6 km/h (1 Bft) S-SO 155 0 min 0,000 mm 0,0 UV-I 0 W/m -0,1 C 0,3 C 3,2 km/h (1 Bft) 100,00 %
03.11.2015 21:19 0,3 C 97 % 1022,6 hPa 0,0 l/m 1,7 km/h (1 Bft) S-SO 157 0 min 0,000 mm 0,0 UV-I 0 W/m -0,1 C 0,3 C 3,2 km/h (1 Bft) 100,00 %
03.11.2015 21:20 0,3 C 97 % 1022,6 hPa 0,0 l/m 1,5 km/h (1 Bft) S-SO 157 0 min 0,000 mm 0,0 UV-I 0 W/m -0,1 C 0,3 C 3,2 km/h (1 Bft) 95,65 %
03.11.2015 21:21 0,3 C 97 % 1022,6 hPa 0,0 l/m 1,1 km/h (1 Bft) S-SO 157 0 min 0,000 mm 0,0 UV-I 0 W/m -0,1 C 0,3 C 1,6 km/h (1 Bft) 95,83 %
03.11.2015 21:22 0,3 C 97 % 1022,6 hPa 0,0 l/m 0,3 km/h (0 Bft) S-SO 157 0 min 0,000 mm 0,0 UV-I 0 W/m -0,1 C 0,3 C 1,6 km/h (1 Bft) 100,00 %
03.11.2015 21:23 0,3 C 97 % 1022,6 hPa 0,0 l/m 0,9 km/h (0 Bft) S-SO 157 0 min 0,000 mm 0,0 UV-I 0 W/m -0,1 C 0,3 C 1,6 km/h (1 Bft) 100,00 %
03.11.2015 21:24 0,3 C 97 % 1022,6 hPa 0,0 l/m 0,7 km/h (0 Bft) S-SO 157 0 min 0,000 mm 0,0 UV-I 0 W/m -0,1 C 0,3 C 1,6 km/h (1 Bft) 100,00 %
03.11.2015 21:25 0,3 C 97 % 1022,6 hPa 0,0 l/m 0,2 km/h (0 Bft) S-SO 157 0 min 0,000 mm 0,0 UV-I 0 W/m -0,1 C 0,3 C 1,6 km/h (1 Bft) 100,00 %
03.11.2015 21:26 0,3 C 97 % 1022,6 hPa 0,0 l/m 0,0 km/h (0 Bft) S-SO 157 0 min 0,000 mm 0,0 UV-I 0 W/m -0,1 C 0,3 C 0,0 km/h (0 Bft) 100,00 %
03.11.2015 21:27 0,3 C 97 % 1022,7 hPa 0,0 l/m 0,5 km/h (0 Bft) S-SO 157 0 min 0,000 mm 0,0 UV-I 0 W/m -0,1 C 0,3 C 1,6 km/h (1 Bft) 100,00 %
03.11.2015 21:28 0,4 C 97 % 1022,7 hPa 0,0 l/m 0,0 km/h (0 Bft) S-SO 157 0 min 0,000 mm 0,0 UV-I 0 W/m -0,0 C 0,4 C 0,0 km/h (0 Bft) 100,00 %
03.11.2015 21:29 0,4 C 97 % 1022,6 hPa 0,0 l/m 0,1 km/h (0 Bft) S-SO 157 0 min 0,000 mm 0,0 UV-I 0 W/m -0,0 C 0,4 C 1,6 km/h (1 Bft) 100,00 %
03.11.2015 21:30 0,4 C 97 % 1022,6 hPa 0,0 l/m 0,3 km/h (0 Bft) S-SO 157 0 min 0,000 mm 0,0 UV-I 0 W/m -0,0 C 0,4 C 1,6 km/h (1 Bft) 100,00 %
03.11.2015 21:31 0,4 C 97 % 1022,6 hPa 0,0 l/m 0,0 km/h (0 Bft) S-SO 157 0 min 0,000 mm 0,0 UV-I 0 W/m -0,0 C 0,4 C 0,0 km/h (0 Bft) 100,00 %
03.11.2015 21:32 0,4 C 97 % 1022,6 hPa 0,0 l/m 0,0 km/h (0 Bft) S-SO 157 0 min 0,000 mm 0,0 UV-I 0 W/m -0,0 C 0,4 C 0,0 km/h (0 Bft) 100,00 %
03.11.2015 21:33 0,5 C 97 % 1022,6 hPa 0,0 l/m 0,0 km/h (0 Bft) S-SO 157 0 min 0,000 mm 0,0 UV-I 0 W/m 0,1 C 0,5 C 0,0 km/h (0 Bft) 100,00 %
03.11.2015 21:34 0,5 C 97 % 1022,6 hPa 0,0 l/m 0,0 km/h (0 Bft) S-SO 157 0 min 0,000 mm 0,0 UV-I 0 W/m 0,1 C 0,5 C 0,0 km/h (0 Bft) 100,00 %
03.11.2015 21:35 0,6 C 97 % 1022,7 hPa 0,0 l/m 0,0 km/h (0 Bft) S-SO 157 0 min 0,000 mm 0,0 UV-I 0 W/m 0,2 C 0,6 C 0,0 km/h (0 Bft) 100,00 %
03.11.2015 21:36 0,6 C 97 % 1022,6 hPa 0,0 l/m 0,0 km/h (0 Bft) S-SO 157 0 min 0,000 mm 0,0 UV-I 0 W/m 0,2 C 0,6 C 0,0 km/h (0 Bft) 100,00 %
03.11.2015 21:37 0,6 C 97 % 1022,7 hPa 0,0 l/m 0,0 km/h (0 Bft) S-SO 157 0 min 0,000 mm 0,0 UV-I 0 W/m 0,2 C 0,6 C 0,0 km/h (0 Bft) 100,00 %
03.11.2015 21:38 0,6 C 97 % 1022,7 hPa 0,0 l/m 0,1 km/h (0 Bft) S-SO 157 0 min 0,000 mm 0,0 UV-I 0 W/m 0,2 C 0,6 C 1,6 km/h (1 Bft) 100,00 %
03.11.2015 21:39 0,6 C 98 % 1022,7 hPa 0,0 l/m 0,4 km/h (0 Bft) S-SO 157 0 min 0,000 mm 0,0 UV-I 0 W/m 0,3 C 0,6 C 1,6 km/h (1 Bft) 100,00 %
03.11.2015 21:40 0,7 C 98 % 1022,8 hPa 0,0 l/m 0,7 km/h (0 Bft) S-SO 158 0 min 0,000 mm 0,0 UV-I 0 W/m 0,4 C 0,7 C 3,2 km/h (1 Bft) 100,00 %
03.11.2015 21:41 0,7 C 98 % 1022,7 hPa 0,0 l/m 0,8 km/h (0 Bft) S-SO 158 0 min 0,000 mm 0,0 UV-I 0 W/m 0,4 C 0,7 C 1,6 km/h (1 Bft) 100,00 %
03.11.2015 21:42 0,7 C 98 % 1022,8 hPa 0,0 l/m 1,0 km/h (0 Bft) S-SO 158 0 min 0,000 mm 0,0 UV-I 0 W/m 0,4 C 0,7 C 1,6 km/h (1 Bft) 96,30 %
03.11.2015 21:43 0,7 C 98 % 1022,8 hPa 0,0 l/m 1,2 km/h (1 Bft) S-SO 158 0 min 0,000 mm 0,0 UV-I 0 W/m 0,4 C 0,7 C 1,6 km/h (1 Bft) 100,00 %
03.11.2015 21:44 0,7 C 98 % 1022,7 hPa 0,0 l/m 0,4 km/h (0 Bft) S-SO 158 0 min 0,000 mm 0,0 UV-I 0 W/m 0,4 C 0,7 C 1,6 km/h (1 Bft) 100,00 %
03.11.2015 21:45 0,6 C 98 % 1022,7 hPa 0,0 l/m 1,2 km/h (1 Bft) S-SO 158 0 min 0,000 mm 0,0 UV-I 0 W/m 0,3 C 0,6 C 1,6 km/h (1 Bft) 96,15 %
03.11.2015 21:46 0,6 C 98 % 1022,8 hPa 0,0 l/m 1,0 km/h (0 Bft) S-SO 158 0 min 0,000 mm 0,0 UV-I 0 W/m 0,3 C 0,6 C 1,6 km/h (1 Bft) 91,67 %
03.11.2015 21:47 0,7 C 98 % 1022,8 hPa 0,0 l/m 0,7 km/h (0 Bft) S-SO 158 0 min 0,000 mm 0,0 UV-I 0 W/m 0,4 C 0,7 C 1,6 km/h (1 Bft) 100,00 %
03.11.2015 21:48 0,7 C 98 % 1022,8 hPa 0,0 l/m 0,1 km/h (0 Bft) S-SO 158 0 min 0,000 mm 0,0 UV-I 0 W/m 0,4 C 0,7 C 1,6 km/h (1 Bft) 96,15 %
03.11.2015 21:49 0,7 C 98 % 1022,8 hPa 0,0 l/m 0,0 km/h (0 Bft) S-SO 158 0 min 0,000 mm 0,0 UV-I 0 W/m 0,4 C 0,7 C 0,0 km/h (0 Bft) 100,00 %
03.11.2015 21:50 0,7 C 98 % 1022,8 hPa 0,0 l/m 0,0 km/h (0 Bft) S-SO 158 0 min 0,000 mm 0,0 UV-I 0 W/m 0,4 C 0,7 C 0,0 km/h (0 Bft) 100,00 %
03.11.2015 21:51 0,7 C 98 % 1022,8 hPa 0,0 l/m 0,0 km/h (0 Bft) S-SO 158 0 min 0,000 mm 0,0 UV-I 0 W/m 0,4 C 0,7 C 0,0 km/h (0 Bft) 100,00 %
03.11.2015 21:52 0,7 C 98 % 1022,8 hPa 0,0 l/m 0,3 km/h (0 Bft) S-SO 158 0 min 0,000 mm 0,0 UV-I 0 W/m 0,4 C 0,7 C 1,6 km/h (1 Bft) 100,00 %
03.11.2015 21:53 0,8 C 98 % 1022,8 hPa 0,0 l/m 0,5 km/h (0 Bft) S-SO 158 0 min 0,000 mm 0,0 UV-I 0 W/m 0,5 C 0,8 C 1,6 km/h (1 Bft) 100,00 %
03.11.2015 21:54 0,8 C 98 % 1022,8 hPa 0,0 l/m 0,7 km/h (0 Bft) S-SO 158 0 min 0,000 mm 0,0 UV-I 0 W/m 0,5 C 0,8 C 1,6 km/h (1 Bft) 100,00 %
03.11.2015 21:55 0,8 C 98 % 1022,9 hPa 0,0 l/m 0,1 km/h (0 Bft) S-SO 158 0 min 0,000 mm 0,0 UV-I 0 W/m 0,5 C 0,8 C 1,6 km/h (1 Bft) 100,00 %
03.11.2015 21:56 0,8 C 98 % 1022,9 hPa 0,0 l/m 0,0 km/h (0 Bft) S-SO 158 0 min 0,000 mm 0,0 UV-I 0 W/m 0,5 C 0,8 C 0,0 km/h (0 Bft) 96,15 %
03.11.2015 21:57 0,8 C 98 % 1022,9 hPa 0,0 l/m 0,0 km/h (0 Bft) S-SO 158 0 min 0,000 mm 0,0 UV-I 0 W/m 0,5 C 0,8 C 0,0 km/h (0 Bft) 100,00 %
03.11.2015 21:58 0,8 C 98 % 1022,8 hPa 0,0 l/m 0,0 km/h (0 Bft) S-SO 158 0 min 0,000 mm 0,0 UV-I 0 W/m 0,5 C 0,8 C 0,0 km/h (0 Bft) 100,00 %
03.11.2015 21:59 0,8 C 98 % 1022,8 hPa 0,0 l/m 0,0 km/h (0 Bft) S-SO 158 0 min 0,000 mm 0,0 UV-I 0 W/m 0,5 C 0,8 C 0,0 km/h (0 Bft) 91,67 %
03.11.2015 22:00 0,8 C 98 % 1022,8 hPa 0,0 l/m 0,0 km/h (0 Bft) N 0 0 min 0,000 mm 0,0 UV-I 0 W/m 0,5 C 0,8 C 0,0 km/h (0 Bft) 100,00 %
03.11.2015 22:03 0,9 C 98 % 1022,7 hPa 0,0 l/m 0,2 km/h (0 Bft) S-SO 158 0 min 0,000 mm 0,0 UV-I 0 W/m 0,6 C 0,9 C 1,6 km/h (1 Bft) 98,15 %
03.11.2015 22:04 0,9 C 98 % 1022,8 hPa 0,0 l/m 0,0 km/h (0 Bft) S-SO 158 0 min 0,000 mm 0,0 UV-I 0 W/m 0,6 C 0,9 C 0,0 km/h (0 Bft) 100,00 %
03.11.2015 22:05 0,9 C 98 % 1022,8 hPa 0,0 l/m 0,5 km/h (0 Bft) S-SO 159 0 min 0,000 mm 0,0 UV-I 0 W/m 0,6 C 0,9 C 1,6 km/h (1 Bft) 100,00 %
03.11.2015 22:06 1,0 C 98 % 1022,8 hPa 0,0 l/m 0,1 km/h (0 Bft) S-SO 159 0 min 0,000 mm 0,0 UV-I 0 W/m 0,7 C 1,0 C 1,6 km/h (1 Bft) 100,00 %
03.11.2015 22:07 1,0 C 98 % 1022,8 hPa 0,0 l/m 0,5 km/h (0 Bft) S-SO 161 0 min 0,000 mm 0,0 UV-I 0 W/m 0,7 C 1,0 C 1,6 km/h (1 Bft) 100,00 %
03.11.2015 22:08 1,1 C 98 % 1022,8 hPa 0,0 l/m 0,0 km/h (0 Bft) S-SO 161 0 min 0,000 mm 0,0 UV-I 0 W/m 0,8 C 1,1 C 0,0 km/h (0 Bft) 100,00 %
03.11.2015 22:09 1,1 C 98 % 1022,8 hPa 0,0 l/m 0,9 km/h (0 Bft) S-SO 161 0 min 0,000 mm 0,0 UV-I 0 W/m 0,8 C 1,1 C 1,6 km/h (1 Bft) 100,00 %
03.11.2015 22:10 1,1 C 98 % 1022,8 hPa 0,0 l/m 0,0 km/h (0 Bft) S-SO 157 0 min 0,000 mm 0,0 UV-I 0 W/m 0,8 C 1,1 C 1,6 km/h (1 Bft) 100,00 %
03.11.2015 22:15 1,1 C 98 % 1022,9 hPa 0,0 l/m 0,5 km/h (0 Bft) S-SO 161 0 min 0,000 mm 0,0 UV-I 0 W/m 0,8 C 1,1 C 1,6 km/h (1 Bft) 99,33 %
03.11.2015 22:16 1,1 C 98 % 1022,9 hPa 0,0 l/m 1,0 km/h (0 Bft) S 175 0 min 0,000 mm 0,0 UV-I 0 W/m 0,8 C 1,1 C 1,6 km/h (1 Bft) 100,00 %
03.11.2015 22:17 1,1 C 98 % 1022,9 hPa 0,0 l/m 0,7 km/h (0 Bft) S 175 0 min 0,000 mm 0,0 UV-I 0 W/m 0,8 C 1,1 C 1,6 km/h (1 Bft) 100,00 %
03.11.2015 22:20 1,2 C 98 % 1022,9 hPa 0,0 l/m 0,0 km/h (0 Bft) S 180 0 min 0,000 mm 0,0 UV-I 0 W/m 0,9 C 1,2 C 1,6 km/h (1 Bft) 100,00 %
03.11.2015 22:25 1,2 C 98 % 1022,8 hPa 0,0 l/m 0,0 km/h (0 Bft) S 180 0 min 0,000 mm 0,0 UV-I 0 W/m 0,9 C 1,2 C 1,6 km/h (1 Bft) 100,00 %
03.11.2015 22:29 1,3 C 98 % 1022,9 hPa 0,0 l/m 0,0 km/h (0 Bft) S 175 0 min 0,000 mm 0,0 UV-I 0 W/m 1,0 C 1,3 C 0,0 km/h (0 Bft) 99,64 %
03.11.2015 22:30 1,3 C 98 % 1022,8 hPa 0,0 l/m 1,0 km/h (0 Bft) S 175 0 min 0,000 mm 0,0 UV-I 0 W/m 1,0 C 1,3 C 1,6 km/h (1 Bft) 100,00 %
03.11.2015 22:31 1,3 C 98 % 1022,9 hPa 0,0 l/m 1,1 km/h (1 Bft) S 175 0 min 0,000 mm 0,0 UV-I 0 W/m 1,0 C 1,3 C 1,6 km/h (1 Bft) 95,65 %
03.11.2015 22:32 1,3 C 98 % 1022,9 hPa 0,0 l/m 0,2 km/h (0 Bft) S 175 0 min 0,000 mm 0,0 UV-I 0 W/m 1,0 C 1,3 C 1,6 km/h (1 Bft) 100,00 %
03.11.2015 22:33 1,3 C 98 % 1022,8 hPa 0,0 l/m 0,0 km/h (0 Bft) S 175 0 min 0,000 mm 0,0 UV-I 0 W/m 1,0 C 1,3 C 0,0 km/h (0 Bft) 97,37 %
03.11.2015 22:35 1,3 C 98 % 1022,8 hPa 0,0 l/m 0,0 km/h (0 Bft) S 180 0 min 0,000 mm 0,0 UV-I 0 W/m 1,0 C 1,3 C 1,6 km/h (1 Bft) 100,00 %
03.11.2015 22:39 1,3 C 98 % 1022,7 hPa 0,0 l/m 0,0 km/h (0 Bft) S 175 0 min 0,000 mm 0,0 UV-I 0 W/m 1,0 C 1,3 C 0,0 km/h (0 Bft) 100,00 %
03.11.2015 22:40 1,3 C 98 % 1022,7 hPa 0,0 l/m 0,0 km/h (0 Bft) S 175 0 min 0,000 mm 0,0 UV-I 0 W/m 1,0 C 1,3 C 0,0 km/h (0 Bft) 100,00 %
03.11.2015 22:41 1,3 C 98 % 1022,8 hPa 0,0 l/m 0,0 km/h (0 Bft) S 175 0 min 0,000 mm 0,0 UV-I 0 W/m 1,0 C 1,3 C 0,0 km/h (0 Bft) 95,83 %
03.11.2015 22:42 1,3 C 98 % 1022,8 hPa 0,0 l/m 0,0 km/h (0 Bft) S 175 0 min 0,000 mm 0,0 UV-I 0 W/m 1,0 C 1,3 C 0,0 km/h (0 Bft) 100,00 %
03.11.2015 22:43 1,3 C 98 % 1022,8 hPa 0,0 l/m 0,3 km/h (0 Bft) S 175 0 min 0,000 mm 0,0 UV-I 0 W/m 1,0 C 1,3 C 1,6 km/h (1 Bft) 100,00 %
03.11.2015 22:44 1,3 C 98 % 1022,8 hPa 0,0 l/m 0,6 km/h (0 Bft) S 175 0 min 0,000 mm 0,0 UV-I 0 W/m 1,0 C 1,3 C 1,6 km/h (1 Bft) 100,00 %
03.11.2015 22:45 1,3 C 98 % 1022,8 hPa 0,0 l/m 0,3 km/h (0 Bft) S 175 0 min 0,000 mm 0,0 UV-I 0 W/m 1,0 C 1,3 C 1,6 km/h (1 Bft) 100,00 %
03.11.2015 22:46 1,3 C 98 % 1022,9 hPa 0,0 l/m 0,5 km/h (0 Bft) S 175 0 min 0,000 mm 0,0 UV-I 0 W/m 1,0 C 1,3 C 1,6 km/h (1 Bft) 91,67 %
03.11.2015 22:47 1,3 C 98 % 1022,9 hPa 0,0 l/m 1,8 km/h (1 Bft) S 175 0 min 0,000 mm 0,0 UV-I 0 W/m 1,0 C 1,3 C 3,2 km/h (1 Bft) 96,55 %
03.11.2015 22:48 1,3 C 98 % 1022,9 hPa 0,0 l/m 2,8 km/h (1 Bft) S 176 0 min 0,000 mm 0,0 UV-I 0 W/m 1,0 C 1,3 C 3,2 km/h (1 Bft) 100,00 %
03.11.2015 22:49 1,3 C 98 % 1023,0 hPa 0,0 l/m 1,9 km/h (1 Bft) S 178 0 min 0,000 mm 0,0 UV-I 0 W/m 1,0 C 1,3 C 3,2 km/h (1 Bft) 100,00 %
03.11.2015 22:50 1,3 C 98 % 1023,0 hPa 0,0 l/m 0,7 km/h (0 Bft) S 178 0 min 0,000 mm 0,0 UV-I 0 W/m 1,0 C 1,3 C 1,6 km/h (1 Bft) 100,00 %
03.11.2015 22:51 1,3 C 98 % 1023,0 hPa 0,0 l/m 0,8 km/h (0 Bft) S 181 0 min 0,000 mm 0,0 UV-I 0 W/m 1,0 C 1,3 C 3,2 km/h (1 Bft) 100,00 %
03.11.2015 22:52 1,3 C 98 % 1022,9 hPa 0,0 l/m 1,0 km/h (0 Bft) S 182 0 min 0,000 mm 0,0 UV-I 0 W/m 1,0 C 1,3 C 1,6 km/h (1 Bft) 100,00 %
03.11.2015 22:53 1,3 C 98 % 1022,9 hPa 0,0 l/m 1,0 km/h (0 Bft) S 182 0 min 0,000 mm 0,0 UV-I 0 W/m 1,0 C 1,3 C 3,2 km/h (1 Bft) 100,00 %
03.11.2015 22:54 1,3 C 98 % 1022,9 hPa 0,0 l/m 0,8 km/h (0 Bft) S 182 0 min 0,000 mm 0,0 UV-I 0 W/m 1,0 C 1,3 C 1,6 km/h (1 Bft) 100,00 %
03.11.2015 22:55 1,3 C 98 % 1022,9 hPa 0,0 l/m 0,4 km/h (0 Bft) S 182 0 min 0,000 mm 0,0 UV-I 0 W/m 1,0 C 1,3 C 1,6 km/h (1 Bft) 96,15 %
03.11.2015 22:56 1,3 C 98 % 1022,9 hPa 0,0 l/m 0,1 km/h (0 Bft) S 182 0 min 0,000 mm 0,0 UV-I 0 W/m 1,0 C 1,3 C 1,6 km/h (1 Bft) 100,00 %
03.11.2015 22:57 1,3 C 98 % 1022,8 hPa 0,0 l/m 1,3 km/h (1 Bft) S-SW 192 0 min 0,000 mm 0,0 UV-I 0 W/m 1,0 C 1,3 C 3,2 km/h (1 Bft) 100,00 %
03.11.2015 22:58 1,4 C 98 % 1022,9 hPa 0,0 l/m 2,5 km/h (1 Bft) S-SW 192 0 min 0,000 mm 0,0 UV-I 0 W/m 1,1 C 1,4 C 3,2 km/h (1 Bft) 100,00 %
03.11.2015 22:59 1,3 C 98 % 1022,9 hPa 0,0 l/m 1,8 km/h (1 Bft) S-SW 192 0 min 0,000 mm 0,0 UV-I 0 W/m 1,0 C 1,3 C 3,2 km/h (1 Bft) 96,15 %
03.11.2015 23:00 1,3 C 98 % 1022,9 hPa 0,0 l/m 1,1 km/h (1 Bft) S-SW 192 0 min 0,000 mm 0,0 UV-I 0 W/m 1,0 C 1,3 C 1,6 km/h (1 Bft) 100,00 %
03.11.2015 23:01 1,3 C 98 % 1022,9 hPa 0,0 l/m 1,6 km/h (1 Bft) S-SW 192 0 min 0,000 mm 0,0 UV-I 0 W/m 1,0 C 1,3 C 3,2 km/h (1 Bft) 100,00 %
03.11.2015 23:02 1,3 C 98 % 1022,9 hPa 0,0 l/m 1,6 km/h (1 Bft) SW 228 0 min 0,000 mm 0,0 UV-I 0 W/m 1,0 C 1,3 C 3,2 km/h (1 Bft) 100,00 %
03.11.2015 23:03 1,3 C 98 % 1022,9 hPa 0,0 l/m 0,5 km/h (0 Bft) SW 228 0 min 0,000 mm 0,0 UV-I 0 W/m 1,0 C 1,3 C 1,6 km/h (1 Bft) 100,00 %
03.11.2015 23:04 1,3 C 98 % 1022,8 hPa 0,0 l/m 0,3 km/h (0 Bft) SW 228 0 min 0,000 mm 0,0 UV-I 0 W/m 1,0 C 1,3 C 1,6 km/h (1 Bft) 100,00 %
03.11.2015 23:05 1,3 C 98 % 1022,8 hPa 0,0 l/m 0,0 km/h (0 Bft) SW 228 0 min 0,000 mm 0,0 UV-I 0 W/m 1,0 C 1,3 C 0,0 km/h (0 Bft) 100,00 %
03.11.2015 23:06 1,3 C 98 % 1022,8 hPa 0,0 l/m 0,0 km/h (0 Bft) SW 228 0 min 0,000 mm 0,0 UV-I 0 W/m 1,0 C 1,3 C 0,0 km/h (0 Bft) 92,59 %
03.11.2015 23:07 1,4 C 98 % 1022,7 hPa 0,0 l/m 0,2 km/h (0 Bft) SW 228 0 min 0,000 mm 0,0 UV-I 0 W/m 1,1 C 1,4 C 1,6 km/h (1 Bft) 100,00 %
03.11.2015 23:08 1,4 C 98 % 1022,7 hPa 0,0 l/m 1,2 km/h (1 Bft) W-NW 286 0 min 0,000 mm 0,0 UV-I 0 W/m 1,1 C 1,4 C 3,2 km/h (1 Bft) 100,00 %
03.11.2015 23:09 1,4 C 98 % 1022,7 hPa 0,0 l/m 0,0 km/h (0 Bft) W-NW 286 0 min 0,000 mm 0,0 UV-I 0 W/m 1,1 C 1,4 C 0,0 km/h (0 Bft) 100,00 %
03.11.2015 23:10 1,4 C 98 % 1022,8 hPa 0,0 l/m 0,0 km/h (0 Bft) W-NW 286 0 min 0,000 mm 0,0 UV-I 0 W/m 1,1 C 1,4 C 0,0 km/h (0 Bft) 100,00 %
03.11.2015 23:11 1,3 C 98 % 1022,8 hPa 0,0 l/m 0,0 km/h (0 Bft) W-NW 286 0 min 0,000 mm 0,0 UV-I 0 W/m 1,0 C 1,3 C 0,0 km/h (0 Bft) 100,00 %
03.11.2015 23:12 1,3 C 98 % 1022,8 hPa 0,0 l/m 0,0 km/h (0 Bft) W-NW 286 0 min 0,000 mm 0,0 UV-I 0 W/m 1,0 C 1,3 C 0,0 km/h (0 Bft) 100,00 %
03.11.2015 23:13 1,4 C 98 % 1022,8 hPa 0,0 l/m 0,6 km/h (0 Bft) W-NW 286 0 min 0,000 mm 0,0 UV-I 0 W/m 1,1 C 1,4 C 1,6 km/h (1 Bft) 100,00 %
03.11.2015 23:14 1,4 C 98 % 1022,8 hPa 0,0 l/m 1,6 km/h (1 Bft) W-NW 285 0 min 0,000 mm 0,0 UV-I 0 W/m 1,1 C 1,4 C 3,2 km/h (1 Bft) 96,15 %
03.11.2015 23:15 1,3 C 98 % 1022,9 hPa 0,0 l/m 0,8 km/h (0 Bft) W 274 0 min 0,000 mm 0,0 UV-I 0 W/m 1,0 C 1,3 C 1,6 km/h (1 Bft) 100,00 %
03.11.2015 23:16 1,3 C 98 % 1022,9 hPa 0,0 l/m 0,5 km/h (0 Bft) W 274 0 min 0,000 mm 0,0 UV-I 0 W/m 1,0 C 1,3 C 1,6 km/h (1 Bft) 100,00 %
03.11.2015 23:17 1,3 C 98 % 1022,9 hPa 0,0 l/m 0,7 km/h (0 Bft) W 274 0 min 0,000 mm 0,0 UV-I 0 W/m 1,0 C 1,3 C 1,6 km/h (1 Bft) 100,00 %
03.11.2015 23:18 1,3 C 98 % 1022,9 hPa 0,0 l/m 0,3 km/h (0 Bft) W 274 0 min 0,000 mm 0,0 UV-I 0 W/m 1,0 C 1,3 C 1,6 km/h (1 Bft) 100,00 %
03.11.2015 23:19 1,3 C 98 % 1022,9 hPa 0,0 l/m 0,7 km/h (0 Bft) W 273 0 min 0,000 mm 0,0 UV-I 0 W/m 1,0 C 1,3 C 1,6 km/h (1 Bft) 100,00 %
03.11.2015 23:20 1,3 C 98 % 1023,0 hPa 0,0 l/m 1,4 km/h (1 Bft) S-SW 199 0 min 0,000 mm 0,0 UV-I 0 W/m 1,0 C 1,3 C 3,2 km/h (1 Bft) 100,00 %
03.11.2015 23:21 1,3 C 98 % 1022,9 hPa 0,0 l/m 2,3 km/h (1 Bft) S-SW 198 0 min 0,000 mm 0,0 UV-I 0 W/m 1,0 C 1,3 C 3,2 km/h (1 Bft) 100,00 %
03.11.2015 23:23 1,3 C 98 % 1022,9 hPa 0,0 l/m 0,6 km/h (0 Bft) S-SW 198 0 min 0,000 mm 0,0 UV-I 0 W/m 1,0 C 1,3 C 1,6 km/h (1 Bft) 100,00 %
03.11.2015 23:25 1,3 C 98 % 1022,9 hPa 0,0 l/m 0,8 km/h (0 Bft) S-SW 198 0 min 0,000 mm 0,0 UV-I 0 W/m 1,0 C 1,3 C 1,6 km/h (1 Bft) 100,00 %
03.11.2015 23:26 1,3 C 98 % 1022,9 hPa 0,0 l/m 0,5 km/h (0 Bft) S-SW 198 0 min 0,000 mm 0,0 UV-I 0 W/m 1,0 C 1,3 C 1,6 km/h (1 Bft) 95,83 %
03.11.2015 23:27 1,3 C 98 % 1022,9 hPa 0,0 l/m 0,6 km/h (0 Bft) SO 128 0 min 0,000 mm 0,0 UV-I 0 W/m 1,0 C 1,3 C 1,6 km/h (1 Bft) 100,00 %
03.11.2015 23:28 1,3 C 98 % 1022,9 hPa 0,0 l/m 0,8 km/h (0 Bft) SO 128 0 min 0,000 mm 0,0 UV-I 0 W/m 1,0 C 1,3 C 1,6 km/h (1 Bft) 95,83 %
03.11.2015 23:29 1,2 C 98 % 1022,9 hPa 0,0 l/m 1,0 km/h (0 Bft) S-SO 153 0 min 0,000 mm 0,0 UV-I 0 W/m 0,9 C 1,2 C 3,2 km/h (1 Bft) 100,00 %
03.11.2015 23:30 1,2 C 98 % 1022,8 hPa 0,0 l/m 2,5 km/h (1 Bft) S 173 0 min 0,000 mm 0,0 UV-I 0 W/m 0,9 C 1,2 C 3,2 km/h (1 Bft) 100,00 %
03.11.2015 23:31 1,2 C 98 % 1022,9 hPa 0,0 l/m 1,8 km/h (1 Bft) S 173 0 min 0,000 mm 0,0 UV-I 0 W/m 0,9 C 1,2 C 3,2 km/h (1 Bft) 100,00 %
03.11.2015 23:32 1,2 C 98 % 1022,9 hPa 0,0 l/m 1,3 km/h (1 Bft) S 173 0 min 0,000 mm 0,0 UV-I 0 W/m 0,9 C 1,2 C 3,2 km/h (1 Bft) 100,00 %
03.11.2015 23:33 1,2 C 98 % 1022,9 hPa 0,0 l/m 1,5 km/h (1 Bft) S 171 0 min 0,000 mm 0,0 UV-I 0 W/m 0,9 C 1,2 C 3,2 km/h (1 Bft) 100,00 %
03.11.2015 23:34 1,2 C 98 % 1022,9 hPa 0,0 l/m 2,6 km/h (1 Bft) S 169 0 min 0,000 mm 0,0 UV-I 0 W/m 0,9 C 1,2 C 6,4 km/h (2 Bft) 96,15 %
03.11.2015 23:35 1,2 C 98 % 1022,9 hPa 0,0 l/m 2,2 km/h (1 Bft) O-SO 119 0 min 0,000 mm 0,0 UV-I 0 W/m 0,9 C 1,2 C 3,2 km/h (1 Bft) 100,00 %
03.11.2015 23:36 1,2 C 98 % 1022,9 hPa 0,0 l/m 1,3 km/h (1 Bft) SO 137 0 min 0,000 mm 0,0 UV-I 0 W/m 0,9 C 1,2 C 1,6 km/h (1 Bft) 100,00 %
03.11.2015 23:37 1,1 C 98 % 1022,9 hPa 0,0 l/m 0,8 km/h (0 Bft) SO 137 0 min 0,000 mm 0,0 UV-I 0 W/m 0,8 C 1,1 C 1,6 km/h (1 Bft) 100,00 %
03.11.2015 23:38 1,1 C 98 % 1022,9 hPa 0,0 l/m 0,0 km/h (0 Bft) SO 137 0 min 0,000 mm 0,0 UV-I 0 W/m 0,8 C 1,1 C 0,0 km/h (0 Bft) 100,00 %
03.11.2015 23:39 1,2 C 98 % 1022,9 hPa 0,0 l/m 0,0 km/h (0 Bft) SO 137 0 min 0,000 mm 0,0 UV-I 0 W/m 0,9 C 1,2 C 0,0 km/h (0 Bft) 100,00 %
03.11.2015 23:40 1,2 C 98 % 1022,9 hPa 0,0 l/m 0,0 km/h (0 Bft) SO 136 0 min 0,000 mm 0,0 UV-I 0 W/m 0,9 C 1,2 C 0,0 km/h (0 Bft) 100,00 %
03.11.2015 23:41 1,2 C 98 % 1022,9 hPa 0,0 l/m 1,1 km/h (1 Bft) SO 136 0 min 0,000 mm 0,0 UV-I 0 W/m 0,9 C 1,2 C 1,6 km/h (1 Bft) 100,00 %
03.11.2015 23:42 1,2 C 98 % 1022,9 hPa 0,0 l/m 0,7 km/h (0 Bft) SO 136 0 min 0,000 mm 0,0 UV-I 0 W/m 0,9 C 1,2 C 1,6 km/h (1 Bft) 100,00 %
03.11.2015 23:43 1,2 C 98 % 1022,9 hPa 0,0 l/m 0,1 km/h (0 Bft) SO 136 0 min 0,000 mm 0,0 UV-I 0 W/m 0,9 C 1,2 C 1,6 km/h (1 Bft) 100,00 %
03.11.2015 23:44 1,2 C 98 % 1022,9 hPa 0,0 l/m 0,0 km/h (0 Bft) SO 136 0 min 0,000 mm 0,0 UV-I 0 W/m 0,9 C 1,2 C 0,0 km/h (0 Bft) 95,65 %
03.11.2015 23:45 1,2 C 98 % 1022,9 hPa 0,0 l/m 0,0 km/h (0 Bft) SO 136 0 min 0,000 mm 0,0 UV-I 0 W/m 0,9 C 1,2 C 0,0 km/h (0 Bft) 100,00 %
03.11.2015 23:46 1,2 C 98 % 1022,9 hPa 0,0 l/m 0,3 km/h (0 Bft) S-SO 155 0 min 0,000 mm 0,0 UV-I 0 W/m 0,9 C 1,2 C 1,6 km/h (1 Bft) 100,00 %
03.11.2015 23:47 1,2 C 98 % 1022,9 hPa 0,0 l/m 0,5 km/h (0 Bft) S-SO 155 0 min 0,000 mm 0,0 UV-I 0 W/m 0,9 C 1,2 C 1,6 km/h (1 Bft) 100,00 %
03.11.2015 23:48 1,2 C 98 % 1022,9 hPa 0,0 l/m 0,3 km/h (0 Bft) S-SO 155 0 min 0,000 mm 0,0 UV-I 0 W/m 0,9 C 1,2 C 1,6 km/h (1 Bft) 100,00 %
03.11.2015 23:49 1,2 C 98 % 1022,9 hPa 0,0 l/m 1,9 km/h (1 Bft) S-SO 163 0 min 0,000 mm 0,0 UV-I 0 W/m 0,9 C 1,2 C 3,2 km/h (1 Bft) 100,00 %
03.11.2015 23:50 1,2 C 98 % 1022,9 hPa 0,0 l/m 2,5 km/h (1 Bft) S-SO 165 0 min 0,000 mm 0,0 UV-I 0 W/m 0,9 C 1,2 C 3,2 km/h (1 Bft) 100,00 %
03.11.2015 23:51 1,2 C 98 % 1022,9 hPa 0,0 l/m 2,2 km/h (1 Bft) S-SO 159 0 min 0,000 mm 0,0 UV-I 0 W/m 0,9 C 1,2 C 3,2 km/h (1 Bft) 95,83 %
03.11.2015 23:52 1,1 C 98 % 1022,9 hPa 0,0 l/m 1,1 km/h (1 Bft) S-SO 159 0 min 0,000 mm 0,0 UV-I 0 W/m 0,8 C 1,1 C 1,6 km/h (1 Bft) 100,00 %
03.11.2015 23:53 1,1 C 98 % 1022,9 hPa 0,0 l/m 1,4 km/h (1 Bft) S-SO 151 0 min 0,000 mm 0,0 UV-I 0 W/m 0,8 C 1,1 C 3,2 km/h (1 Bft) 100,00 %
03.11.2015 23:54 1,1 C 98 % 1022,9 hPa 0,0 l/m 1,0 km/h (0 Bft) S-SO 150 0 min 0,000 mm 0,0 UV-I 0 W/m 0,8 C 1,1 C 3,2 km/h (1 Bft) 100,00 %
03.11.2015 23:55 1,1 C 98 % 1022,9 hPa 0,0 l/m 0,5 km/h (0 Bft) S-SO 150 0 min 0,000 mm 0,0 UV-I 0 W/m 0,8 C 1,1 C 1,6 km/h (1 Bft) 100,00 %
03.11.2015 23:56 1,1 C 98 % 1022,9 hPa 0,0 l/m 1,9 km/h (1 Bft) S 173 0 min 0,000 mm 0,0 UV-I 0 W/m 0,8 C 1,1 C 3,2 km/h (1 Bft) 91,30 %
03.11.2015 23:57 1,1 C 98 % 1022,9 hPa 0,0 l/m 0,7 km/h (0 Bft) S 173 0 min 0,000 mm 0,0 UV-I 0 W/m 0,8 C 1,1 C 3,2 km/h (1 Bft) 100,00 %
03.11.2015 23:58 1,1 C 98 % 1022,8 hPa 0,0 l/m 0,4 km/h (0 Bft) S 173 0 min 0,000 mm 0,0 UV-I 0 W/m 0,8 C 1,1 C 3,2 km/h (1 Bft) 100,00 %
03.11.2015 23:59 1,1 C 98 % 1022,9 hPa 0,0 l/m 1,3 km/h (1 Bft) S 173 0 min 0,000 mm 0,0 UV-I 0 W/m 0,8 C 1,1 C 3,2 km/h (1 Bft) 90,91 %
_ Min-Zeit 05:34 00:51 19:15 - 00:03 - - - - - - 05:34 08:57 00:03 16:36
Minimum _ -2,3 C 88 % 1022,0 hPa - 0,0 km/h (0 Bft) - - - - - - -3,1 C -2,6 C 0,0 km/h (0 Bft) 88,46 %
_ Max-Zeit 15:17 09:36 00:11 00:00 13:13 - - 15:12 12:00 12:14 14:25 15:45 15:14 13:13 00:02
Maximum _ 3,0 C 98 % 1027,4 hPa 0,0 l/m 11,7 km/h
O-NO (2 Bft)
- - 1 min 0,051 mm 0,7 UV-I 150 W/m 1,9 C 2,9 C 17,7 km/h
O (3 Bft)
100,00 %
Durchschnitt _ 0,5 C 95 % 1024,1 hPa #0,0 l/m 2,1 km/h (1 Bft) O - #14 min. #0,305 mm 0,5 UV-I 76 W/m -0,1 C 0,4 C 3,7 km/h (1 Bft) 99,15 %